<?xml version='1.0' encoding='UTF-8'?><gpx version="1.1" creator="JPX - https://github.com/jenetics/jpx" xmlns="http://www.topografix.com/GPX/1/1"><trk><trkseg><trkpt lat="50.986337076512925" lon="4.81297481464231"><ele>10.0</ele><time>2026-04-16T15:05:27.998Z</time></trkpt><trkpt lat="50.986268104376535" lon="4.812883994938554"><ele>10.0</ele><time>2026-04-16T15:05:28.998Z</time></trkpt><trkpt lat="50.98618065693797" lon="4.812801903753069"><ele>10.0</ele><time>2026-04-16T15:05:29.998Z</time></trkpt><trkpt lat="50.986082360071876" lon="4.812748006896319"><ele>10.0</ele><time>2026-04-16T15:05:30.999Z</time></trkpt><trkpt lat="50.98599102642794" lon="4.8127236746171365"><ele>10.0</ele><time>2026-04-16T15:05:31.999Z</time></trkpt><trkpt lat="50.98584876404816" lon="4.812733353296025"><ele>10.25</ele><time>2026-04-16T15:05:32.999Z</time></trkpt><trkpt lat="50.985698730994244" lon="4.812766259320168"><ele>10.5</ele><time>2026-04-16T15:05:33.999Z</time></trkpt><trkpt lat="50.985566366460105" lon="4.8127849183929525"><ele>10.75</ele><time>2026-04-16T15:05:34.999Z</time></trkpt><trkpt lat="50.985421498204175" lon="4.812802119357837"><ele>11.0</ele><time>2026-04-16T15:05:35.999Z</time></trkpt><trkpt lat="50.98528349158077" lon="4.812808905317779"><ele>11.0</ele><time>2026-04-16T15:05:36.999Z</time></trkpt><trkpt lat="50.98514228798223" lon="4.812818279302583"><ele>11.0</ele><time>2026-04-16T15:05:37.999Z</time></trkpt><trkpt lat="50.98500151665438" lon="4.8128347209449505"><ele>11.0</ele><time>2026-04-16T15:05:38.999Z</time></trkpt><trkpt lat="50.98486297429232" lon="4.8128506354948515"><ele>11.0</ele><time>2026-04-16T15:05:39.999Z</time></trkpt><trkpt lat="50.98471897721179" lon="4.812861565089346"><ele>11.0</ele><time>2026-04-16T15:05:40.999Z</time></trkpt><trkpt lat="50.98458113509053" lon="4.81288342998221"><ele>11.0</ele><time>2026-04-16T15:05:41.999Z</time></trkpt><trkpt lat="50.9844344339986" lon="4.812904481358929"><ele>11.0</ele><time>2026-04-16T15:05:42.999Z</time></trkpt><trkpt lat="50.98429368774158" lon="4.812921112644857"><ele>11.0</ele><time>2026-04-16T15:05:43.999Z</time></trkpt><trkpt lat="50.98415902073425" lon="4.8129321358605175"><ele>10.8</ele><time>2026-04-16T15:05:44.999Z</time></trkpt><trkpt lat="50.984042028689295" lon="4.812944595671309"><ele>10.600000000000001</ele><time>2026-04-16T15:05:45.999Z</time></trkpt><trkpt lat="50.98393692443521" lon="4.812946721752961"><ele>10.4</ele><time>2026-04-16T15:05:46.999Z</time></trkpt><trkpt lat="50.98383542336251" lon="4.812946353084377"><ele>10.2</ele><time>2026-04-16T15:05:47.999Z</time></trkpt><trkpt lat="50.9837548744717" lon="4.812954860582702"><ele>10.0</ele><time>2026-04-16T15:05:48.999Z</time></trkpt><trkpt lat="50.98367908348659" lon="4.812958729651359"><ele>10.0</ele><time>2026-04-16T15:05:49.999Z</time></trkpt><trkpt lat="50.98357943855529" lon="4.812974745824181"><ele>10.0</ele><time>2026-04-16T15:05:51.999Z</time></trkpt><trkpt lat="50.98353104528128" lon="4.812789373638498"><ele>10.0</ele><time>2026-04-16T15:05:52.999Z</time></trkpt><trkpt lat="50.98349060918158" lon="4.812643198529796"><ele>10.0</ele><time>2026-04-16T15:05:54.999Z</time></trkpt><trkpt lat="50.98347490085798" lon="4.812488107063519"><ele>10.0</ele><time>2026-04-16T15:05:56.999Z</time></trkpt><trkpt lat="50.98346513421983" lon="4.8123827948447415"><ele>10.0</ele><time>2026-04-16T15:05:58.999Z</time></trkpt><trkpt lat="50.98344193136576" lon="4.812218531021982"><ele>10.0</ele><time>2026-04-16T15:06:00.999Z</time></trkpt><trkpt lat="50.98342134485899" lon="4.812100807397597"><ele>10.0</ele><time>2026-04-16T15:06:01.999Z</time></trkpt><trkpt lat="50.98338188215754" lon="4.811973320662428"><ele>10.0</ele><time>2026-04-16T15:06:02.999Z</time></trkpt><trkpt lat="50.983370792945" lon="4.8118180923005545"><ele>10.0</ele><time>2026-04-16T15:06:03.999Z</time></trkpt><trkpt lat="50.98334291111161" lon="4.811664085126783"><ele>10.166666666666668</ele><time>2026-04-16T15:06:04.999Z</time></trkpt><trkpt lat="50.983317172092974" lon="4.811521995751257"><ele>10.333333333333334</ele><time>2026-04-16T15:06:05.999Z</time></trkpt><trkpt lat="50.983298224078155" lon="4.811417395326923"><ele>10.5</ele><time>2026-04-16T15:06:06.999Z</time></trkpt><trkpt lat="50.98325768685156" lon="4.8112555482576065"><ele>10.666666666666666</ele><time>2026-04-16T15:06:08.999Z</time></trkpt><trkpt lat="50.9832442994301" lon="4.811141603942457"><ele>10.833333333333332</ele><time>2026-04-16T15:06:11.999Z</time></trkpt><trkpt lat="50.98324207481074" lon="4.810988365750854"><ele>11.0</ele><time>2026-04-16T15:06:14.999Z</time></trkpt><trkpt lat="50.98323340532151" lon="4.810837410574906"><ele>11.0</ele><time>2026-04-16T15:06:16.999Z</time></trkpt><trkpt lat="50.983208434912164" lon="4.810731999708006"><ele>11.0</ele><time>2026-04-16T15:06:18.999Z</time></trkpt><trkpt lat="50.98315235520438" lon="4.810668922172616"><ele>11.0</ele><time>2026-04-16T15:06:34.999Z</time></trkpt><trkpt lat="50.983033416786235" lon="4.8106829528603345"><ele>11.0</ele><time>2026-04-16T15:06:36.999Z</time></trkpt><trkpt lat="50.982929317750134" lon="4.810709400225359"><ele>11.0</ele><time>2026-04-16T15:06:37.998Z</time></trkpt><trkpt lat="50.98280689798564" lon="4.810719582555074"><ele>11.0</ele><time>2026-04-16T15:06:38.998Z</time></trkpt><trkpt lat="50.982652423665776" lon="4.810728290341222"><ele>11.0</ele><time>2026-04-16T15:06:39.998Z</time></trkpt><trkpt lat="50.98248604402261" lon="4.810743114953935"><ele>11.0</ele><time>2026-04-16T15:06:40.998Z</time></trkpt><trkpt lat="50.98229966707845" lon="4.810760706458655"><ele>11.333333333333332</ele><time>2026-04-16T15:06:41.998Z</time></trkpt><trkpt lat="50.98210777169092" lon="4.810783331273864"><ele>11.666666666666666</ele><time>2026-04-16T15:06:42.998Z</time></trkpt><trkpt lat="50.98189392916241" lon="4.810807612382087"><ele>12.0</ele><time>2026-04-16T15:06:43.998Z</time></trkpt><trkpt lat="50.981683015952115" lon="4.810832156080243"><ele>12.0</ele><time>2026-04-16T15:06:44.998Z</time></trkpt><trkpt lat="50.98146961902497" lon="4.810855127742276"><ele>12.0</ele><time>2026-04-16T15:06:45.998Z</time></trkpt><trkpt lat="50.98125112143003" lon="4.810886655445794"><ele>12.0</ele><time>2026-04-16T15:06:46.998Z</time></trkpt><trkpt lat="50.98102506391615" lon="4.810934267719996"><ele>13.5</ele><time>2026-04-16T15:06:47.998Z</time></trkpt><trkpt lat="50.98080276209207" lon="4.81099132530335"><ele>15.0</ele><time>2026-04-16T15:06:48.998Z</time></trkpt><trkpt lat="50.980578234678724" lon="4.8110652940809615"><ele>15.0</ele><time>2026-04-16T15:06:49.998Z</time></trkpt><trkpt lat="50.98036509175001" lon="4.811154364983337"><ele>15.0</ele><time>2026-04-16T15:06:50.998Z</time></trkpt><trkpt lat="50.98015793710476" lon="4.811260079065728"><ele>15.0</ele><time>2026-04-16T15:06:51.998Z</time></trkpt><trkpt lat="50.979954972129036" lon="4.811378116871141"><ele>15.666666666666668</ele><time>2026-04-16T15:06:52.998Z</time></trkpt><trkpt lat="50.97975702459363" lon="4.811512527404234"><ele>16.333333333333336</ele><time>2026-04-16T15:06:53.998Z</time></trkpt><trkpt lat="50.97956057408899" lon="4.811651016790295"><ele>17.0</ele><time>2026-04-16T15:06:54.998Z</time></trkpt><trkpt lat="50.97936846026536" lon="4.81180423903851"><ele>17.0</ele><time>2026-04-16T15:06:55.998Z</time></trkpt><trkpt lat="50.979183041962116" lon="4.811971511869732"><ele>17.0</ele><time>2026-04-16T15:06:56.998Z</time></trkpt><trkpt lat="50.97901478229441" lon="4.812168969277538"><ele>17.0</ele><time>2026-04-16T15:06:57.998Z</time></trkpt><trkpt lat="50.97885283362096" lon="4.812380863154639"><ele>17.0</ele><time>2026-04-16T15:06:58.998Z</time></trkpt><trkpt lat="50.978697720297035" lon="4.8126029639340775"><ele>17.0</ele><time>2026-04-16T15:06:59.998Z</time></trkpt><trkpt lat="50.978541211667675" lon="4.812832117644877"><ele>17.0</ele><time>2026-04-16T15:07:00.998Z</time></trkpt><trkpt lat="50.978393970106694" lon="4.813068533955047"><ele>17.0</ele><time>2026-04-16T15:07:01.998Z</time></trkpt><trkpt lat="50.9782531155854" lon="4.8133146855776525"><ele>17.0</ele><time>2026-04-16T15:07:02.998Z</time></trkpt><trkpt lat="50.97811571508318" lon="4.813570607759169"><ele>17.0</ele><time>2026-04-16T15:07:03.998Z</time></trkpt><trkpt lat="50.97797918606598" lon="4.813830800647346"><ele>17.0</ele><time>2026-04-16T15:07:04.998Z</time></trkpt><trkpt lat="50.97783994788701" lon="4.814086144782202"><ele>17.0</ele><time>2026-04-16T15:07:05.998Z</time></trkpt><trkpt lat="50.97769774709259" lon="4.814338474604263"><ele>17.0</ele><time>2026-04-16T15:07:06.998Z</time></trkpt><trkpt lat="50.9775586127942" lon="4.814594411826654"><ele>17.0</ele><time>2026-04-16T15:07:07.998Z</time></trkpt><trkpt lat="50.97742165270342" lon="4.814861448158666"><ele>17.0</ele><time>2026-04-16T15:07:08.998Z</time></trkpt><trkpt lat="50.97728928411963" lon="4.815130535968251"><ele>17.0</ele><time>2026-04-16T15:07:09.998Z</time></trkpt><trkpt lat="50.9771662723089" lon="4.815408512890256"><ele>17.0</ele><time>2026-04-16T15:07:10.998Z</time></trkpt><trkpt lat="50.977052829419975" lon="4.815700545918406"><ele>17.0</ele><time>2026-04-16T15:07:11.998Z</time></trkpt><trkpt lat="50.97695455347664" lon="4.816003637833324"><ele>17.0</ele><time>2026-04-16T15:07:12.998Z</time></trkpt><trkpt lat="50.9768714995766" lon="4.8163213952699335"><ele>17.0</ele><time>2026-04-16T15:07:13.998Z</time></trkpt><trkpt lat="50.97680430274684" lon="4.816643723833592"><ele>17.0</ele><time>2026-04-16T15:07:15Z</time></trkpt><trkpt lat="50.97676303092011" lon="4.816974682837817"><ele>17.0</ele><time>2026-04-16T15:07:16Z</time></trkpt><trkpt lat="50.976742137124866" lon="4.817319204861462"><ele>18.333333333333336</ele><time>2026-04-16T15:07:17Z</time></trkpt><trkpt lat="50.97674044671874" lon="4.817653253964146"><ele>19.666666666666668</ele><time>2026-04-16T15:07:18Z</time></trkpt><trkpt lat="50.97676057105981" lon="4.817988717260058"><ele>21.0</ele><time>2026-04-16T15:07:19Z</time></trkpt><trkpt lat="50.97679552044013" lon="4.818328832480418"><ele>21.333333333333332</ele><time>2026-04-16T15:07:20Z</time></trkpt><trkpt lat="50.97684808104756" lon="4.818663619778141"><ele>21.666666666666664</ele><time>2026-04-16T15:07:21Z</time></trkpt><trkpt lat="50.97691436444825" lon="4.818992554454569"><ele>22.0</ele><time>2026-04-16T15:07:22Z</time></trkpt><trkpt lat="50.97698960110485" lon="4.819311761564527"><ele>23.0</ele><time>2026-04-16T15:07:23Z</time></trkpt><trkpt lat="50.97707649561167" lon="4.819631016154233"><ele>24.0</ele><time>2026-04-16T15:07:24Z</time></trkpt><trkpt lat="50.977165204252174" lon="4.819940273667016"><ele>25.0</ele><time>2026-04-16T15:07:25Z</time></trkpt><trkpt lat="50.97726121544119" lon="4.820259785350117"><ele>24.333333333333336</ele><time>2026-04-16T15:07:26Z</time></trkpt><trkpt lat="50.977351525591914" lon="4.8205725572151845"><ele>23.666666666666668</ele><time>2026-04-16T15:07:27Z</time></trkpt><trkpt lat="50.97744093788723" lon="4.8208875890358565"><ele>23.0</ele><time>2026-04-16T15:07:28Z</time></trkpt><trkpt lat="50.97753284632517" lon="4.821206760423352"><ele>23.0</ele><time>2026-04-16T15:07:29Z</time></trkpt><trkpt lat="50.97763134696309" lon="4.821532830836927"><ele>23.0</ele><time>2026-04-16T15:07:30Z</time></trkpt><trkpt lat="50.97772029716671" lon="4.821851877082786"><ele>23.0</ele><time>2026-04-16T15:07:31Z</time></trkpt><trkpt lat="50.97781003403234" lon="4.822176508247506"><ele>24.333333333333336</ele><time>2026-04-16T15:07:32Z</time></trkpt><trkpt lat="50.97789351343021" lon="4.822506022913011"><ele>25.666666666666668</ele><time>2026-04-16T15:07:33Z</time></trkpt><trkpt lat="50.97796489836018" lon="4.822826844044042"><ele>27.0</ele><time>2026-04-16T15:07:34Z</time></trkpt><trkpt lat="50.978036415038325" lon="4.823156429896046"><ele>29.666666666666664</ele><time>2026-04-16T15:07:35Z</time></trkpt><trkpt lat="50.97808043882998" lon="4.823501479302481"><ele>32.33333333333333</ele><time>2026-04-16T15:07:36Z</time></trkpt><trkpt lat="50.97810873370766" lon="4.823842552573396"><ele>35.0</ele><time>2026-04-16T15:07:37Z</time></trkpt><trkpt lat="50.97811312889917" lon="4.824186096294352"><ele>36.33333333333333</ele><time>2026-04-16T15:07:37.999Z</time></trkpt><trkpt lat="50.9780969847034" lon="4.8245211375231465"><ele>37.666666666666664</ele><time>2026-04-16T15:07:38.999Z</time></trkpt><trkpt lat="50.978070609488924" lon="4.824848424269858"><ele>39.0</ele><time>2026-04-16T15:07:39.999Z</time></trkpt><trkpt lat="50.97803301691576" lon="4.825139006975021"><ele>39.333333333333336</ele><time>2026-04-16T15:07:40.999Z</time></trkpt><trkpt lat="50.977983671209714" lon="4.825402869630178"><ele>39.66666666666667</ele><time>2026-04-16T15:07:41.999Z</time></trkpt><trkpt lat="50.97791957472554" lon="4.825647758703883"><ele>40.0</ele><time>2026-04-16T15:07:42.999Z</time></trkpt><trkpt lat="50.977839036223465" lon="4.825880231398984"><ele>40.333333333333336</ele><time>2026-04-16T15:07:43.999Z</time></trkpt><trkpt lat="50.977745520972995" lon="4.826101464299345"><ele>40.666666666666664</ele><time>2026-04-16T15:07:44.999Z</time></trkpt><trkpt lat="50.97764320732723" lon="4.826313420838889"><ele>41.0</ele><time>2026-04-16T15:07:45.999Z</time></trkpt><trkpt lat="50.977524126056004" lon="4.8265269506339905"><ele>41.0</ele><time>2026-04-16T15:07:46.999Z</time></trkpt><trkpt lat="50.977395937963124" lon="4.826724552259224"><ele>41.0</ele><time>2026-04-16T15:07:47.999Z</time></trkpt><trkpt lat="50.97724954393682" lon="4.8269257295569785"><ele>41.0</ele><time>2026-04-16T15:07:48.999Z</time></trkpt><trkpt lat="50.977100023150534" lon="4.827112881159778"><ele>41.666666666666664</ele><time>2026-04-16T15:07:49.999Z</time></trkpt><trkpt lat="50.9769373848045" lon="4.827303782743542"><ele>42.333333333333336</ele><time>2026-04-16T15:07:50.999Z</time></trkpt><trkpt lat="50.97676309574101" lon="4.827485492883719"><ele>43.0</ele><time>2026-04-16T15:07:51.999Z</time></trkpt><trkpt lat="50.9765806640982" lon="4.8276628820359635"><ele>43.66666666666667</ele><time>2026-04-16T15:07:52.999Z</time></trkpt><trkpt lat="50.976400927317805" lon="4.827839269494861"><ele>44.333333333333336</ele><time>2026-04-16T15:07:53.999Z</time></trkpt><trkpt lat="50.97621511903183" lon="4.828008622899797"><ele>45.0</ele><time>2026-04-16T15:07:54.999Z</time></trkpt><trkpt lat="50.976027683641654" lon="4.828174865349256"><ele>45.0</ele><time>2026-04-16T15:07:55.999Z</time></trkpt><trkpt lat="50.975843041492254" lon="4.828354772700987"><ele>45.0</ele><time>2026-04-16T15:07:56.999Z</time></trkpt><trkpt lat="50.97565836707064" lon="4.828531195393435"><ele>45.0</ele><time>2026-04-16T15:07:57.999Z</time></trkpt><trkpt lat="50.97547255893111" lon="4.828712906834174"><ele>45.0</ele><time>2026-04-16T15:07:58.999Z</time></trkpt><trkpt lat="50.97529452597155" lon="4.828894496558553"><ele>45.0</ele><time>2026-04-16T15:07:59.999Z</time></trkpt><trkpt lat="50.975119379828676" lon="4.829089033861459"><ele>45.0</ele><time>2026-04-16T15:08:00.999Z</time></trkpt><trkpt lat="50.97495524554516" lon="4.829289455240816"><ele>45.0</ele><time>2026-04-16T15:08:01.999Z</time></trkpt><trkpt lat="50.97477840622746" lon="4.829505690484906"><ele>45.0</ele><time>2026-04-16T15:08:02.999Z</time></trkpt><trkpt lat="50.97460776348655" lon="4.829710769997647"><ele>45.0</ele><time>2026-04-16T15:08:03.999Z</time></trkpt><trkpt lat="50.97443641678912" lon="4.829925596452268"><ele>45.333333333333336</ele><time>2026-04-16T15:08:04.999Z</time></trkpt><trkpt lat="50.97427184952938" lon="4.830141680902639"><ele>45.66666666666667</ele><time>2026-04-16T15:08:05.999Z</time></trkpt><trkpt lat="50.974108154136935" lon="4.830372494916086"><ele>46.0</ele><time>2026-04-16T15:08:06.999Z</time></trkpt><trkpt lat="50.97394179321029" lon="4.830611403746084"><ele>46.66666666666667</ele><time>2026-04-16T15:08:07.999Z</time></trkpt><trkpt lat="50.97378014600081" lon="4.830852461579264"><ele>47.333333333333336</ele><time>2026-04-16T15:08:08.999Z</time></trkpt><trkpt lat="50.973619178443116" lon="4.8310937455240825"><ele>48.0</ele><time>2026-04-16T15:08:09.999Z</time></trkpt><trkpt lat="50.973450969551294" lon="4.831343018024754"><ele>48.0</ele><time>2026-04-16T15:08:10.999Z</time></trkpt><trkpt lat="50.97328660593385" lon="4.831583668417925"><ele>48.0</ele><time>2026-04-16T15:08:11.999Z</time></trkpt><trkpt lat="50.97312276665054" lon="4.831822746515381"><ele>48.0</ele><time>2026-04-16T15:08:12.999Z</time></trkpt><trkpt lat="50.972962123482645" lon="4.832061208419368"><ele>48.0</ele><time>2026-04-16T15:08:13.999Z</time></trkpt><trkpt lat="50.972804883535794" lon="4.832295288793067"><ele>48.0</ele><time>2026-04-16T15:08:14.999Z</time></trkpt><trkpt lat="50.97264320163688" lon="4.832531400182338"><ele>48.0</ele><time>2026-04-16T15:08:15.999Z</time></trkpt><trkpt lat="50.97248120904996" lon="4.832767360737837"><ele>48.0</ele><time>2026-04-16T15:08:16.999Z</time></trkpt><trkpt lat="50.97231467349659" lon="4.833001610962771"><ele>48.0</ele><time>2026-04-16T15:08:17.999Z</time></trkpt><trkpt lat="50.97214826178795" lon="4.83322411072854"><ele>48.0</ele><time>2026-04-16T15:08:18.999Z</time></trkpt><trkpt lat="50.97197493518493" lon="4.83343693704613"><ele>48.0</ele><time>2026-04-16T15:08:19.999Z</time></trkpt><trkpt lat="50.971796163053696" lon="4.833636565249245"><ele>48.0</ele><time>2026-04-16T15:08:20.999Z</time></trkpt><trkpt lat="50.97160854414397" lon="4.833833527693564"><ele>48.0</ele><time>2026-04-16T15:08:21.999Z</time></trkpt><trkpt lat="50.97142066685192" lon="4.834017229934555"><ele>48.0</ele><time>2026-04-16T15:08:22.999Z</time></trkpt><trkpt lat="50.971230547856685" lon="4.834190340564876"><ele>48.0</ele><time>2026-04-16T15:08:23.999Z</time></trkpt><trkpt lat="50.97103566568768" lon="4.834362526002827"><ele>48.0</ele><time>2026-04-16T15:08:24.999Z</time></trkpt><trkpt lat="50.97083892719694" lon="4.834525911635971"><ele>48.0</ele><time>2026-04-16T15:08:25.999Z</time></trkpt><trkpt lat="50.9706401149024" lon="4.834678158002802"><ele>48.0</ele><time>2026-04-16T15:08:26.999Z</time></trkpt><trkpt lat="50.970440662964684" lon="4.834816281373388"><ele>48.0</ele><time>2026-04-16T15:08:27.999Z</time></trkpt><trkpt lat="50.97023095581319" lon="4.834944198707732"><ele>48.66666666666667</ele><time>2026-04-16T15:08:28.999Z</time></trkpt><trkpt lat="50.970023602306746" lon="4.835064854399044"><ele>49.333333333333336</ele><time>2026-04-16T15:08:29.999Z</time></trkpt><trkpt lat="50.96981542694027" lon="4.835174874172705"><ele>50.0</ele><time>2026-04-16T15:08:30.999Z</time></trkpt><trkpt lat="50.96960457170541" lon="4.835276004349495"><ele>50.0</ele><time>2026-04-16T15:08:31.999Z</time></trkpt><trkpt lat="50.969397291567894" lon="4.835359973154837"><ele>50.0</ele><time>2026-04-16T15:08:32.999Z</time></trkpt><trkpt lat="50.96918562610607" lon="4.8354271511467966"><ele>50.0</ele><time>2026-04-16T15:08:33.998Z</time></trkpt><trkpt lat="50.968993801642284" lon="4.83548459943731"><ele>51.66666666666667</ele><time>2026-04-16T15:08:34.998Z</time></trkpt><trkpt lat="50.96881825262493" lon="4.835532540778393"><ele>53.33333333333333</ele><time>2026-04-16T15:08:35.998Z</time></trkpt><trkpt lat="50.96865724423093" lon="4.835574636852696"><ele>55.0</ele><time>2026-04-16T15:08:36.998Z</time></trkpt><trkpt lat="50.96850468801377" lon="4.835617228756881"><ele>55.0</ele><time>2026-04-16T15:08:37.998Z</time></trkpt><trkpt lat="50.968362078752605" lon="4.835659578744145"><ele>55.0</ele><time>2026-04-16T15:08:38.998Z</time></trkpt><trkpt lat="50.96823309303367" lon="4.835674721259624"><ele>55.0</ele><time>2026-04-16T15:08:39.998Z</time></trkpt><trkpt lat="50.96812258924619" lon="4.835702410015159"><ele>55.0</ele><time>2026-04-16T15:08:40.998Z</time></trkpt><trkpt lat="50.968021596451344" lon="4.835727715613614"><ele>55.166666666666664</ele><time>2026-04-16T15:08:41.998Z</time></trkpt><trkpt lat="50.967932408806334" lon="4.835750063216552"><ele>55.33333333333333</ele><time>2026-04-16T15:08:42.998Z</time></trkpt><trkpt lat="50.967869867546256" lon="4.835765734078172"><ele>55.5</ele><time>2026-04-16T15:08:43.998Z</time></trkpt><trkpt lat="50.967789057366296" lon="4.835785982552087"><ele>55.66666666666667</ele><time>2026-04-16T15:08:45.998Z</time></trkpt><trkpt lat="50.967713426639726" lon="4.835805016110688"><ele>55.833333333333336</ele><time>2026-04-16T15:09:07.998Z</time></trkpt><trkpt lat="50.9675937554323" lon="4.8358370032750155"><ele>56.0</ele><time>2026-04-16T15:09:09.998Z</time></trkpt><trkpt lat="50.96752087265352" lon="4.836083286232777"><ele>55.75</ele><time>2026-04-16T15:09:11.998Z</time></trkpt><trkpt lat="50.967520408179624" lon="4.836311926250924"><ele>55.5</ele><time>2026-04-16T15:09:12.998Z</time></trkpt><trkpt lat="50.967506945638895" lon="4.836510105810912"><ele>55.25</ele><time>2026-04-16T15:09:13.998Z</time></trkpt><trkpt lat="50.96752332826531" lon="4.8367255975611085"><ele>55.0</ele><time>2026-04-16T15:09:14.998Z</time></trkpt><trkpt lat="50.967527491699066" lon="4.836964785981022"><ele>54.33333333333333</ele><time>2026-04-16T15:09:15.998Z</time></trkpt><trkpt lat="50.96751740400576" lon="4.837210827023297"><ele>53.66666666666667</ele><time>2026-04-16T15:09:16.998Z</time></trkpt><trkpt lat="50.967504320194855" lon="4.8374749976300855"><ele>53.0</ele><time>2026-04-16T15:09:17.998Z</time></trkpt><trkpt lat="50.96748908053381" lon="4.837745413094569"><ele>53.0</ele><time>2026-04-16T15:09:18.998Z</time></trkpt><trkpt lat="50.96745826193452" lon="4.838019514367967"><ele>53.0</ele><time>2026-04-16T15:09:20Z</time></trkpt><trkpt lat="50.96739641384027" lon="4.838279271406144"><ele>53.0</ele><time>2026-04-16T15:09:21Z</time></trkpt><trkpt lat="50.96733843392564" lon="4.838497230127079"><ele>52.75</ele><time>2026-04-16T15:09:22Z</time></trkpt><trkpt lat="50.9672642704773" lon="4.83870802058407"><ele>52.5</ele><time>2026-04-16T15:09:23Z</time></trkpt><trkpt lat="50.96718766172491" lon="4.838897261485827"><ele>52.25</ele><time>2026-04-16T15:09:24Z</time></trkpt><trkpt lat="50.9671141768746" lon="4.839033264767638"><ele>52.0</ele><time>2026-04-16T15:09:25Z</time></trkpt><trkpt lat="50.96704661253065" lon="4.8391368827397"><ele>52.0</ele><time>2026-04-16T15:09:26Z</time></trkpt><trkpt lat="50.96699738488842" lon="4.839205027353807"><ele>52.0</ele><time>2026-04-16T15:09:27Z</time></trkpt><trkpt lat="50.96693884430932" lon="4.839285390097622"><ele>52.0</ele><time>2026-04-16T15:09:39Z</time></trkpt><trkpt lat="50.96706269772259" lon="4.839524508231217"><ele>52.0</ele><time>2026-04-16T15:09:41Z</time></trkpt><trkpt lat="50.96714701895042" lon="4.839616312956052"><ele>52.0</ele><time>2026-04-16T15:09:42Z</time></trkpt><trkpt lat="50.96722035598437" lon="4.839731574382173"><ele>52.0</ele><time>2026-04-16T15:09:43Z</time></trkpt><trkpt lat="50.96729367895517" lon="4.839863977014465"><ele>52.0</ele><time>2026-04-16T15:09:44Z</time></trkpt><trkpt lat="50.96733452515885" lon="4.8400517011681305"><ele>52.0</ele><time>2026-04-16T15:09:45Z</time></trkpt><trkpt lat="50.96737669707101" lon="4.840231323769914"><ele>52.0</ele><time>2026-04-16T15:09:46Z</time></trkpt><trkpt lat="50.96738449757812" lon="4.840438759367881"><ele>52.25</ele><time>2026-04-16T15:09:47Z</time></trkpt><trkpt lat="50.967387370584696" lon="4.840654798426398"><ele>52.5</ele><time>2026-04-16T15:09:48Z</time></trkpt><trkpt lat="50.967376235183565" lon="4.840878808126809"><ele>52.75</ele><time>2026-04-16T15:09:48.999Z</time></trkpt><trkpt lat="50.967378302244015" lon="4.841108415629068"><ele>53.0</ele><time>2026-04-16T15:09:49.999Z</time></trkpt><trkpt lat="50.967372206234444" lon="4.841293693185029"><ele>53.0</ele><time>2026-04-16T15:09:50.999Z</time></trkpt><trkpt lat="50.96736111886128" lon="4.84145595879782"><ele>53.0</ele><time>2026-04-16T15:09:51.999Z</time></trkpt><trkpt lat="50.96735673221001" lon="4.841602901759366"><ele>53.0</ele><time>2026-04-16T15:09:52.999Z</time></trkpt><trkpt lat="50.967351749902264" lon="4.8417179812026205"><ele>53.0</ele><time>2026-04-16T15:09:53.999Z</time></trkpt><trkpt lat="50.96733784764534" lon="4.841816001749095"><ele>53.0</ele><time>2026-04-16T15:09:54.999Z</time></trkpt><trkpt lat="50.967195856716884" lon="4.841831167389031"><ele>53.0</ele><time>2026-04-16T15:09:56.999Z</time></trkpt><trkpt lat="50.96710570604913" lon="4.84182326401143"><ele>53.0</ele><time>2026-04-16T15:09:57.999Z</time></trkpt><trkpt lat="50.967000968925525" lon="4.841823264010373"><ele>53.0</ele><time>2026-04-16T15:09:58.999Z</time></trkpt><trkpt lat="50.96689066791417" lon="4.841846966358672"><ele>53.0</ele><time>2026-04-16T15:09:59.999Z</time></trkpt><trkpt lat="50.96678444702715" lon="4.841847491910333"><ele>53.0</ele><time>2026-04-16T15:10:00.999Z</time></trkpt><trkpt lat="50.96670247360441" lon="4.8418250126109825"><ele>52.599999999999994</ele><time>2026-04-16T15:10:01.999Z</time></trkpt><trkpt lat="50.96663143517784" lon="4.841825393234976"><ele>52.199999999999996</ele><time>2026-04-16T15:10:02.999Z</time></trkpt><trkpt lat="50.966498606462594" lon="4.841832371045198"><ele>51.8</ele><time>2026-04-16T15:10:04.999Z</time></trkpt><trkpt lat="50.96640307017496" lon="4.841839110118669"><ele>51.4</ele><time>2026-04-16T15:10:05.999Z</time></trkpt><trkpt lat="50.966300659378305" lon="4.84186839500334"><ele>51.0</ele><time>2026-04-16T15:10:06.999Z</time></trkpt><trkpt lat="50.96622598548387" lon="4.841876833295314"><ele>51.0</ele><time>2026-04-16T15:10:07.999Z</time></trkpt><trkpt lat="50.9661561226448" lon="4.841877842010715"><ele>51.0</ele><time>2026-04-16T15:10:08.999Z</time></trkpt><trkpt lat="50.96606747027588" lon="4.841877709361646"><ele>51.0</ele><time>2026-04-16T15:10:09.999Z</time></trkpt><trkpt lat="50.96596359740886" lon="4.841874967043558"><ele>51.0</ele><time>2026-04-16T15:10:10.999Z</time></trkpt><trkpt lat="50.96585177645024" lon="4.841856933555841"><ele>51.0</ele><time>2026-04-16T15:10:11.999Z</time></trkpt><trkpt lat="50.96573730480184" lon="4.841827372194593"><ele>51.4</ele><time>2026-04-16T15:10:12.999Z</time></trkpt><trkpt lat="50.965620340475716" lon="4.841795340981586"><ele>51.8</ele><time>2026-04-16T15:10:13.999Z</time></trkpt><trkpt lat="50.96550547539754" lon="4.841759085155929"><ele>52.199999999999996</ele><time>2026-04-16T15:10:14.999Z</time></trkpt><trkpt lat="50.965411972203235" lon="4.841727727634151"><ele>52.599999999999994</ele><time>2026-04-16T15:10:15.999Z</time></trkpt><trkpt lat="50.96533451922548" lon="4.841695528869653"><ele>53.0</ele><time>2026-04-16T15:10:16.999Z</time></trkpt><trkpt lat="50.965232473076775" lon="4.84165153626167"><ele>53.00000000000001</ele><time>2026-04-16T15:10:18.999Z</time></trkpt><trkpt lat="50.965147678366" lon="4.841618559273568"><ele>53.0</ele><time>2026-04-16T15:10:31.999Z</time></trkpt><trkpt lat="50.96502817755154" lon="4.841565351416903"><ele>53.0</ele><time>2026-04-16T15:10:33.999Z</time></trkpt><trkpt lat="50.96495489074271" lon="4.84153156940973"><ele>53.0</ele><time>2026-04-16T15:10:34.999Z</time></trkpt><trkpt lat="50.96488500259035" lon="4.841499853412791"><ele>53.00000000000001</ele><time>2026-04-16T15:10:35.999Z</time></trkpt><trkpt lat="50.96481394243885" lon="4.841467271677986"><ele>53.0</ele><time>2026-04-16T15:10:36.999Z</time></trkpt><trkpt lat="50.96474283878027" lon="4.8414582377792765"><ele>52.833333333333336</ele><time>2026-04-16T15:10:37.999Z</time></trkpt><trkpt lat="50.96468987836903" lon="4.841517753600427"><ele>52.66666666666667</ele><time>2026-04-16T15:10:38.999Z</time></trkpt><trkpt lat="50.96465704418614" lon="4.841632112797534"><ele>52.5</ele><time>2026-04-16T15:10:39.999Z</time></trkpt><trkpt lat="50.964660733302594" lon="4.841756183162209"><ele>52.33333333333333</ele><time>2026-04-16T15:10:40.999Z</time></trkpt><trkpt lat="50.96463182532306" lon="4.841858010514885"><ele>52.166666666666664</ele><time>2026-04-16T15:10:41.999Z</time></trkpt><trkpt lat="50.964622178151195" lon="4.841988884326998"><ele>52.0</ele><time>2026-04-16T15:10:42.999Z</time></trkpt><trkpt lat="50.96459805313509" lon="4.842156218418389"><ele>52.0</ele><time>2026-04-16T15:10:43.998Z</time></trkpt><trkpt lat="50.96457413061976" lon="4.8423317818389675"><ele>52.0</ele><time>2026-04-16T15:10:44.998Z</time></trkpt><trkpt lat="50.96455773656327" lon="4.842531222972725"><ele>52.0</ele><time>2026-04-16T15:10:45.998Z</time></trkpt><trkpt lat="50.964542263386136" lon="4.8427298950940765"><ele>52.0</ele><time>2026-04-16T15:10:46.998Z</time></trkpt><trkpt lat="50.964527505883055" lon="4.842949256140502"><ele>51.75</ele><time>2026-04-16T15:10:47.998Z</time></trkpt><trkpt lat="50.96450631649657" lon="4.843174779357716"><ele>51.5</ele><time>2026-04-16T15:10:48.998Z</time></trkpt><trkpt lat="50.964483103483474" lon="4.843399973915309"><ele>51.25</ele><time>2026-04-16T15:10:49.998Z</time></trkpt><trkpt lat="50.964444138737754" lon="4.843624596475023"><ele>51.0</ele><time>2026-04-16T15:10:50.998Z</time></trkpt><trkpt lat="50.96444364950751" lon="4.843826417693134"><ele>50.75</ele><time>2026-04-16T15:10:51.998Z</time></trkpt><trkpt lat="50.96443498575086" lon="4.844028588485918"><ele>50.5</ele><time>2026-04-16T15:10:52.998Z</time></trkpt><trkpt lat="50.964447010558615" lon="4.844239456718397"><ele>50.25</ele><time>2026-04-16T15:10:53.998Z</time></trkpt><trkpt lat="50.96444955496062" lon="4.844424184724468"><ele>50.0</ele><time>2026-04-16T15:10:54.998Z</time></trkpt><trkpt lat="50.96446168818759" lon="4.8445825690134505"><ele>50.0</ele><time>2026-04-16T15:10:55.998Z</time></trkpt><trkpt lat="50.96447595599191" lon="4.844721429465592"><ele>50.0</ele><time>2026-04-16T15:10:56.998Z</time></trkpt><trkpt lat="50.96449476181813" lon="4.844840089374708"><ele>50.0</ele><time>2026-04-16T15:10:57.998Z</time></trkpt><trkpt lat="50.9645113072999" lon="4.844984194113224"><ele>50.0</ele><time>2026-04-16T15:10:59.998Z</time></trkpt><trkpt lat="50.96436655086021" lon="4.84510158784482"><ele>50.0</ele><time>2026-04-16T15:11:00.998Z</time></trkpt><trkpt lat="50.964298978887534" lon="4.8451764179568615"><ele>50.2</ele><time>2026-04-16T15:11:01.998Z</time></trkpt><trkpt lat="50.964244019027284" lon="4.845307663084442"><ele>50.4</ele><time>2026-04-16T15:11:02.998Z</time></trkpt><trkpt lat="50.96422235767807" lon="4.845460125421836"><ele>50.599999999999994</ele><time>2026-04-16T15:11:03.998Z</time></trkpt><trkpt lat="50.964218698950816" lon="4.8456226728974565"><ele>50.8</ele><time>2026-04-16T15:11:04.998Z</time></trkpt><trkpt lat="50.964211840468266" lon="4.845792171332893"><ele>51.0</ele><time>2026-04-16T15:11:05.998Z</time></trkpt><trkpt lat="50.96419398438386" lon="4.845968984491766"><ele>50.599999999999994</ele><time>2026-04-16T15:11:06.998Z</time></trkpt><trkpt lat="50.96418091638531" lon="4.8461453070066325"><ele>50.2</ele><time>2026-04-16T15:11:07.998Z</time></trkpt><trkpt lat="50.96417959024139" lon="4.846331912079153"><ele>49.8</ele><time>2026-04-16T15:11:08.998Z</time></trkpt><trkpt lat="50.96416460157774" lon="4.846499795394525"><ele>49.400000000000006</ele><time>2026-04-16T15:11:09.998Z</time></trkpt><trkpt lat="50.96414769571447" lon="4.846662839083008"><ele>49.0</ele><time>2026-04-16T15:11:10.998Z</time></trkpt><trkpt lat="50.964141330980034" lon="4.846806922105354"><ele>49.0</ele><time>2026-04-16T15:11:11.998Z</time></trkpt><trkpt lat="50.96413161001854" lon="4.846963215668754"><ele>49.0</ele><time>2026-04-16T15:11:12.998Z</time></trkpt><trkpt lat="50.964107452604466" lon="4.84715195552266"><ele>49.0</ele><time>2026-04-16T15:11:13.998Z</time></trkpt><trkpt lat="50.964076110485834" lon="4.847345836369497"><ele>49.0</ele><time>2026-04-16T15:11:14.998Z</time></trkpt><trkpt lat="50.96404740901296" lon="4.847548974266132"><ele>48.25</ele><time>2026-04-16T15:11:15.998Z</time></trkpt><trkpt lat="50.96402446005335" lon="4.8477487979874905"><ele>47.5</ele><time>2026-04-16T15:11:16.998Z</time></trkpt><trkpt lat="50.963997571341935" lon="4.847989630609471"><ele>46.75</ele><time>2026-04-16T15:11:17.998Z</time></trkpt><trkpt lat="50.963975211991496" lon="4.8482148834871195"><ele>46.0</ele><time>2026-04-16T15:11:18.998Z</time></trkpt><trkpt lat="50.9639472292834" lon="4.84846935134143"><ele>45.66666666666667</ele><time>2026-04-16T15:11:19.998Z</time></trkpt><trkpt lat="50.96391874994774" lon="4.8487251319698395"><ele>45.333333333333336</ele><time>2026-04-16T15:11:20.998Z</time></trkpt><trkpt lat="50.96389166718392" lon="4.84897521837357"><ele>45.0</ele><time>2026-04-16T15:11:21.998Z</time></trkpt><trkpt lat="50.96386516724266" lon="4.849227514237331"><ele>44.666666666666664</ele><time>2026-04-16T15:11:22.998Z</time></trkpt><trkpt lat="50.96383741601123" lon="4.849469739122154"><ele>44.33333333333333</ele><time>2026-04-16T15:11:23.998Z</time></trkpt><trkpt lat="50.96381093684787" lon="4.849731969995717"><ele>44.0</ele><time>2026-04-16T15:11:24.998Z</time></trkpt><trkpt lat="50.963785268209286" lon="4.849988858469673"><ele>44.0</ele><time>2026-04-16T15:11:26Z</time></trkpt><trkpt lat="50.96375680164287" lon="4.850245223644331"><ele>44.0</ele><time>2026-04-16T15:11:27Z</time></trkpt><trkpt lat="50.96372102705716" lon="4.850515110571531"><ele>44.0</ele><time>2026-04-16T15:11:28Z</time></trkpt><trkpt lat="50.9637011206851" lon="4.850776191904707"><ele>44.33333333333333</ele><time>2026-04-16T15:11:29Z</time></trkpt><trkpt lat="50.96366850636523" lon="4.851063154434832"><ele>44.666666666666664</ele><time>2026-04-16T15:11:30Z</time></trkpt><trkpt lat="50.96363352513608" lon="4.851348481303695"><ele>45.0</ele><time>2026-04-16T15:11:31Z</time></trkpt><trkpt lat="50.96359725811487" lon="4.851632149292255"><ele>44.666666666666664</ele><time>2026-04-16T15:11:32Z</time></trkpt><trkpt lat="50.96356951798099" lon="4.851908452189022"><ele>44.33333333333333</ele><time>2026-04-16T15:11:33Z</time></trkpt><trkpt lat="50.96354853663808" lon="4.852163016350684"><ele>44.0</ele><time>2026-04-16T15:11:34Z</time></trkpt><trkpt lat="50.96351881351203" lon="4.852440815875173"><ele>43.33333333333333</ele><time>2026-04-16T15:11:35Z</time></trkpt><trkpt lat="50.96349492413074" lon="4.852712496133589"><ele>42.666666666666664</ele><time>2026-04-16T15:11:36Z</time></trkpt><trkpt lat="50.9634781615335" lon="4.8529512801993455"><ele>42.0</ele><time>2026-04-16T15:11:37Z</time></trkpt><trkpt lat="50.963459640240195" lon="4.853194684672657"><ele>42.0</ele><time>2026-04-16T15:11:38Z</time></trkpt><trkpt lat="50.96343635941473" lon="4.853426684901938"><ele>42.0</ele><time>2026-04-16T15:11:39Z</time></trkpt><trkpt lat="50.96340012417099" lon="4.853671424216151"><ele>42.0</ele><time>2026-04-16T15:11:40Z</time></trkpt><trkpt lat="50.96338249951135" lon="4.853903385606031"><ele>41.75</ele><time>2026-04-16T15:11:41Z</time></trkpt><trkpt lat="50.96337662013735" lon="4.854097748835136"><ele>41.5</ele><time>2026-04-16T15:11:42Z</time></trkpt><trkpt lat="50.96337116600876" lon="4.854299293155163"><ele>41.25</ele><time>2026-04-16T15:11:43Z</time></trkpt><trkpt lat="50.963352922253385" lon="4.854474882449429"><ele>41.0</ele><time>2026-04-16T15:11:44Z</time></trkpt><trkpt lat="50.96333674278334" lon="4.854661692214139"><ele>41.0</ele><time>2026-04-16T15:11:45Z</time></trkpt><trkpt lat="50.963328616385795" lon="4.8548610088346855"><ele>41.0</ele><time>2026-04-16T15:11:46Z</time></trkpt><trkpt lat="50.96330030972225" lon="4.855071768246637"><ele>41.0</ele><time>2026-04-16T15:11:47Z</time></trkpt><trkpt lat="50.96327672143276" lon="4.8552874553846515"><ele>41.0</ele><time>2026-04-16T15:11:48Z</time></trkpt><trkpt lat="50.96326250087057" lon="4.855500805213987"><ele>41.0</ele><time>2026-04-16T15:11:49Z</time></trkpt><trkpt lat="50.96325110133384" lon="4.855688741720693"><ele>41.0</ele><time>2026-04-16T15:11:50Z</time></trkpt><trkpt lat="50.96324093709825" lon="4.8558843589733724"><ele>41.0</ele><time>2026-04-16T15:11:51Z</time></trkpt><trkpt lat="50.96322445603221" lon="4.856089556378438"><ele>41.0</ele><time>2026-04-16T15:11:52Z</time></trkpt><trkpt lat="50.96320435438232" lon="4.856285366639126"><ele>41.0</ele><time>2026-04-16T15:11:53Z</time></trkpt><trkpt lat="50.96318293954015" lon="4.856486740899318"><ele>41.0</ele><time>2026-04-16T15:11:54Z</time></trkpt><trkpt lat="50.963169043641535" lon="4.856677027408695"><ele>41.0</ele><time>2026-04-16T15:11:55Z</time></trkpt><trkpt lat="50.96316937919328" lon="4.8568583750012335"><ele>41.0</ele><time>2026-04-16T15:11:56Z</time></trkpt><trkpt lat="50.9631539138382" lon="4.85706406235698"><ele>41.0</ele><time>2026-04-16T15:11:57Z</time></trkpt><trkpt lat="50.96312981188434" lon="4.857299626821599"><ele>41.0</ele><time>2026-04-16T15:11:58Z</time></trkpt><trkpt lat="50.963101459120885" lon="4.857545598171822"><ele>41.0</ele><time>2026-04-16T15:11:59Z</time></trkpt><trkpt lat="50.96307270618569" lon="4.857789769007615"><ele>41.33333333333333</ele><time>2026-04-16T15:12:00Z</time></trkpt><trkpt lat="50.96304327400205" lon="4.858058434117927"><ele>41.666666666666664</ele><time>2026-04-16T15:12:00.999Z</time></trkpt><trkpt lat="50.96300928618992" lon="4.858345582235764"><ele>42.0</ele><time>2026-04-16T15:12:01.999Z</time></trkpt><trkpt lat="50.96298225165883" lon="4.858634404657765"><ele>42.333333333333336</ele><time>2026-04-16T15:12:02.999Z</time></trkpt><trkpt lat="50.9629457029729" lon="4.858933823530492"><ele>42.66666666666667</ele><time>2026-04-16T15:12:03.999Z</time></trkpt><trkpt lat="50.962912956012396" lon="4.859230912560682"><ele>43.0</ele><time>2026-04-16T15:12:04.999Z</time></trkpt><trkpt lat="50.96287021997158" lon="4.859560583884294"><ele>43.66666666666667</ele><time>2026-04-16T15:12:05.999Z</time></trkpt><trkpt lat="50.96283049606247" lon="4.859885889289595"><ele>44.333333333333336</ele><time>2026-04-16T15:12:06.999Z</time></trkpt><trkpt lat="50.962786149090526" lon="4.860211494796415"><ele>45.0</ele><time>2026-04-16T15:12:07.999Z</time></trkpt><trkpt lat="50.96273901311807" lon="4.860549577441552"><ele>45.333333333333336</ele><time>2026-04-16T15:12:08.999Z</time></trkpt><trkpt lat="50.96269405457782" lon="4.860898707298937"><ele>45.66666666666667</ele><time>2026-04-16T15:12:09.999Z</time></trkpt><trkpt lat="50.96265450119044" lon="4.861242709615926"><ele>46.0</ele><time>2026-04-16T15:12:10.999Z</time></trkpt><trkpt lat="50.962625075829855" lon="4.861580857007512"><ele>46.0</ele><time>2026-04-16T15:12:11.999Z</time></trkpt><trkpt lat="50.962585241885414" lon="4.861946223451677"><ele>46.0</ele><time>2026-04-16T15:12:12.999Z</time></trkpt><trkpt lat="50.96255610239799" lon="4.862299287679695"><ele>46.5</ele><time>2026-04-16T15:12:13.999Z</time></trkpt><trkpt lat="50.96251874798213" lon="4.862661168968459"><ele>47.0</ele><time>2026-04-16T15:12:14.999Z</time></trkpt><trkpt lat="50.962488392802825" lon="4.863021187544426"><ele>47.0</ele><time>2026-04-16T15:12:15.999Z</time></trkpt><trkpt lat="50.96246505045279" lon="4.863378921580773"><ele>47.0</ele><time>2026-04-16T15:12:16.999Z</time></trkpt><trkpt lat="50.96243548928269" lon="4.863745686512873"><ele>47.0</ele><time>2026-04-16T15:12:17.999Z</time></trkpt><trkpt lat="50.96240203216742" lon="4.864114653313608"><ele>47.0</ele><time>2026-04-16T15:12:18.999Z</time></trkpt><trkpt lat="50.96235899355275" lon="4.864507815695474"><ele>48.5</ele><time>2026-04-16T15:12:19.999Z</time></trkpt><trkpt lat="50.96232833646245" lon="4.8648892478996375"><ele>50.0</ele><time>2026-04-16T15:12:20.999Z</time></trkpt><trkpt lat="50.96230067314049" lon="4.865271506563341"><ele>50.0</ele><time>2026-04-16T15:12:21.999Z</time></trkpt><trkpt lat="50.962263920464" lon="4.865664763360414"><ele>50.0</ele><time>2026-04-16T15:12:22.999Z</time></trkpt><trkpt lat="50.962238715180966" lon="4.866043361058745"><ele>49.5</ele><time>2026-04-16T15:12:23.999Z</time></trkpt><trkpt lat="50.96221058784089" lon="4.866424758872997"><ele>49.0</ele><time>2026-04-16T15:12:24.999Z</time></trkpt><trkpt lat="50.962178061691276" lon="4.86681374459418"><ele>50.0</ele><time>2026-04-16T15:12:25.999Z</time></trkpt><trkpt lat="50.96215713889614" lon="4.867181324446987"><ele>51.0</ele><time>2026-04-16T15:12:26.999Z</time></trkpt><trkpt lat="50.9621297077388" lon="4.8675426514604085"><ele>51.33333333333333</ele><time>2026-04-16T15:12:27.999Z</time></trkpt><trkpt lat="50.962103957523" lon="4.867869102617361"><ele>51.666666666666664</ele><time>2026-04-16T15:12:28.999Z</time></trkpt><trkpt lat="50.96208571537346" lon="4.868194127831958"><ele>52.0</ele><time>2026-04-16T15:12:29.999Z</time></trkpt><trkpt lat="50.9620673743808" lon="4.868475810924046"><ele>52.5</ele><time>2026-04-16T15:12:30.999Z</time></trkpt><trkpt lat="50.96204253624039" lon="4.868754224253988"><ele>53.0</ele><time>2026-04-16T15:12:31.999Z</time></trkpt><trkpt lat="50.962030001939986" lon="4.868979755840125"><ele>53.5</ele><time>2026-04-16T15:12:32.999Z</time></trkpt><trkpt lat="50.96202499785003" lon="4.869180260938325"><ele>54.0</ele><time>2026-04-16T15:12:33.999Z</time></trkpt><trkpt lat="50.96204383686869" lon="4.869338505625045"><ele>54.333333333333336</ele><time>2026-04-16T15:12:34.999Z</time></trkpt><trkpt lat="50.96208884523131" lon="4.869461447711549"><ele>54.66666666666667</ele><time>2026-04-16T15:12:35.999Z</time></trkpt><trkpt lat="50.96213965494996" lon="4.86955223203255"><ele>55.0</ele><time>2026-04-16T15:12:36.999Z</time></trkpt><trkpt lat="50.96219254730141" lon="4.869650862995095"><ele>55.333333333333336</ele><time>2026-04-16T15:12:38.999Z</time></trkpt><trkpt lat="50.96229471383492" lon="4.869656581310696"><ele>55.66666666666667</ele><time>2026-04-16T15:12:40.999Z</time></trkpt><trkpt lat="50.96238831774577" lon="4.869619297469455"><ele>56.0</ele><time>2026-04-16T15:12:41.999Z</time></trkpt><trkpt lat="50.96248998423042" lon="4.869582188056013"><ele>56.25</ele><time>2026-04-16T15:12:42.999Z</time></trkpt><trkpt lat="50.96260293423176" lon="4.8695480822030035"><ele>56.5</ele><time>2026-04-16T15:12:43.999Z</time></trkpt><trkpt lat="50.962730110816075" lon="4.869524180802442"><ele>56.75</ele><time>2026-04-16T15:12:44.999Z</time></trkpt><trkpt lat="50.9628690387077" lon="4.869486714134483"><ele>57.0</ele><time>2026-04-16T15:12:45.999Z</time></trkpt><trkpt lat="50.96300763797422" lon="4.869436747571573"><ele>57.0</ele><time>2026-04-16T15:12:46.999Z</time></trkpt><trkpt lat="50.963155414228304" lon="4.869380718006835"><ele>57.0</ele><time>2026-04-16T15:12:47.999Z</time></trkpt><trkpt lat="50.96331420553753" lon="4.869324065055503"><ele>57.0</ele><time>2026-04-16T15:12:48.999Z</time></trkpt><trkpt lat="50.96348140479779" lon="4.8692624531806095"><ele>57.33333333333333</ele><time>2026-04-16T15:12:49.999Z</time></trkpt><trkpt lat="50.963653985731376" lon="4.869201325170017"><ele>57.666666666666664</ele><time>2026-04-16T15:12:50.999Z</time></trkpt><trkpt lat="50.96383046274517" lon="4.869139229627806"><ele>58.0</ele><time>2026-04-16T15:12:51.999Z</time></trkpt><trkpt lat="50.963985424793044" lon="4.869083990243771"><ele>58.0</ele><time>2026-04-16T15:12:52.999Z</time></trkpt><trkpt lat="50.964120099301475" lon="4.8690319445430115"><ele>58.0</ele><time>2026-04-16T15:12:53.998Z</time></trkpt><trkpt lat="50.9642303525647" lon="4.868989538273614"><ele>58.0</ele><time>2026-04-16T15:12:54.998Z</time></trkpt><trkpt lat="50.96431834006425" lon="4.868966141544716"><ele>58.0</ele><time>2026-04-16T15:12:55.998Z</time></trkpt><trkpt lat="50.96439722598776" lon="4.8689784080804515"><ele>58.0</ele><time>2026-04-16T15:12:56.998Z</time></trkpt><trkpt lat="50.96444924036314" lon="4.869084131645179"><ele>58.0</ele><time>2026-04-16T15:12:57.998Z</time></trkpt><trkpt lat="50.96447935487166" lon="4.869239968802965"><ele>58.0</ele><time>2026-04-16T15:12:58.998Z</time></trkpt><trkpt lat="50.96447311227109" lon="4.869426473029399"><ele>58.0</ele><time>2026-04-16T15:12:59.998Z</time></trkpt><trkpt lat="50.964459267475284" lon="4.869622101517425"><ele>58.0</ele><time>2026-04-16T15:13:00.998Z</time></trkpt><trkpt lat="50.9644598125695" lon="4.869816061468291"><ele>58.25</ele><time>2026-04-16T15:13:01.998Z</time></trkpt><trkpt lat="50.964468368033174" lon="4.8700204244284375"><ele>58.5</ele><time>2026-04-16T15:13:02.998Z</time></trkpt><trkpt lat="50.96447560099485" lon="4.870242229386116"><ele>58.75</ele><time>2026-04-16T15:13:03.998Z</time></trkpt><trkpt lat="50.96448188671203" lon="4.870469377648684"><ele>59.0</ele><time>2026-04-16T15:13:04.998Z</time></trkpt><trkpt lat="50.96448695682917" lon="4.870706697076273"><ele>60.0</ele><time>2026-04-16T15:13:05.998Z</time></trkpt><trkpt lat="50.96449059476695" lon="4.870944949883209"><ele>61.0</ele><time>2026-04-16T15:13:06.998Z</time></trkpt><trkpt lat="50.96449051702051" lon="4.871188761490808"><ele>62.0</ele><time>2026-04-16T15:13:07.998Z</time></trkpt><trkpt lat="50.96450254964633" lon="4.871440745032071"><ele>62.0</ele><time>2026-04-16T15:13:08.998Z</time></trkpt><trkpt lat="50.96451987623692" lon="4.871699914250534"><ele>62.0</ele><time>2026-04-16T15:13:09.998Z</time></trkpt><trkpt lat="50.964546859176785" lon="4.871963299614754"><ele>62.0</ele><time>2026-04-16T15:13:10.998Z</time></trkpt><trkpt lat="50.964584003495766" lon="4.872230780470702"><ele>62.333333333333336</ele><time>2026-04-16T15:13:11.998Z</time></trkpt><trkpt lat="50.964632785508144" lon="4.872491208506744"><ele>62.66666666666667</ele><time>2026-04-16T15:13:12.998Z</time></trkpt><trkpt lat="50.96469839317118" lon="4.872759261679887"><ele>63.0</ele><time>2026-04-16T15:13:13.998Z</time></trkpt><trkpt lat="50.96477987505392" lon="4.873028619453643"><ele>63.66666666666667</ele><time>2026-04-16T15:13:14.998Z</time></trkpt><trkpt lat="50.964863813939736" lon="4.873282939158929"><ele>64.33333333333334</ele><time>2026-04-16T15:13:15.998Z</time></trkpt><trkpt lat="50.96496394891857" lon="4.873553450833499"><ele>65.0</ele><time>2026-04-16T15:13:16.998Z</time></trkpt><trkpt lat="50.96506008986449" lon="4.873796637723253"><ele>65.66666666666667</ele><time>2026-04-16T15:13:17.998Z</time></trkpt><trkpt lat="50.96516766331833" lon="4.87403760045009"><ele>66.33333333333333</ele><time>2026-04-16T15:13:18.998Z</time></trkpt><trkpt lat="50.96527969884206" lon="4.874286928368087"><ele>67.0</ele><time>2026-04-16T15:13:19.998Z</time></trkpt><trkpt lat="50.96538166257036" lon="4.8745304876988"><ele>65.66666666666666</ele><time>2026-04-16T15:13:20.998Z</time></trkpt><trkpt lat="50.96548826718634" lon="4.874786153658176"><ele>64.33333333333333</ele><time>2026-04-16T15:13:21.998Z</time></trkpt><trkpt lat="50.965595274593205" lon="4.875041596538"><ele>63.0</ele><time>2026-04-16T15:13:22.998Z</time></trkpt><trkpt lat="50.96570527026852" lon="4.875301405631915"><ele>62.0</ele><time>2026-04-16T15:13:23.998Z</time></trkpt><trkpt lat="50.965819811855745" lon="4.875569342475672"><ele>61.0</ele><time>2026-04-16T15:13:24.998Z</time></trkpt><trkpt lat="50.965920101317124" lon="4.8758106855518015"><ele>60.0</ele><time>2026-04-16T15:13:25.998Z</time></trkpt><trkpt lat="50.96602025418142" lon="4.87605231959184"><ele>59.33333333333333</ele><time>2026-04-16T15:13:26.998Z</time></trkpt><trkpt lat="50.96611490075891" lon="4.876298771487284"><ele>58.666666666666664</ele><time>2026-04-16T15:13:27.998Z</time></trkpt><trkpt lat="50.96620291733893" lon="4.87653983659017"><ele>58.0</ele><time>2026-04-16T15:13:28.998Z</time></trkpt><trkpt lat="50.966282783420475" lon="4.876775575894121"><ele>58.0</ele><time>2026-04-16T15:13:29.998Z</time></trkpt><trkpt lat="50.96633651584218" lon="4.877005997695182"><ele>58.0</ele><time>2026-04-16T15:13:30.998Z</time></trkpt><trkpt lat="50.9663980301676" lon="4.8772041245099444"><ele>58.0</ele><time>2026-04-16T15:13:32Z</time></trkpt><trkpt lat="50.96645520968261" lon="4.8773818993502775"><ele>58.0</ele><time>2026-04-16T15:13:33Z</time></trkpt><trkpt lat="50.96650676988229" lon="4.877536224825987"><ele>57.599999999999994</ele><time>2026-04-16T15:13:34Z</time></trkpt><trkpt lat="50.96656124744735" lon="4.877653845147272"><ele>57.199999999999996</ele><time>2026-04-16T15:13:35Z</time></trkpt><trkpt lat="50.96658153778441" lon="4.87775291959586"><ele>56.8</ele><time>2026-04-16T15:13:36Z</time></trkpt><trkpt lat="50.966485031957426" lon="4.87790793780623"><ele>56.4</ele><time>2026-04-16T15:13:38Z</time></trkpt><trkpt lat="50.9663801379972" lon="4.877929536848235"><ele>56.0</ele><time>2026-04-16T15:13:39Z</time></trkpt><trkpt lat="50.96626181520171" lon="4.8779902922818374"><ele>56.0</ele><time>2026-04-16T15:13:40Z</time></trkpt><trkpt lat="50.96612984736893" lon="4.878009678760908"><ele>56.0</ele><time>2026-04-16T15:13:41Z</time></trkpt><trkpt lat="50.96598849009264" lon="4.878067225752002"><ele>56.0</ele><time>2026-04-16T15:13:42Z</time></trkpt><trkpt lat="50.965842777182935" lon="4.878126931048132"><ele>56.0</ele><time>2026-04-16T15:13:43Z</time></trkpt><trkpt lat="50.96568557265997" lon="4.878213047752908"><ele>55.0</ele><time>2026-04-16T15:13:44Z</time></trkpt><trkpt lat="50.965531209536174" lon="4.878267091515026"><ele>54.0</ele><time>2026-04-16T15:13:45Z</time></trkpt><trkpt lat="50.96536632480529" lon="4.878298135925642"><ele>53.0</ele><time>2026-04-16T15:13:46Z</time></trkpt><trkpt lat="50.965199449984304" lon="4.878383173460446"><ele>52.66666666666667</ele><time>2026-04-16T15:13:47Z</time></trkpt><trkpt lat="50.965030562627724" lon="4.878440609629338"><ele>52.33333333333333</ele><time>2026-04-16T15:13:48Z</time></trkpt><trkpt lat="50.96485781201088" lon="4.878503422352188"><ele>52.0</ele><time>2026-04-16T15:13:49Z</time></trkpt><trkpt lat="50.96467336045964" lon="4.87854344047144"><ele>52.0</ele><time>2026-04-16T15:13:50Z</time></trkpt><trkpt lat="50.9644954746709" lon="4.878605021033979"><ele>52.0</ele><time>2026-04-16T15:13:51Z</time></trkpt><trkpt lat="50.96431676307946" lon="4.878671241789119"><ele>52.0</ele><time>2026-04-16T15:13:52Z</time></trkpt><trkpt lat="50.96413805696691" lon="4.878763114608905"><ele>51.666666666666664</ele><time>2026-04-16T15:13:53Z</time></trkpt><trkpt lat="50.963966123020484" lon="4.8788256103625045"><ele>51.33333333333333</ele><time>2026-04-16T15:13:54Z</time></trkpt><trkpt lat="50.96379705317302" lon="4.878883506654567"><ele>51.0</ele><time>2026-04-16T15:13:55Z</time></trkpt><trkpt lat="50.96363579770191" lon="4.878934051512136"><ele>51.0</ele><time>2026-04-16T15:13:56Z</time></trkpt><trkpt lat="50.963476183832555" lon="4.878996106940375"><ele>51.0</ele><time>2026-04-16T15:13:57Z</time></trkpt><trkpt lat="50.963311733504156" lon="4.879054211956348"><ele>51.0</ele><time>2026-04-16T15:13:58Z</time></trkpt><trkpt lat="50.96314563874117" lon="4.879111876921494"><ele>51.25</ele><time>2026-04-16T15:13:59Z</time></trkpt><trkpt lat="50.96298587729568" lon="4.879170658507584"><ele>51.5</ele><time>2026-04-16T15:14:00Z</time></trkpt><trkpt lat="50.9628420435611" lon="4.879226369964171"><ele>51.75</ele><time>2026-04-16T15:14:01Z</time></trkpt><trkpt lat="50.96271061914508" lon="4.879276445365178"><ele>52.0</ele><time>2026-04-16T15:14:02Z</time></trkpt><trkpt lat="50.96256964309261" lon="4.879328760649705"><ele>52.0</ele><time>2026-04-16T15:14:03Z</time></trkpt><trkpt lat="50.96241794736334" lon="4.879387425038041"><ele>52.0</ele><time>2026-04-16T15:14:04Z</time></trkpt><trkpt lat="50.96225871859314" lon="4.879429350638544"><ele>52.0</ele><time>2026-04-16T15:14:05Z</time></trkpt><trkpt lat="50.96211195271511" lon="4.879485396547597"><ele>52.0</ele><time>2026-04-16T15:14:06Z</time></trkpt><trkpt lat="50.9619622181998" lon="4.879542495556408"><ele>52.0</ele><time>2026-04-16T15:14:07Z</time></trkpt><trkpt lat="50.96182182029002" lon="4.879596034186875"><ele>52.0</ele><time>2026-04-16T15:14:08Z</time></trkpt><trkpt lat="50.96170582646053" lon="4.879635683560559"><ele>52.0</ele><time>2026-04-16T15:14:08.999Z</time></trkpt><trkpt lat="50.96159442613429" lon="4.879672707624358"><ele>51.83333333333333</ele><time>2026-04-16T15:14:09.999Z</time></trkpt><trkpt lat="50.96148999426138" lon="4.879707171594283"><ele>51.666666666666664</ele><time>2026-04-16T15:14:10.999Z</time></trkpt><trkpt lat="50.961405866231054" lon="4.879734935014422"><ele>51.5</ele><time>2026-04-16T15:14:11.999Z</time></trkpt><trkpt lat="50.96133988746197" lon="4.879756708916744"><ele>51.33333333333333</ele><time>2026-04-16T15:14:12.999Z</time></trkpt><trkpt lat="50.96126186280493" lon="4.879793436223984"><ele>51.166666666666664</ele><time>2026-04-16T15:14:13.999Z</time></trkpt><trkpt lat="50.96121396791568" lon="4.879945506697487"><ele>51.0</ele><time>2026-04-16T15:14:14.999Z</time></trkpt><trkpt lat="50.961189757245535" lon="4.880080202895856"><ele>50.599999999999994</ele><time>2026-04-16T15:14:15.999Z</time></trkpt><trkpt lat="50.96118978093911" lon="4.8802337970193905"><ele>50.2</ele><time>2026-04-16T15:14:16.999Z</time></trkpt><trkpt lat="50.9611965687818" lon="4.880359944233262"><ele>49.8</ele><time>2026-04-16T15:14:17.999Z</time></trkpt><trkpt lat="50.9611937659823" lon="4.8805122462198"><ele>49.400000000000006</ele><time>2026-04-16T15:14:18.999Z</time></trkpt><trkpt lat="50.961179740916464" lon="4.8806853638951235"><ele>49.0</ele><time>2026-04-16T15:14:19.999Z</time></trkpt><trkpt lat="50.96115990293839" lon="4.880887920418832"><ele>49.666666666666664</ele><time>2026-04-16T15:14:20.999Z</time></trkpt><trkpt lat="50.961146284173566" lon="4.881102217606729"><ele>50.33333333333333</ele><time>2026-04-16T15:14:21.999Z</time></trkpt><trkpt lat="50.96112204287442" lon="4.8813514449971915"><ele>51.0</ele><time>2026-04-16T15:14:22.999Z</time></trkpt><trkpt lat="50.96109854430686" lon="4.881606630365428"><ele>50.66666666666667</ele><time>2026-04-16T15:14:23.999Z</time></trkpt><trkpt lat="50.96108110252492" lon="4.8818654616994515"><ele>50.333333333333336</ele><time>2026-04-16T15:14:24.999Z</time></trkpt><trkpt lat="50.961065563069035" lon="4.882140105590204"><ele>50.0</ele><time>2026-04-16T15:14:25.999Z</time></trkpt><trkpt lat="50.96104713577955" lon="4.882425082272517"><ele>51.66666666666667</ele><time>2026-04-16T15:14:26.999Z</time></trkpt><trkpt lat="50.961023859676445" lon="4.882725665519695"><ele>53.33333333333333</ele><time>2026-04-16T15:14:27.999Z</time></trkpt><trkpt lat="50.96100538459099" lon="4.8830248813970245"><ele>55.0</ele><time>2026-04-16T15:14:28.999Z</time></trkpt><trkpt lat="50.960981949116714" lon="4.883348586666017"><ele>56.666666666666664</ele><time>2026-04-16T15:14:29.999Z</time></trkpt><trkpt lat="50.96096312287135" lon="4.883668466678636"><ele>58.33333333333333</ele><time>2026-04-16T15:14:30.999Z</time></trkpt><trkpt lat="50.960930155078145" lon="4.883973380348498"><ele>60.0</ele><time>2026-04-16T15:14:31.999Z</time></trkpt><trkpt lat="50.9609183743083" lon="4.884321506410725"><ele>60.66666666666667</ele><time>2026-04-16T15:14:32.999Z</time></trkpt><trkpt lat="50.96089521446692" lon="4.8846616836383365"><ele>61.333333333333336</ele><time>2026-04-16T15:14:33.999Z</time></trkpt><trkpt lat="50.96087251679467" lon="4.885023588981573"><ele>62.0</ele><time>2026-04-16T15:14:34.999Z</time></trkpt><trkpt lat="50.96085209466092" lon="4.885398481770496"><ele>57.0</ele><time>2026-04-16T15:14:35.999Z</time></trkpt><trkpt lat="50.96082866400751" lon="4.885812525025553"><ele>52.0</ele><time>2026-04-16T15:14:36.999Z</time></trkpt><trkpt lat="50.96080004870444" lon="4.886242526855484"><ele>51.0</ele><time>2026-04-16T15:14:37.999Z</time></trkpt><trkpt lat="50.96076596128947" lon="4.8867102356589"><ele>50.0</ele><time>2026-04-16T15:14:38.999Z</time></trkpt><trkpt lat="50.96073527097837" lon="4.887193699798454"><ele>48.5</ele><time>2026-04-16T15:14:39.999Z</time></trkpt><trkpt lat="50.96070581535261" lon="4.887677730086698"><ele>47.0</ele><time>2026-04-16T15:14:40.999Z</time></trkpt><trkpt lat="50.96067799436973" lon="4.8881776263793935"><ele>47.0</ele><time>2026-04-16T15:14:41.999Z</time></trkpt><trkpt lat="50.96065405508138" lon="4.888676579157797"><ele>47.0</ele><time>2026-04-16T15:14:42.999Z</time></trkpt><trkpt lat="50.96062178973358" lon="4.889161007722581"><ele>46.5</ele><time>2026-04-16T15:14:43.999Z</time></trkpt><trkpt lat="50.960593313970215" lon="4.889620056381175"><ele>46.0</ele><time>2026-04-16T15:14:44.999Z</time></trkpt><trkpt lat="50.96056498813765" lon="4.890084628904865"><ele>44.0</ele><time>2026-04-16T15:14:45.999Z</time></trkpt><trkpt lat="50.96054576086771" lon="4.89052081683735"><ele>42.0</ele><time>2026-04-16T15:14:46.999Z</time></trkpt><trkpt lat="50.9605324834357" lon="4.890989412108489"><ele>38.5</ele><time>2026-04-16T15:14:47.999Z</time></trkpt><trkpt lat="50.960542273177225" lon="4.891432944331328"><ele>35.0</ele><time>2026-04-16T15:14:48.999Z</time></trkpt><trkpt lat="50.96054709021586" lon="4.891869256890278"><ele>33.0</ele><time>2026-04-16T15:14:49.999Z</time></trkpt><trkpt lat="50.96051020336643" lon="4.892317500704338"><ele>31.0</ele><time>2026-04-16T15:14:50.999Z</time></trkpt><trkpt lat="50.96050225544195" lon="4.892750531567907"><ele>29.5</ele><time>2026-04-16T15:14:51.999Z</time></trkpt><trkpt lat="50.96048382621962" lon="4.893193787926262"><ele>28.0</ele><time>2026-04-16T15:14:52.999Z</time></trkpt><trkpt lat="50.96047007489694" lon="4.893639307978883"><ele>27.5</ele><time>2026-04-16T15:14:53.999Z</time></trkpt><trkpt lat="50.96044405691604" lon="4.894076815235195"><ele>27.0</ele><time>2026-04-16T15:14:54.999Z</time></trkpt><trkpt lat="50.96044560412928" lon="4.894512417568042"><ele>27.0</ele><time>2026-04-16T15:14:55.999Z</time></trkpt><trkpt lat="50.96043567892008" lon="4.8949444540414095"><ele>27.0</ele><time>2026-04-16T15:14:56.999Z</time></trkpt><trkpt lat="50.960429587470585" lon="4.895333193026413"><ele>26.0</ele><time>2026-04-16T15:14:57.998Z</time></trkpt><trkpt lat="50.960419283234366" lon="4.895716606661997"><ele>25.0</ele><time>2026-04-16T15:14:58.998Z</time></trkpt><trkpt lat="50.960405681657214" lon="4.896074039163663"><ele>24.0</ele><time>2026-04-16T15:14:59.998Z</time></trkpt><trkpt lat="50.960378907997246" lon="4.896424885621586"><ele>23.0</ele><time>2026-04-16T15:15:00.998Z</time></trkpt><trkpt lat="50.96038592564489" lon="4.89675548459424"><ele>22.0</ele><time>2026-04-16T15:15:01.998Z</time></trkpt><trkpt lat="50.96037719819806" lon="4.897072211069515"><ele>21.333333333333332</ele><time>2026-04-16T15:15:02.998Z</time></trkpt><trkpt lat="50.96037358778362" lon="4.897395121875102"><ele>20.666666666666668</ele><time>2026-04-16T15:15:03.998Z</time></trkpt><trkpt lat="50.96036348526952" lon="4.897707572258551"><ele>20.0</ele><time>2026-04-16T15:15:04.998Z</time></trkpt><trkpt lat="50.960355679800145" lon="4.898004254743678"><ele>20.0</ele><time>2026-04-16T15:15:05.998Z</time></trkpt><trkpt lat="50.960347330582614" lon="4.898273688766003"><ele>20.0</ele><time>2026-04-16T15:15:06.998Z</time></trkpt><trkpt lat="50.96033772522929" lon="4.898509621746122"><ele>20.0</ele><time>2026-04-16T15:15:07.998Z</time></trkpt><trkpt lat="50.960333203743794" lon="4.898708258626895"><ele>20.0</ele><time>2026-04-16T15:15:08.998Z</time></trkpt><trkpt lat="50.96032504234482" lon="4.898860111116519"><ele>20.0</ele><time>2026-04-16T15:15:09.998Z</time></trkpt><trkpt lat="50.96032222176571" lon="4.898978579550907"><ele>20.0</ele><time>2026-04-16T15:15:10.998Z</time></trkpt><trkpt lat="50.96031484112608" lon="4.899094801269498"><ele>20.0</ele><time>2026-04-16T15:15:12.998Z</time></trkpt><trkpt lat="50.960307447638485" lon="4.899286852190381"><ele>20.0</ele><time>2026-04-16T15:15:16.998Z</time></trkpt><trkpt lat="50.96030437882169" lon="4.899431540493581"><ele>20.0</ele><time>2026-04-16T15:15:17.998Z</time></trkpt><trkpt lat="50.960298019041595" lon="4.89958064820108"><ele>20.0</ele><time>2026-04-16T15:15:18.998Z</time></trkpt><trkpt lat="50.96029525750386" lon="4.899755766568341"><ele>20.0</ele><time>2026-04-16T15:15:19.998Z</time></trkpt><trkpt lat="50.960288995569094" lon="4.899948736977073"><ele>20.0</ele><time>2026-04-16T15:15:20.998Z</time></trkpt><trkpt lat="50.96027306665402" lon="4.900168256865651"><ele>20.0</ele><time>2026-04-16T15:15:21.998Z</time></trkpt><trkpt lat="50.96026875080165" lon="4.900398147689195"><ele>21.0</ele><time>2026-04-16T15:15:22.998Z</time></trkpt><trkpt lat="50.960260414569106" lon="4.900650611195291"><ele>22.0</ele><time>2026-04-16T15:15:23.998Z</time></trkpt><trkpt lat="50.96025221681716" lon="4.900905299928808"><ele>23.0</ele><time>2026-04-16T15:15:24.998Z</time></trkpt><trkpt lat="50.960242373978936" lon="4.901175676402012"><ele>23.666666666666668</ele><time>2026-04-16T15:15:25.998Z</time></trkpt><trkpt lat="50.9602322133757" lon="4.90144636483777"><ele>24.333333333333336</ele><time>2026-04-16T15:15:26.998Z</time></trkpt><trkpt lat="50.96021104908775" lon="4.901738211486965"><ele>25.0</ele><time>2026-04-16T15:15:27.998Z</time></trkpt><trkpt lat="50.96019757881819" lon="4.9020077831052555"><ele>25.0</ele><time>2026-04-16T15:15:28.998Z</time></trkpt><trkpt lat="50.96018888913459" lon="4.902276330292965"><ele>25.0</ele><time>2026-04-16T15:15:29.998Z</time></trkpt><trkpt lat="50.960181460484336" lon="4.90252765330444"><ele>25.0</ele><time>2026-04-16T15:15:30.998Z</time></trkpt><trkpt lat="50.960175380385145" lon="4.90275833567112"><ele>25.5</ele><time>2026-04-16T15:15:31.998Z</time></trkpt><trkpt lat="50.96017137302621" lon="4.902966999063009"><ele>26.0</ele><time>2026-04-16T15:15:32.998Z</time></trkpt><trkpt lat="50.96015476844895" lon="4.90317680139488"><ele>26.5</ele><time>2026-04-16T15:15:33.998Z</time></trkpt><trkpt lat="50.960126009632226" lon="4.903394388329652"><ele>27.0</ele><time>2026-04-16T15:15:34.998Z</time></trkpt><trkpt lat="50.9600968316727" lon="4.903600581009432"><ele>27.75</ele><time>2026-04-16T15:15:35.998Z</time></trkpt><trkpt lat="50.96009174122781" lon="4.903815034575988"><ele>28.5</ele><time>2026-04-16T15:15:36.998Z</time></trkpt><trkpt lat="50.96009569939866" lon="4.90401149744597"><ele>29.25</ele><time>2026-04-16T15:15:38Z</time></trkpt><trkpt lat="50.960095474581344" lon="4.904224842144832"><ele>30.0</ele><time>2026-04-16T15:15:39Z</time></trkpt><trkpt lat="50.960088759827464" lon="4.904442599782294"><ele>30.25</ele><time>2026-04-16T15:15:40Z</time></trkpt><trkpt lat="50.96008004854226" lon="4.904661310481553"><ele>30.5</ele><time>2026-04-16T15:15:41Z</time></trkpt><trkpt lat="50.96006760980677" lon="4.904887134355676"><ele>30.75</ele><time>2026-04-16T15:15:42Z</time></trkpt><trkpt lat="50.96004416486619" lon="4.905124013542715"><ele>31.0</ele><time>2026-04-16T15:15:43Z</time></trkpt><trkpt lat="50.96003474425572" lon="4.905341428248268"><ele>30.25</ele><time>2026-04-16T15:15:44Z</time></trkpt><trkpt lat="50.96002055192227" lon="4.905593300634039"><ele>29.5</ele><time>2026-04-16T15:15:45Z</time></trkpt><trkpt lat="50.96000885947978" lon="4.905820301345962"><ele>28.75</ele><time>2026-04-16T15:15:46Z</time></trkpt><trkpt lat="50.960005123537975" lon="4.906042479561058"><ele>28.0</ele><time>2026-04-16T15:15:47Z</time></trkpt><trkpt lat="50.9600014765698" lon="4.906281369107598"><ele>28.0</ele><time>2026-04-16T15:15:48Z</time></trkpt><trkpt lat="50.95998657755147" lon="4.906519564803839"><ele>28.0</ele><time>2026-04-16T15:15:49Z</time></trkpt><trkpt lat="50.95997636716589" lon="4.906752008701264"><ele>28.0</ele><time>2026-04-16T15:15:50Z</time></trkpt><trkpt lat="50.95996041107497" lon="4.906991264013759"><ele>28.0</ele><time>2026-04-16T15:15:51Z</time></trkpt><trkpt lat="50.95994934426304" lon="4.9072290184553555"><ele>28.25</ele><time>2026-04-16T15:15:52Z</time></trkpt><trkpt lat="50.95996733089412" lon="4.907454602686773"><ele>28.5</ele><time>2026-04-16T15:15:53Z</time></trkpt><trkpt lat="50.95995124170418" lon="4.907688480415766"><ele>28.75</ele><time>2026-04-16T15:15:54Z</time></trkpt><trkpt lat="50.95991730309865" lon="4.907932407715304"><ele>29.0</ele><time>2026-04-16T15:15:55Z</time></trkpt><trkpt lat="50.95990594560601" lon="4.908144441242443"><ele>29.25</ele><time>2026-04-16T15:15:56Z</time></trkpt><trkpt lat="50.95989395175741" lon="4.908362855496061"><ele>29.5</ele><time>2026-04-16T15:15:57Z</time></trkpt><trkpt lat="50.95988134745251" lon="4.908582716797048"><ele>29.75</ele><time>2026-04-16T15:15:58Z</time></trkpt><trkpt lat="50.95986896506867" lon="4.908805033899909"><ele>30.0</ele><time>2026-04-16T15:15:59Z</time></trkpt><trkpt lat="50.95986870827032" lon="4.9090333402627175"><ele>30.5</ele><time>2026-04-16T15:16:00Z</time></trkpt><trkpt lat="50.95985426769579" lon="4.909259261331203"><ele>31.0</ele><time>2026-04-16T15:16:01Z</time></trkpt><trkpt lat="50.95983853941859" lon="4.9094913155962985"><ele>31.5</ele><time>2026-04-16T15:16:02Z</time></trkpt><trkpt lat="50.95982580981984" lon="4.909726747004006"><ele>32.0</ele><time>2026-04-16T15:16:03Z</time></trkpt><trkpt lat="50.95979610589984" lon="4.90996169888338"><ele>30.666666666666664</ele><time>2026-04-16T15:16:04Z</time></trkpt><trkpt lat="50.95978027491073" lon="4.910203241441648"><ele>29.333333333333336</ele><time>2026-04-16T15:16:05Z</time></trkpt><trkpt lat="50.95976138608649" lon="4.910456647267489"><ele>28.0</ele><time>2026-04-16T15:16:06Z</time></trkpt><trkpt lat="50.95974116327297" lon="4.910707268929007"><ele>27.666666666666668</ele><time>2026-04-16T15:16:07Z</time></trkpt><trkpt lat="50.959724818103766" lon="4.9109573485600695"><ele>27.333333333333336</ele><time>2026-04-16T15:16:08Z</time></trkpt><trkpt lat="50.959709546975326" lon="4.911212077388674"><ele>27.0</ele><time>2026-04-16T15:16:09Z</time></trkpt><trkpt lat="50.95969202083287" lon="4.911461875473908"><ele>27.0</ele><time>2026-04-16T15:16:10Z</time></trkpt><trkpt lat="50.95967265112876" lon="4.91170753808463"><ele>27.0</ele><time>2026-04-16T15:16:11Z</time></trkpt><trkpt lat="50.95964894327513" lon="4.911961578272322"><ele>27.0</ele><time>2026-04-16T15:16:12Z</time></trkpt><trkpt lat="50.95962751374685" lon="4.9122264917012775"><ele>27.333333333333336</ele><time>2026-04-16T15:16:13Z</time></trkpt><trkpt lat="50.95960350937029" lon="4.912481164713427"><ele>27.666666666666668</ele><time>2026-04-16T15:16:13.999Z</time></trkpt><trkpt lat="50.95957569657081" lon="4.912737757712243"><ele>28.0</ele><time>2026-04-16T15:16:14.999Z</time></trkpt><trkpt lat="50.95954881824134" lon="4.912987755046601"><ele>29.0</ele><time>2026-04-16T15:16:15.999Z</time></trkpt><trkpt lat="50.95952149690429" lon="4.913236999687564"><ele>30.0</ele><time>2026-04-16T15:16:16.999Z</time></trkpt><trkpt lat="50.959494599837775" lon="4.913469291432966"><ele>31.0</ele><time>2026-04-16T15:16:17.999Z</time></trkpt><trkpt lat="50.95947979208988" lon="4.913715074680674"><ele>32.0</ele><time>2026-04-16T15:16:18.999Z</time></trkpt><trkpt lat="50.959448360521634" lon="4.913960155109578"><ele>33.0</ele><time>2026-04-16T15:16:19.999Z</time></trkpt><trkpt lat="50.95942278283445" lon="4.914207219279276"><ele>34.0</ele><time>2026-04-16T15:16:20.999Z</time></trkpt><trkpt lat="50.95938972183164" lon="4.914458072097118"><ele>34.66666666666667</ele><time>2026-04-16T15:16:21.999Z</time></trkpt><trkpt lat="50.95935916677546" lon="4.914713874647557"><ele>35.333333333333336</ele><time>2026-04-16T15:16:22.999Z</time></trkpt><trkpt lat="50.95932061170443" lon="4.914993964263852"><ele>36.0</ele><time>2026-04-16T15:16:23.999Z</time></trkpt><trkpt lat="50.95928942608937" lon="4.91524624230286"><ele>37.666666666666664</ele><time>2026-04-16T15:16:24.999Z</time></trkpt><trkpt lat="50.95925852798401" lon="4.915467703501039"><ele>39.33333333333333</ele><time>2026-04-16T15:16:25.999Z</time></trkpt><trkpt lat="50.95922407624851" lon="4.915714895972004"><ele>41.0</ele><time>2026-04-16T15:16:26.999Z</time></trkpt><trkpt lat="50.95919078513682" lon="4.915954019198291"><ele>42.33333333333333</ele><time>2026-04-16T15:16:27.999Z</time></trkpt><trkpt lat="50.95916654965899" lon="4.916219199516432"><ele>43.666666666666664</ele><time>2026-04-16T15:16:28.999Z</time></trkpt><trkpt lat="50.95916599854464" lon="4.916478622792684"><ele>45.0</ele><time>2026-04-16T15:16:29.999Z</time></trkpt><trkpt lat="50.95915780966839" lon="4.9167371717826365"><ele>46.25</ele><time>2026-04-16T15:16:30.999Z</time></trkpt><trkpt lat="50.95917329578484" lon="4.916982154871188"><ele>47.5</ele><time>2026-04-16T15:16:31.999Z</time></trkpt><trkpt lat="50.95917467055563" lon="4.9172141516682295"><ele>48.75</ele><time>2026-04-16T15:16:32.999Z</time></trkpt><trkpt lat="50.95916765415764" lon="4.917434825190287"><ele>50.0</ele><time>2026-04-16T15:16:33.999Z</time></trkpt><trkpt lat="50.959150300247586" lon="4.917658692161096"><ele>50.333333333333336</ele><time>2026-04-16T15:16:34.999Z</time></trkpt><trkpt lat="50.95913851146344" lon="4.917893209504574"><ele>50.66666666666667</ele><time>2026-04-16T15:16:35.999Z</time></trkpt><trkpt lat="50.959138376159295" lon="4.918132069132905"><ele>51.0</ele><time>2026-04-16T15:16:36.999Z</time></trkpt><trkpt lat="50.95910986301802" lon="4.918370397863881"><ele>51.0</ele><time>2026-04-16T15:16:37.999Z</time></trkpt><trkpt lat="50.959086614585146" lon="4.918617206663426"><ele>51.0</ele><time>2026-04-16T15:16:38.999Z</time></trkpt><trkpt lat="50.95906419360121" lon="4.91886819096884"><ele>51.0</ele><time>2026-04-16T15:16:39.999Z</time></trkpt><trkpt lat="50.95904341602153" lon="4.919121562093269"><ele>51.66666666666667</ele><time>2026-04-16T15:16:40.999Z</time></trkpt><trkpt lat="50.959024644875505" lon="4.91936780997868"><ele>52.333333333333336</ele><time>2026-04-16T15:16:41.999Z</time></trkpt><trkpt lat="50.959004653608005" lon="4.919618507166421"><ele>53.0</ele><time>2026-04-16T15:16:42.999Z</time></trkpt><trkpt lat="50.958983937771094" lon="4.91987638212753"><ele>53.66666666666667</ele><time>2026-04-16T15:16:43.999Z</time></trkpt><trkpt lat="50.95896191378338" lon="4.920138611339108"><ele>54.33333333333333</ele><time>2026-04-16T15:16:44.999Z</time></trkpt><trkpt lat="50.958938812863316" lon="4.920401455041657"><ele>55.0</ele><time>2026-04-16T15:16:45.999Z</time></trkpt><trkpt lat="50.95891528098776" lon="4.920668520967583"><ele>55.25</ele><time>2026-04-16T15:16:46.999Z</time></trkpt><trkpt lat="50.958891836931365" lon="4.920926397060454"><ele>55.5</ele><time>2026-04-16T15:16:47.999Z</time></trkpt><trkpt lat="50.95886979930605" lon="4.921157697650011"><ele>55.75</ele><time>2026-04-16T15:16:48.999Z</time></trkpt><trkpt lat="50.95884945704063" lon="4.921357414262769"><ele>56.0</ele><time>2026-04-16T15:16:49.999Z</time></trkpt><trkpt lat="50.95883854094013" lon="4.921529464925899"><ele>56.0</ele><time>2026-04-16T15:16:50.999Z</time></trkpt><trkpt lat="50.9588547596653" lon="4.9217135953275415"><ele>56.0</ele><time>2026-04-16T15:16:51.999Z</time></trkpt><trkpt lat="50.958882520855795" lon="4.921904473920599"><ele>56.0</ele><time>2026-04-16T15:16:52.999Z</time></trkpt><trkpt lat="50.958949690971515" lon="4.922097332610849"><ele>56.0</ele><time>2026-04-16T15:16:53.999Z</time></trkpt><trkpt lat="50.959010323785584" lon="4.92230249067538"><ele>56.25</ele><time>2026-04-16T15:16:54.999Z</time></trkpt><trkpt lat="50.95906638249004" lon="4.922510036438837"><ele>56.5</ele><time>2026-04-16T15:16:55.999Z</time></trkpt><trkpt lat="50.959102472672576" lon="4.922706146362766"><ele>56.75</ele><time>2026-04-16T15:16:56.999Z</time></trkpt><trkpt lat="50.959120254585805" lon="4.922918373250485"><ele>57.0</ele><time>2026-04-16T15:16:57.999Z</time></trkpt><trkpt lat="50.95913820480334" lon="4.923142916881133"><ele>57.0</ele><time>2026-04-16T15:16:58.999Z</time></trkpt><trkpt lat="50.95916112926953" lon="4.92338128758659"><ele>57.0</ele><time>2026-04-16T15:16:59.999Z</time></trkpt><trkpt lat="50.95918835995411" lon="4.923621701584822"><ele>57.0</ele><time>2026-04-16T15:17:00.998Z</time></trkpt><trkpt lat="50.959213566541536" lon="4.923868772283958"><ele>55.0</ele><time>2026-04-16T15:17:01.998Z</time></trkpt><trkpt lat="50.95923692166047" lon="4.924126918565847"><ele>53.0</ele><time>2026-04-16T15:17:02.998Z</time></trkpt><trkpt lat="50.959261271529314" lon="4.924386524666139"><ele>51.0</ele><time>2026-04-16T15:17:03.998Z</time></trkpt><trkpt lat="50.95928616368759" lon="4.924663984605312"><ele>50.66666666666667</ele><time>2026-04-16T15:17:04.998Z</time></trkpt><trkpt lat="50.959312590861096" lon="4.924950841575785"><ele>50.333333333333336</ele><time>2026-04-16T15:17:05.998Z</time></trkpt><trkpt lat="50.95933807939317" lon="4.925240415895792"><ele>50.0</ele><time>2026-04-16T15:17:06.998Z</time></trkpt><trkpt lat="50.959364735842506" lon="4.925553851292777"><ele>49.66666666666667</ele><time>2026-04-16T15:17:07.998Z</time></trkpt><trkpt lat="50.959390164829" lon="4.925863639521958"><ele>49.33333333333333</ele><time>2026-04-16T15:17:08.998Z</time></trkpt><trkpt lat="50.95941750005599" lon="4.926181040713664"><ele>49.0</ele><time>2026-04-16T15:17:09.998Z</time></trkpt><trkpt lat="50.959447095214266" lon="4.92649532196288"><ele>48.666666666666664</ele><time>2026-04-16T15:17:10.998Z</time></trkpt><trkpt lat="50.9594737518087" lon="4.926785780608093"><ele>48.33333333333333</ele><time>2026-04-16T15:17:11.998Z</time></trkpt><trkpt lat="50.95949879427007" lon="4.9270720547874065"><ele>48.0</ele><time>2026-04-16T15:17:12.998Z</time></trkpt><trkpt lat="50.95952860056673" lon="4.927365806774197"><ele>48.0</ele><time>2026-04-16T15:17:13.998Z</time></trkpt><trkpt lat="50.95955834488156" lon="4.927672895694088"><ele>48.0</ele><time>2026-04-16T15:17:14.998Z</time></trkpt><trkpt lat="50.95958421057344" lon="4.927975533761557"><ele>48.0</ele><time>2026-04-16T15:17:15.998Z</time></trkpt><trkpt lat="50.959609403379716" lon="4.928282868432872"><ele>48.0</ele><time>2026-04-16T15:17:16.998Z</time></trkpt><trkpt lat="50.95963313480983" lon="4.928568701738064"><ele>48.0</ele><time>2026-04-16T15:17:17.998Z</time></trkpt><trkpt lat="50.9596592771771" lon="4.928814065535063"><ele>48.0</ele><time>2026-04-16T15:17:18.998Z</time></trkpt><trkpt lat="50.95970376696988" lon="4.929056025640572"><ele>48.25</ele><time>2026-04-16T15:17:19.998Z</time></trkpt><trkpt lat="50.959727582441325" lon="4.929273004790409"><ele>48.5</ele><time>2026-04-16T15:17:20.998Z</time></trkpt><trkpt lat="50.95973355016366" lon="4.929477443524151"><ele>48.75</ele><time>2026-04-16T15:17:21.998Z</time></trkpt><trkpt lat="50.95975112931705" lon="4.9296566188674555"><ele>49.0</ele><time>2026-04-16T15:17:22.998Z</time></trkpt><trkpt lat="50.95979577046068" lon="4.9298204068198626"><ele>49.0</ele><time>2026-04-16T15:17:23.998Z</time></trkpt><trkpt lat="50.95982981914083" lon="4.92999765382427"><ele>49.0</ele><time>2026-04-16T15:17:24.998Z</time></trkpt><trkpt lat="50.9599314056462" lon="4.930133142249437"><ele>49.0</ele><time>2026-04-16T15:17:25.998Z</time></trkpt><trkpt lat="50.9600622294264" lon="4.930135528208942"><ele>49.0</ele><time>2026-04-16T15:17:26.998Z</time></trkpt><trkpt lat="50.960153089636485" lon="4.930148015041662"><ele>48.800000000000004</ele><time>2026-04-16T15:17:27.998Z</time></trkpt><trkpt lat="50.96021497686321" lon="4.930230799414783"><ele>48.6</ele><time>2026-04-16T15:17:28.998Z</time></trkpt><trkpt lat="50.96023845585894" lon="4.9303735034566"><ele>48.4</ele><time>2026-04-16T15:17:29.998Z</time></trkpt><trkpt lat="50.960207070559626" lon="4.930529096286596"><ele>48.2</ele><time>2026-04-16T15:17:30.998Z</time></trkpt><trkpt lat="50.96017520828957" lon="4.930660277795789"><ele>48.0</ele><time>2026-04-16T15:17:31.998Z</time></trkpt><trkpt lat="50.95997065389472" lon="4.930683908916896"><ele>48.5</ele><time>2026-04-16T15:17:33.998Z</time></trkpt><trkpt lat="50.95985575911363" lon="4.930636897740702"><ele>49.0</ele><time>2026-04-16T15:17:34.998Z</time></trkpt><trkpt lat="50.95973188844524" lon="4.930624454150995"><ele>49.5</ele><time>2026-04-16T15:17:35.998Z</time></trkpt><trkpt lat="50.95959422834581" lon="4.930616686887152"><ele>50.0</ele><time>2026-04-16T15:17:36.998Z</time></trkpt><trkpt lat="50.95944317567603" lon="4.930603260083247"><ele>50.0</ele><time>2026-04-16T15:17:37.998Z</time></trkpt><trkpt lat="50.959291548621145" lon="4.930587672873878"><ele>50.0</ele><time>2026-04-16T15:17:38.998Z</time></trkpt><trkpt lat="50.95912998275569" lon="4.930574165503854"><ele>50.0</ele><time>2026-04-16T15:17:39.998Z</time></trkpt><trkpt lat="50.95896184698875" lon="4.930562479363958"><ele>49.66666666666667</ele><time>2026-04-16T15:17:40.998Z</time></trkpt><trkpt lat="50.9587829642116" lon="4.930549328274301"><ele>49.33333333333333</ele><time>2026-04-16T15:17:41.998Z</time></trkpt><trkpt lat="50.958600024261315" lon="4.930537277211937"><ele>49.0</ele><time>2026-04-16T15:17:42.998Z</time></trkpt><trkpt lat="50.95841465156666" lon="4.930527849511538"><ele>49.666666666666664</ele><time>2026-04-16T15:17:44Z</time></trkpt><trkpt lat="50.95821749580825" lon="4.930513897504631"><ele>50.33333333333333</ele><time>2026-04-16T15:17:45Z</time></trkpt><trkpt lat="50.958034971019785" lon="4.9305005064919"><ele>51.0</ele><time>2026-04-16T15:17:46Z</time></trkpt><trkpt lat="50.95784404387332" lon="4.930482878523778"><ele>51.0</ele><time>2026-04-16T15:17:47Z</time></trkpt><trkpt lat="50.95765473769887" lon="4.930461957469837"><ele>51.0</ele><time>2026-04-16T15:17:48Z</time></trkpt><trkpt lat="50.95745859290407" lon="4.930444921341558"><ele>51.0</ele><time>2026-04-16T15:17:49Z</time></trkpt><trkpt lat="50.95728742486199" lon="4.930430889857546"><ele>51.66666666666667</ele><time>2026-04-16T15:17:50Z</time></trkpt><trkpt lat="50.957121187745194" lon="4.9303938925510815"><ele>52.333333333333336</ele><time>2026-04-16T15:17:51Z</time></trkpt><trkpt lat="50.95692475080074" lon="4.9303834468600245"><ele>53.0</ele><time>2026-04-16T15:17:52Z</time></trkpt><trkpt lat="50.956740036470514" lon="4.930358464447932"><ele>52.0</ele><time>2026-04-16T15:17:53Z</time></trkpt><trkpt lat="50.95656687420709" lon="4.930331666107607"><ele>51.0</ele><time>2026-04-16T15:17:54Z</time></trkpt><trkpt lat="50.95640927901793" lon="4.930310378949604"><ele>50.0</ele><time>2026-04-16T15:17:55Z</time></trkpt><trkpt lat="50.956260183777694" lon="4.93029171185899"><ele>50.0</ele><time>2026-04-16T15:17:56Z</time></trkpt><trkpt lat="50.956125741950785" lon="4.930275610039515"><ele>50.0</ele><time>2026-04-16T15:17:57Z</time></trkpt><trkpt lat="50.95599854863996" lon="4.930264682304006"><ele>50.0</ele><time>2026-04-16T15:17:58Z</time></trkpt><trkpt lat="50.95588157315519" lon="4.930258212396855"><ele>50.0</ele><time>2026-04-16T15:17:59Z</time></trkpt><trkpt lat="50.9557659326441" lon="4.930252642424935"><ele>49.16666666666667</ele><time>2026-04-16T15:18:00Z</time></trkpt><trkpt lat="50.955664086169115" lon="4.930249003286885"><ele>48.333333333333336</ele><time>2026-04-16T15:18:01Z</time></trkpt><trkpt lat="50.955573647791965" lon="4.930243412433189"><ele>47.5</ele><time>2026-04-16T15:18:02Z</time></trkpt><trkpt lat="50.95549049994342" lon="4.930242258964462"><ele>46.66666666666667</ele><time>2026-04-16T15:18:03Z</time></trkpt><trkpt lat="50.955421904226895" lon="4.930247067379483"><ele>45.833333333333336</ele><time>2026-04-16T15:18:04Z</time></trkpt><trkpt lat="50.95535604072932" lon="4.930220129488041"><ele>45.0</ele><time>2026-04-16T15:18:05Z</time></trkpt><trkpt lat="50.95528087346243" lon="4.930238524379345"><ele>45.0</ele><time>2026-04-16T15:18:06Z</time></trkpt><trkpt lat="50.955213404940764" lon="4.930209588180179"><ele>45.0</ele><time>2026-04-16T15:18:07Z</time></trkpt><trkpt lat="50.95514866731938" lon="4.930204803830147"><ele>45.0</ele><time>2026-04-16T15:18:08Z</time></trkpt><trkpt lat="50.955073995102964" lon="4.930198958153661"><ele>45.0</ele><time>2026-04-16T15:18:09Z</time></trkpt><trkpt lat="50.954994841408755" lon="4.930196161199852"><ele>45.0</ele><time>2026-04-16T15:18:10Z</time></trkpt><trkpt lat="50.95493396406286" lon="4.930618309821635"><ele>45.0</ele><time>2026-04-16T15:18:13Z</time></trkpt><trkpt lat="50.95492017344448" lon="4.930723055535568"><ele>45.0</ele><time>2026-04-16T15:18:14Z</time></trkpt><trkpt lat="50.95551802810832" lon="4.930870802115614"><ele>45.0</ele><time>2026-04-16T15:18:15Z</time></trkpt><trkpt lat="50.955524518810876" lon="4.93105292107254"><ele>45.0</ele><time>2026-04-16T15:18:16.999Z</time></trkpt><trkpt lat="50.955537831308256" lon="4.9312778333798715"><ele>45.0</ele><time>2026-04-16T15:18:18.999Z</time></trkpt><trkpt lat="50.95555604941917" lon="4.931418221815502"><ele>45.0</ele><time>2026-04-16T15:18:19.999Z</time></trkpt><trkpt lat="50.95558477606079" lon="4.931565417535664"><ele>45.0</ele><time>2026-04-16T15:18:20.999Z</time></trkpt><trkpt lat="50.95562035046969" lon="4.931705308008387"><ele>45.6</ele><time>2026-04-16T15:18:21.999Z</time></trkpt><trkpt lat="50.95566324402144" lon="4.931826316437467"><ele>46.2</ele><time>2026-04-16T15:18:22.999Z</time></trkpt><trkpt lat="50.95572371394116" lon="4.931990559600177"><ele>46.8</ele><time>2026-04-16T15:18:23.999Z</time></trkpt><trkpt lat="50.955780281107096" lon="4.932088132785051"><ele>47.4</ele><time>2026-04-16T15:18:24.999Z</time></trkpt><trkpt lat="50.95583547619208" lon="4.932166088188125"><ele>48.0</ele><time>2026-04-16T15:18:25.999Z</time></trkpt><trkpt lat="50.955902837192305" lon="4.932264157168394"><ele>48.8</ele><time>2026-04-16T15:18:26.999Z</time></trkpt><trkpt lat="50.95596908373024" lon="4.932332437273138"><ele>49.599999999999994</ele><time>2026-04-16T15:18:27.999Z</time></trkpt><trkpt lat="50.956053397466" lon="4.932419386533599"><ele>50.400000000000006</ele><time>2026-04-16T15:18:28.999Z</time></trkpt><trkpt lat="50.956142943402405" lon="4.932498991936832"><ele>51.2</ele><time>2026-04-16T15:18:29.999Z</time></trkpt><trkpt lat="50.956233426827055" lon="4.932571566561465"><ele>52.0</ele><time>2026-04-16T15:18:30.999Z</time></trkpt><trkpt lat="50.95633138444749" lon="4.932649000816521"><ele>52.0</ele><time>2026-04-16T15:18:31.999Z</time></trkpt><trkpt lat="50.95642303020233" lon="4.932722228303825"><ele>52.0</ele><time>2026-04-16T15:18:32.999Z</time></trkpt><trkpt lat="50.956520952402684" lon="4.932800542064738"><ele>52.0</ele><time>2026-04-16T15:18:33.999Z</time></trkpt><trkpt lat="50.9566314741658" lon="4.932907272741707"><ele>52.0</ele><time>2026-04-16T15:18:34.999Z</time></trkpt><trkpt lat="50.95673644491048" lon="4.933036461616504"><ele>52.0</ele><time>2026-04-16T15:18:35.999Z</time></trkpt><trkpt lat="50.956826306353335" lon="4.933179781077964"><ele>52.0</ele><time>2026-04-16T15:18:36.999Z</time></trkpt><trkpt lat="50.956895220389015" lon="4.933333117463788"><ele>52.0</ele><time>2026-04-16T15:18:37.999Z</time></trkpt><trkpt lat="50.956943362125784" lon="4.933479076499313"><ele>52.0</ele><time>2026-04-16T15:18:38.999Z</time></trkpt><trkpt lat="50.95697994783404" lon="4.933655540820538"><ele>52.0</ele><time>2026-04-16T15:18:39.999Z</time></trkpt><trkpt lat="50.95699594133995" lon="4.933825219806506"><ele>52.0</ele><time>2026-04-16T15:18:40.999Z</time></trkpt><trkpt lat="50.95700115488839" lon="4.933993807208592"><ele>52.0</ele><time>2026-04-16T15:18:41.999Z</time></trkpt><trkpt lat="50.95699998745165" lon="4.934194398205"><ele>52.0</ele><time>2026-04-16T15:18:42.999Z</time></trkpt><trkpt lat="50.95699512628357" lon="4.934384951342689"><ele>52.0</ele><time>2026-04-16T15:18:43.999Z</time></trkpt><trkpt lat="50.956987593973054" lon="4.934537527067255"><ele>52.0</ele><time>2026-04-16T15:18:44.999Z</time></trkpt><trkpt lat="50.956981813156645" lon="4.934650827347671"><ele>52.0</ele><time>2026-04-16T15:18:45.999Z</time></trkpt><trkpt lat="50.95696842443924" lon="4.934819941498198"><ele>52.0</ele><time>2026-04-16T15:18:46.999Z</time></trkpt><trkpt lat="50.956956140982065" lon="4.93499399534337"><ele>52.0</ele><time>2026-04-16T15:18:47.999Z</time></trkpt><trkpt lat="50.95692292179256" lon="4.935252577921862"><ele>52.5</ele><time>2026-04-16T15:18:48.999Z</time></trkpt><trkpt lat="50.956900516381396" lon="4.935488276885666"><ele>53.0</ele><time>2026-04-16T15:18:49.999Z</time></trkpt><trkpt lat="50.95688040471437" lon="4.935699853196901"><ele>53.5</ele><time>2026-04-16T15:18:50.999Z</time></trkpt><trkpt lat="50.95686415657464" lon="4.935871118414598"><ele>54.0</ele><time>2026-04-16T15:18:51.999Z</time></trkpt><trkpt lat="50.95684938779777" lon="4.936035867946827"><ele>54.25</ele><time>2026-04-16T15:18:52.999Z</time></trkpt><trkpt lat="50.956834728664255" lon="4.9361993943770175"><ele>54.5</ele><time>2026-04-16T15:18:53.999Z</time></trkpt><trkpt lat="50.956822887357816" lon="4.93633194320243"><ele>54.75</ele><time>2026-04-16T15:18:54.999Z</time></trkpt><trkpt lat="50.95680470147807" lon="4.936533320226572"><ele>55.0</ele><time>2026-04-16T15:18:56.999Z</time></trkpt><trkpt lat="50.956339337876756" lon="4.936595198267355"><ele>55.0</ele><time>2026-04-16T15:18:58.999Z</time></trkpt><trkpt lat="50.956227139240355" lon="4.936680451708825"><ele>55.0</ele><time>2026-04-16T15:18:59.999Z</time></trkpt><trkpt lat="50.956128221208814" lon="4.936762176303988"><ele>55.0</ele><time>2026-04-16T15:19:00.999Z</time></trkpt><trkpt lat="50.956032814505846" lon="4.936834499218844"><ele>55.0</ele><time>2026-04-16T15:19:01.998Z</time></trkpt><trkpt lat="50.95593069635617" lon="4.936908325428665"><ele>54.25</ele><time>2026-04-16T15:19:02.998Z</time></trkpt><trkpt lat="50.95583090536293" lon="4.936965802545451"><ele>53.5</ele><time>2026-04-16T15:19:03.998Z</time></trkpt><trkpt lat="50.9557227596536" lon="4.937007032807847"><ele>52.75</ele><time>2026-04-16T15:19:04.998Z</time></trkpt><trkpt lat="50.95561567387921" lon="4.937080321145405"><ele>52.0</ele><time>2026-04-16T15:19:05.998Z</time></trkpt><trkpt lat="50.955500959789696" lon="4.937169438430826"><ele>52.0</ele><time>2026-04-16T15:19:06.998Z</time></trkpt><trkpt lat="50.95539297976228" lon="4.937224369807397"><ele>52.0</ele><time>2026-04-16T15:19:07.998Z</time></trkpt><trkpt lat="50.95528789680028" lon="4.937283287940813"><ele>52.0</ele><time>2026-04-16T15:19:08.998Z</time></trkpt><trkpt lat="50.955181809141855" lon="4.937352719488915"><ele>52.0</ele><time>2026-04-16T15:19:09.998Z</time></trkpt><trkpt lat="50.955072708131894" lon="4.937410163914506"><ele>51.8</ele><time>2026-04-16T15:19:10.998Z</time></trkpt><trkpt lat="50.954962095861674" lon="4.9374587887966035"><ele>51.6</ele><time>2026-04-16T15:19:11.998Z</time></trkpt><trkpt lat="50.95486704046088" lon="4.937512588471702"><ele>51.4</ele><time>2026-04-16T15:19:12.998Z</time></trkpt><trkpt lat="50.95479375515597" lon="4.937554103950052"><ele>51.199999999999996</ele><time>2026-04-16T15:19:13.998Z</time></trkpt><trkpt lat="50.95472818342205" lon="4.937583119653557"><ele>51.0</ele><time>2026-04-16T15:19:14.998Z</time></trkpt><trkpt lat="50.95462363672122" lon="4.937636808831649"><ele>51.5</ele><time>2026-04-16T15:19:16.998Z</time></trkpt><trkpt lat="50.954636280395796" lon="4.937874124244851"><ele>52.0</ele><time>2026-04-16T15:19:18.998Z</time></trkpt><trkpt lat="50.95465629858444" lon="4.93801798073944"><ele>52.5</ele><time>2026-04-16T15:19:19.998Z</time></trkpt><trkpt lat="50.9546454976703" lon="4.938172713487156"><ele>53.0</ele><time>2026-04-16T15:19:20.998Z</time></trkpt><trkpt lat="50.954651076010485" lon="4.938354907794795"><ele>52.75</ele><time>2026-04-16T15:19:21.998Z</time></trkpt><trkpt lat="50.95466788284359" lon="4.938552570544072"><ele>52.5</ele><time>2026-04-16T15:19:22.998Z</time></trkpt><trkpt lat="50.95467650579213" lon="4.9387450393936945"><ele>52.25</ele><time>2026-04-16T15:19:23.998Z</time></trkpt><trkpt lat="50.95467190870597" lon="4.938958062710362"><ele>52.0</ele><time>2026-04-16T15:19:24.998Z</time></trkpt><trkpt lat="50.95469701713128" lon="4.939195520978372"><ele>52.0</ele><time>2026-04-16T15:19:25.998Z</time></trkpt><trkpt lat="50.95470902890966" lon="4.9394415130502525"><ele>52.0</ele><time>2026-04-16T15:19:26.998Z</time></trkpt><trkpt lat="50.95472055597979" lon="4.939706481380065"><ele>52.0</ele><time>2026-04-16T15:19:27.998Z</time></trkpt><trkpt lat="50.954732530632015" lon="4.939971278343311"><ele>51.666666666666664</ele><time>2026-04-16T15:19:28.998Z</time></trkpt><trkpt lat="50.95475419029094" lon="4.940254416890219"><ele>51.33333333333333</ele><time>2026-04-16T15:19:29.998Z</time></trkpt><trkpt lat="50.954782965991534" lon="4.940536330170614"><ele>51.0</ele><time>2026-04-16T15:19:30.998Z</time></trkpt><trkpt lat="50.95480699894363" lon="4.940830075216034"><ele>50.66666666666667</ele><time>2026-04-16T15:19:31.998Z</time></trkpt><trkpt lat="50.95482203926543" lon="4.941123948836387"><ele>50.333333333333336</ele><time>2026-04-16T15:19:32.998Z</time></trkpt><trkpt lat="50.954834477453296" lon="4.9414018252772385"><ele>50.0</ele><time>2026-04-16T15:19:33.998Z</time></trkpt><trkpt lat="50.954846782346976" lon="4.941652952549895"><ele>49.5</ele><time>2026-04-16T15:19:34.998Z</time></trkpt><trkpt lat="50.954858004736444" lon="4.941891789291102"><ele>49.0</ele><time>2026-04-16T15:19:35.998Z</time></trkpt><trkpt lat="50.95487323324502" lon="4.942090026894318"><ele>48.5</ele><time>2026-04-16T15:19:36.998Z</time></trkpt><trkpt lat="50.95489045483922" lon="4.942287516246343"><ele>48.0</ele><time>2026-04-16T15:19:37.998Z</time></trkpt><trkpt lat="50.95490358194973" lon="4.942493668577986"><ele>48.25</ele><time>2026-04-16T15:19:38.998Z</time></trkpt><trkpt lat="50.95490018656242" lon="4.94270096179642"><ele>48.5</ele><time>2026-04-16T15:19:39.998Z</time></trkpt><trkpt lat="50.954837266269294" lon="4.942887744169496"><ele>48.75</ele><time>2026-04-16T15:19:40.998Z</time></trkpt><trkpt lat="50.954767323466115" lon="4.943056234624039"><ele>49.0</ele><time>2026-04-16T15:19:41.998Z</time></trkpt><trkpt lat="50.95469121486719" lon="4.943227581330558"><ele>48.75</ele><time>2026-04-16T15:19:42.998Z</time></trkpt><trkpt lat="50.95462479249445" lon="4.943422739713799"><ele>48.5</ele><time>2026-04-16T15:19:43.998Z</time></trkpt><trkpt lat="50.954567015978135" lon="4.943618272571655"><ele>48.25</ele><time>2026-04-16T15:19:44.998Z</time></trkpt><trkpt lat="50.95454136129819" lon="4.943843224947951"><ele>48.0</ele><time>2026-04-16T15:19:45.998Z</time></trkpt><trkpt lat="50.95454383539429" lon="4.944071986691951"><ele>47.666666666666664</ele><time>2026-04-16T15:19:46.998Z</time></trkpt><trkpt lat="50.95456232259156" lon="4.9443053636358805"><ele>47.33333333333333</ele><time>2026-04-16T15:19:47.998Z</time></trkpt><trkpt lat="50.95457240974853" lon="4.944538785530937"><ele>47.0</ele><time>2026-04-16T15:19:48.997Z</time></trkpt><trkpt lat="50.954575339459474" lon="4.944786294734486"><ele>47.0</ele><time>2026-04-16T15:19:50Z</time></trkpt><trkpt lat="50.95457089857145" lon="4.9450447514265505"><ele>47.0</ele><time>2026-04-16T15:19:51Z</time></trkpt><trkpt lat="50.95456718706127" lon="4.945316333785896"><ele>47.0</ele><time>2026-04-16T15:19:52Z</time></trkpt><trkpt lat="50.95456310855118" lon="4.945590757053884"><ele>46.666666666666664</ele><time>2026-04-16T15:19:53Z</time></trkpt><trkpt lat="50.95456311243992" lon="4.945876812024736"><ele>46.333333333333336</ele><time>2026-04-16T15:19:54Z</time></trkpt><trkpt lat="50.95456533244211" lon="4.946183222621574"><ele>46.0</ele><time>2026-04-16T15:19:55Z</time></trkpt><trkpt lat="50.954567886389924" lon="4.946473396427404"><ele>45.66666666666667</ele><time>2026-04-16T15:19:56Z</time></trkpt><trkpt lat="50.954573832221854" lon="4.946805791436641"><ele>45.333333333333336</ele><time>2026-04-16T15:19:57Z</time></trkpt><trkpt lat="50.95457519169879" lon="4.94712729068337"><ele>45.0</ele><time>2026-04-16T15:19:58Z</time></trkpt><trkpt lat="50.95457258953003" lon="4.947473743275635"><ele>45.0</ele><time>2026-04-16T15:19:59Z</time></trkpt><trkpt lat="50.95456612034953" lon="4.94781323036255"><ele>45.0</ele><time>2026-04-16T15:20:00Z</time></trkpt><trkpt lat="50.95455672174091" lon="4.948148470825693"><ele>45.0</ele><time>2026-04-16T15:20:01Z</time></trkpt><trkpt lat="50.954542628976725" lon="4.9484552697310535"><ele>45.0</ele><time>2026-04-16T15:20:02Z</time></trkpt><trkpt lat="50.95452384043359" lon="4.9487339233391205"><ele>45.0</ele><time>2026-04-16T15:20:03Z</time></trkpt><trkpt lat="50.95451122963031" lon="4.9490009467908305"><ele>45.0</ele><time>2026-04-16T15:20:04Z</time></trkpt><trkpt lat="50.95453152094856" lon="4.949258264976081"><ele>45.0</ele><time>2026-04-16T15:20:05Z</time></trkpt><trkpt lat="50.95458761097887" lon="4.949493594730735"><ele>45.0</ele><time>2026-04-16T15:20:06Z</time></trkpt><trkpt lat="50.95465862538654" lon="4.949711639311134"><ele>45.0</ele><time>2026-04-16T15:20:07Z</time></trkpt><trkpt lat="50.954735393204025" lon="4.949920748435373"><ele>44.666666666666664</ele><time>2026-04-16T15:20:08Z</time></trkpt><trkpt lat="50.95480048215332" lon="4.950147171008628"><ele>44.33333333333333</ele><time>2026-04-16T15:20:09Z</time></trkpt><trkpt lat="50.95485304502484" lon="4.950387493632895"><ele>44.0</ele><time>2026-04-16T15:20:10Z</time></trkpt><trkpt lat="50.95490253869689" lon="4.950601043817874"><ele>44.0</ele><time>2026-04-16T15:20:11Z</time></trkpt><trkpt lat="50.95495404724473" lon="4.950802900586115"><ele>44.0</ele><time>2026-04-16T15:20:12Z</time></trkpt><trkpt lat="50.95499592765718" lon="4.951016572782921"><ele>44.0</ele><time>2026-04-16T15:20:13Z</time></trkpt><trkpt lat="50.955028248072104" lon="4.951238043035049"><ele>44.0</ele><time>2026-04-16T15:20:14Z</time></trkpt><trkpt lat="50.955058911417645" lon="4.951429612623476"><ele>43.800000000000004</ele><time>2026-04-16T15:20:15Z</time></trkpt><trkpt lat="50.955094458624416" lon="4.951608826943104"><ele>43.6</ele><time>2026-04-16T15:20:16Z</time></trkpt><trkpt lat="50.95512609614513" lon="4.951758032168381"><ele>43.4</ele><time>2026-04-16T15:20:17Z</time></trkpt><trkpt lat="50.95515793691641" lon="4.951910399054295"><ele>43.2</ele><time>2026-04-16T15:20:17.999Z</time></trkpt><trkpt lat="50.95518422338219" lon="4.952042552672394"><ele>43.0</ele><time>2026-04-16T15:20:18.999Z</time></trkpt><trkpt lat="50.955202700129355" lon="4.952166291531018"><ele>43.0</ele><time>2026-04-16T15:20:19.999Z</time></trkpt><trkpt lat="50.95515803868746" lon="4.952345094684705"><ele>43.0</ele><time>2026-04-16T15:20:21.999Z</time></trkpt><trkpt lat="50.955018146291295" lon="4.952395280231315"><ele>43.0</ele><time>2026-04-16T15:20:23.999Z</time></trkpt><trkpt lat="50.954917183878976" lon="4.952413452884081"><ele>43.0</ele><time>2026-04-16T15:20:24.999Z</time></trkpt><trkpt lat="50.95480604951606" lon="4.952459872336715"><ele>42.75</ele><time>2026-04-16T15:20:25.999Z</time></trkpt><trkpt lat="50.954693259254384" lon="4.952519000217309"><ele>42.5</ele><time>2026-04-16T15:20:26.999Z</time></trkpt><trkpt lat="50.95457704509742" lon="4.9525819293614575"><ele>42.25</ele><time>2026-04-16T15:20:27.999Z</time></trkpt><trkpt lat="50.95445226612827" lon="4.952647659826787"><ele>42.0</ele><time>2026-04-16T15:20:28.999Z</time></trkpt><trkpt lat="50.9543321124532" lon="4.952712425932495"><ele>41.8</ele><time>2026-04-16T15:20:29.999Z</time></trkpt><trkpt lat="50.95422469053083" lon="4.9527797007939185"><ele>41.6</ele><time>2026-04-16T15:20:30.999Z</time></trkpt><trkpt lat="50.954127993859835" lon="4.952866070151147"><ele>41.4</ele><time>2026-04-16T15:20:31.999Z</time></trkpt><trkpt lat="50.954050266873494" lon="4.952947002302817"><ele>41.199999999999996</ele><time>2026-04-16T15:20:32.999Z</time></trkpt><trkpt lat="50.953975071261226" lon="4.953027949951977"><ele>41.0</ele><time>2026-04-16T15:20:33.999Z</time></trkpt><trkpt lat="50.95391169857292" lon="4.953089326563463"><ele>40.666666666666664</ele><time>2026-04-16T15:20:34.999Z</time></trkpt><trkpt lat="50.953856993340715" lon="4.95314512425567"><ele>40.33333333333333</ele><time>2026-04-16T15:20:35.999Z</time></trkpt><trkpt lat="50.95379532801649" lon="4.9532025305909695"><ele>40.0</ele><time>2026-04-16T15:20:36.999Z</time></trkpt><trkpt lat="50.953733102983506" lon="4.9532521115222075"><ele>39.666666666666664</ele><time>2026-04-16T15:20:37.999Z</time></trkpt><trkpt lat="50.953669778091175" lon="4.953287697856746"><ele>39.333333333333336</ele><time>2026-04-16T15:20:38.999Z</time></trkpt><trkpt lat="50.953582806070486" lon="4.953308362563365"><ele>39.0</ele><time>2026-04-16T15:20:39.999Z</time></trkpt><trkpt lat="50.95349721151918" lon="4.953377418525336"><ele>39.0</ele><time>2026-04-16T15:20:40.999Z</time></trkpt><trkpt lat="50.95339118803081" lon="4.953420340726373"><ele>39.0</ele><time>2026-04-16T15:20:41.999Z</time></trkpt><trkpt lat="50.953306537296136" lon="4.953470109086584"><ele>39.0</ele><time>2026-04-16T15:20:42.999Z</time></trkpt><trkpt lat="50.95323109568204" lon="4.953539966188982"><ele>39.0</ele><time>2026-04-16T15:20:43.999Z</time></trkpt><trkpt lat="50.95317034911909" lon="4.953644133993493"><ele>39.0</ele><time>2026-04-16T15:20:44.999Z</time></trkpt><trkpt lat="50.95319425264929" lon="4.953835012149623"><ele>39.0</ele><time>2026-04-16T15:20:45.999Z</time></trkpt><trkpt lat="50.953209606397046" lon="4.95401596211504"><ele>39.0</ele><time>2026-04-16T15:20:46.999Z</time></trkpt><trkpt lat="50.95320922067329" lon="4.954201581747726"><ele>39.0</ele><time>2026-04-16T15:20:47.999Z</time></trkpt><trkpt lat="50.95316743823143" lon="4.954390475226166"><ele>39.0</ele><time>2026-04-16T15:20:48.999Z</time></trkpt><trkpt lat="50.95311400837007" lon="4.954595536199871"><ele>41.0</ele><time>2026-04-16T15:20:49.999Z</time></trkpt><trkpt lat="50.95306064116694" lon="4.954823585224969"><ele>43.0</ele><time>2026-04-16T15:20:50.999Z</time></trkpt><trkpt lat="50.95299442695295" lon="4.95504946337023"><ele>45.0</ele><time>2026-04-16T15:20:51.999Z</time></trkpt><trkpt lat="50.95294111758282" lon="4.955270102133334"><ele>45.666666666666664</ele><time>2026-04-16T15:20:52.999Z</time></trkpt><trkpt lat="50.95289027771549" lon="4.955499313357412"><ele>46.33333333333333</ele><time>2026-04-16T15:20:53.999Z</time></trkpt><trkpt lat="50.95285079321571" lon="4.955740330399586"><ele>47.0</ele><time>2026-04-16T15:20:54.999Z</time></trkpt><trkpt lat="50.952809785925474" lon="4.9559981364402335"><ele>47.0</ele><time>2026-04-16T15:20:55.999Z</time></trkpt><trkpt lat="50.952763361837526" lon="4.956255838586498"><ele>47.0</ele><time>2026-04-16T15:20:56.999Z</time></trkpt><trkpt lat="50.95271705657379" lon="4.9565212080298835"><ele>47.0</ele><time>2026-04-16T15:20:57.999Z</time></trkpt><trkpt lat="50.95265471596359" lon="4.956764457586153"><ele>46.33333333333333</ele><time>2026-04-16T15:20:58.999Z</time></trkpt><trkpt lat="50.95261281979894" lon="4.957002074064991"><ele>45.666666666666664</ele><time>2026-04-16T15:20:59.999Z</time></trkpt><trkpt lat="50.95257939294255" lon="4.957241673320099"><ele>45.0</ele><time>2026-04-16T15:21:00.999Z</time></trkpt><trkpt lat="50.952540611887386" lon="4.957474306470418"><ele>45.666666666666664</ele><time>2026-04-16T15:21:01.999Z</time></trkpt><trkpt lat="50.95249702989014" lon="4.957711914590029"><ele>46.33333333333333</ele><time>2026-04-16T15:21:02.998Z</time></trkpt><trkpt lat="50.95244854687892" lon="4.957950878695515"><ele>47.0</ele><time>2026-04-16T15:21:03.998Z</time></trkpt><trkpt lat="50.95240851594525" lon="4.958195912203004"><ele>46.75</ele><time>2026-04-16T15:21:04.998Z</time></trkpt><trkpt lat="50.95236210541366" lon="4.9584426749571175"><ele>46.5</ele><time>2026-04-16T15:21:05.998Z</time></trkpt><trkpt lat="50.95230921967321" lon="4.95865016071624"><ele>46.25</ele><time>2026-04-16T15:21:06.998Z</time></trkpt><trkpt lat="50.952287267130906" lon="4.958851689276593"><ele>46.0</ele><time>2026-04-16T15:21:07.998Z</time></trkpt><trkpt lat="50.95225417898726" lon="4.959025708938663"><ele>46.0</ele><time>2026-04-16T15:21:08.998Z</time></trkpt><trkpt lat="50.95223170304845" lon="4.959185951291165"><ele>46.0</ele><time>2026-04-16T15:21:09.998Z</time></trkpt><trkpt lat="50.95220465800742" lon="4.9593220779968865"><ele>46.0</ele><time>2026-04-16T15:21:10.998Z</time></trkpt><trkpt lat="50.952169857200225" lon="4.959432237703697"><ele>46.0</ele><time>2026-04-16T15:21:11.998Z</time></trkpt><trkpt lat="50.952149260665536" lon="4.959532565545928"><ele>46.0</ele><time>2026-04-16T15:21:12.998Z</time></trkpt><trkpt lat="50.95203896887012" lon="4.959624976555267"><ele>45.833333333333336</ele><time>2026-04-16T15:21:14.998Z</time></trkpt><trkpt lat="50.951966932775825" lon="4.959694325285798"><ele>45.66666666666667</ele><time>2026-04-16T15:21:16.998Z</time></trkpt><trkpt lat="50.951905054259655" lon="4.959732596360822"><ele>45.5</ele><time>2026-04-16T15:21:22.998Z</time></trkpt><trkpt lat="50.95180751987227" lon="4.959879528066352"><ele>45.333333333333336</ele><time>2026-04-16T15:21:24.998Z</time></trkpt><trkpt lat="50.95177295644515" lon="4.959985115245011"><ele>45.166666666666664</ele><time>2026-04-16T15:21:25.998Z</time></trkpt><trkpt lat="50.95172343424289" lon="4.960093217207516"><ele>45.0</ele><time>2026-04-16T15:21:26.998Z</time></trkpt><trkpt lat="50.951691335770946" lon="4.960249073281297"><ele>45.0</ele><time>2026-04-16T15:21:27.998Z</time></trkpt><trkpt lat="50.95164283529497" lon="4.960403843939872"><ele>45.0</ele><time>2026-04-16T15:21:28.998Z</time></trkpt><trkpt lat="50.95158565663686" lon="4.960595700423088"><ele>45.0</ele><time>2026-04-16T15:21:29.998Z</time></trkpt><trkpt lat="50.951508283346925" lon="4.9608507160056625"><ele>45.0</ele><time>2026-04-16T15:21:30.998Z</time></trkpt><trkpt lat="50.95143894690684" lon="4.961074320038665"><ele>45.4</ele><time>2026-04-16T15:21:31.998Z</time></trkpt><trkpt lat="50.95138784652869" lon="4.961249750635668"><ele>45.8</ele><time>2026-04-16T15:21:32.998Z</time></trkpt><trkpt lat="50.95133874459305" lon="4.961412153874659"><ele>46.2</ele><time>2026-04-16T15:21:33.998Z</time></trkpt><trkpt lat="50.95129227081291" lon="4.96156754527665"><ele>46.6</ele><time>2026-04-16T15:21:34.998Z</time></trkpt><trkpt lat="50.95124800498388" lon="4.961713563661749"><ele>47.0</ele><time>2026-04-16T15:21:35.998Z</time></trkpt><trkpt lat="50.9511790655266" lon="4.961836351994222"><ele>47.0</ele><time>2026-04-16T15:21:36.998Z</time></trkpt><trkpt lat="50.951139971854424" lon="4.961971588946983"><ele>47.0</ele><time>2026-04-16T15:21:37.998Z</time></trkpt><trkpt lat="50.951111861702586" lon="4.962110926673965"><ele>47.0</ele><time>2026-04-16T15:21:38.998Z</time></trkpt><trkpt lat="50.95108314709482" lon="4.9622451690998615"><ele>47.0</ele><time>2026-04-16T15:21:39.998Z</time></trkpt><trkpt lat="50.95099665947091" lon="4.9623142267638904"><ele>47.0</ele><time>2026-04-16T15:21:40.998Z</time></trkpt><trkpt lat="50.95090503096066" lon="4.96240654649007"><ele>47.25</ele><time>2026-04-16T15:21:41.998Z</time></trkpt><trkpt lat="50.950815228297024" lon="4.962515105536659"><ele>47.5</ele><time>2026-04-16T15:21:42.998Z</time></trkpt><trkpt lat="50.950707934022624" lon="4.962618395628107"><ele>47.75</ele><time>2026-04-16T15:21:43.998Z</time></trkpt><trkpt lat="50.9505941006316" lon="4.96274288507289"><ele>48.0</ele><time>2026-04-16T15:21:44.998Z</time></trkpt><trkpt lat="50.950473997513384" lon="4.96287577038427"><ele>47.75</ele><time>2026-04-16T15:21:45.998Z</time></trkpt><trkpt lat="50.95035476378837" lon="4.963008180480051"><ele>47.5</ele><time>2026-04-16T15:21:46.998Z</time></trkpt><trkpt lat="50.950243760992244" lon="4.9631248181974446"><ele>47.25</ele><time>2026-04-16T15:21:47.998Z</time></trkpt><trkpt lat="50.95012911108836" lon="4.9632457353770825"><ele>47.0</ele><time>2026-04-16T15:21:48.997Z</time></trkpt><trkpt lat="50.95002477251547" lon="4.963350193212584"><ele>46.400000000000006</ele><time>2026-04-16T15:21:49.997Z</time></trkpt><trkpt lat="50.94993392115333" lon="4.963448054941419"><ele>45.800000000000004</ele><time>2026-04-16T15:21:50.997Z</time></trkpt><trkpt lat="50.949835308836434" lon="4.963538265887739"><ele>45.2</ele><time>2026-04-16T15:21:51.997Z</time></trkpt><trkpt lat="50.94973911179867" lon="4.9635970516901144"><ele>44.6</ele><time>2026-04-16T15:21:52.997Z</time></trkpt><trkpt lat="50.949646268572764" lon="4.963655000287567"><ele>44.0</ele><time>2026-04-16T15:21:53.997Z</time></trkpt><trkpt lat="50.94955795619086" lon="4.963700668504672"><ele>44.0</ele><time>2026-04-16T15:21:54.997Z</time></trkpt><trkpt lat="50.94947885818538" lon="4.963715864459546"><ele>44.0</ele><time>2026-04-16T15:21:56Z</time></trkpt><trkpt lat="50.94942186709309" lon="4.963905582830232"><ele>44.0</ele><time>2026-04-16T15:21:57Z</time></trkpt><trkpt lat="50.94934419038309" lon="4.964022097756118"><ele>44.0</ele><time>2026-04-16T15:21:58Z</time></trkpt><trkpt lat="50.94927082734158" lon="4.964132142443165"><ele>44.0</ele><time>2026-04-16T15:21:59Z</time></trkpt><trkpt lat="50.94920661064994" lon="4.964218995965844"><ele>44.400000000000006</ele><time>2026-04-16T15:22:00Z</time></trkpt><trkpt lat="50.94913783160858" lon="4.964313937849299"><ele>44.8</ele><time>2026-04-16T15:22:01Z</time></trkpt><trkpt lat="50.9490861450756" lon="4.964417581712001"><ele>45.2</ele><time>2026-04-16T15:22:02Z</time></trkpt><trkpt lat="50.949056253223944" lon="4.964549737420814"><ele>45.599999999999994</ele><time>2026-04-16T15:22:03Z</time></trkpt><trkpt lat="50.949073126314055" lon="4.964733740453442"><ele>46.0</ele><time>2026-04-16T15:22:04Z</time></trkpt><trkpt lat="50.94912011046652" lon="4.964923541436205"><ele>45.0</ele><time>2026-04-16T15:22:05Z</time></trkpt><trkpt lat="50.94915510319117" lon="4.965112239659943"><ele>44.0</ele><time>2026-04-16T15:22:06Z</time></trkpt><trkpt lat="50.949175308255015" lon="4.96531828374135"><ele>43.0</ele><time>2026-04-16T15:22:07Z</time></trkpt><trkpt lat="50.94921181480739" lon="4.96553305478838"><ele>42.0</ele><time>2026-04-16T15:22:08Z</time></trkpt><trkpt lat="50.94925102738134" lon="4.965763197646911"><ele>39.666666666666664</ele><time>2026-04-16T15:22:09Z</time></trkpt><trkpt lat="50.949289111873256" lon="4.96600864335736"><ele>37.33333333333333</ele><time>2026-04-16T15:22:10Z</time></trkpt><trkpt lat="50.94934143193465" lon="4.9662709728732235"><ele>35.0</ele><time>2026-04-16T15:22:11Z</time></trkpt><trkpt lat="50.949402266781206" lon="4.966534204062104"><ele>34.33333333333333</ele><time>2026-04-16T15:22:12Z</time></trkpt><trkpt lat="50.94946374732601" lon="4.966811722784078"><ele>33.666666666666664</ele><time>2026-04-16T15:22:13Z</time></trkpt><trkpt lat="50.94952012876839" lon="4.967091590962773"><ele>33.0</ele><time>2026-04-16T15:22:14Z</time></trkpt><trkpt lat="50.9495727933017" lon="4.967365776121659"><ele>33.0</ele><time>2026-04-16T15:22:15Z</time></trkpt><trkpt lat="50.949620411476566" lon="4.967606610994052"><ele>33.0</ele><time>2026-04-16T15:22:16Z</time></trkpt><trkpt lat="50.94966312804816" lon="4.967816107241485"><ele>33.0</ele><time>2026-04-16T15:22:17Z</time></trkpt><trkpt lat="50.94970396130896" lon="4.968014454968771"><ele>33.0</ele><time>2026-04-16T15:22:18Z</time></trkpt><trkpt lat="50.94973897441925" lon="4.96818512259491"><ele>33.0</ele><time>2026-04-16T15:22:18.999Z</time></trkpt><trkpt lat="50.94976924886332" lon="4.968332691997259"><ele>33.0</ele><time>2026-04-16T15:22:19.999Z</time></trkpt><trkpt lat="50.94979613587512" lon="4.968464106112591"><ele>33.0</ele><time>2026-04-16T15:22:20.999Z</time></trkpt><trkpt lat="50.94981953075336" lon="4.968578588790447"><ele>33.0</ele><time>2026-04-16T15:22:21.999Z</time></trkpt><trkpt lat="50.949842369941564" lon="4.9686857788096885"><ele>33.0</ele><time>2026-04-16T15:22:22.999Z</time></trkpt><trkpt lat="50.94986417867394" lon="4.968785445757267"><ele>33.0</ele><time>2026-04-16T15:22:23.999Z</time></trkpt><trkpt lat="50.949805138869245" lon="4.968857166495542"><ele>33.5</ele><time>2026-04-16T15:22:25.999Z</time></trkpt><trkpt lat="50.949705863322066" lon="4.969001469815954"><ele>34.0</ele><time>2026-04-16T15:22:27.999Z</time></trkpt><trkpt lat="50.949632823398396" lon="4.969108947481396"><ele>34.5</ele><time>2026-04-16T15:22:28.999Z</time></trkpt><trkpt lat="50.949554170447996" lon="4.969226850794061"><ele>35.0</ele><time>2026-04-16T15:22:29.999Z</time></trkpt><trkpt lat="50.949464946452785" lon="4.969361089234702"><ele>36.0</ele><time>2026-04-16T15:22:30.999Z</time></trkpt><trkpt lat="50.94936815660409" lon="4.969529914658813"><ele>37.0</ele><time>2026-04-16T15:22:31.999Z</time></trkpt><trkpt lat="50.94926050499219" lon="4.969696018875426"><ele>38.0</ele><time>2026-04-16T15:22:32.999Z</time></trkpt><trkpt lat="50.94914627697137" lon="4.9698625115394846"><ele>39.0</ele><time>2026-04-16T15:22:33.999Z</time></trkpt><trkpt lat="50.94902640405485" lon="4.970040323452447"><ele>39.333333333333336</ele><time>2026-04-16T15:22:34.999Z</time></trkpt><trkpt lat="50.94890241467789" lon="4.970225024038837"><ele>39.66666666666667</ele><time>2026-04-16T15:22:35.999Z</time></trkpt><trkpt lat="50.94877797595604" lon="4.970418279462425"><ele>40.0</ele><time>2026-04-16T15:22:36.999Z</time></trkpt><trkpt lat="50.94863748636352" lon="4.970600820228607"><ele>40.0</ele><time>2026-04-16T15:22:37.999Z</time></trkpt><trkpt lat="50.948520088769776" lon="4.970817049650709"><ele>40.0</ele><time>2026-04-16T15:22:38.999Z</time></trkpt><trkpt lat="50.9483721178943" lon="4.971007908035412"><ele>40.0</ele><time>2026-04-16T15:22:39.999Z</time></trkpt><trkpt lat="50.94823250121974" lon="4.971213845491836"><ele>38.0</ele><time>2026-04-16T15:22:40.999Z</time></trkpt><trkpt lat="50.948090335111" lon="4.97142389842145"><ele>36.0</ele><time>2026-04-16T15:22:41.999Z</time></trkpt><trkpt lat="50.94794571935351" lon="4.971638304736815"><ele>34.0</ele><time>2026-04-16T15:22:42.999Z</time></trkpt><trkpt lat="50.94781527987071" lon="4.971839381709418"><ele>34.0</ele><time>2026-04-16T15:22:43.999Z</time></trkpt><trkpt lat="50.94770217281446" lon="4.972051607599116"><ele>34.0</ele><time>2026-04-16T15:22:44.999Z</time></trkpt><trkpt lat="50.947569299486055" lon="4.972237451912688"><ele>34.0</ele><time>2026-04-16T15:22:45.999Z</time></trkpt><trkpt lat="50.94744266223538" lon="4.9723849788142465"><ele>34.0</ele><time>2026-04-16T15:22:46.999Z</time></trkpt><trkpt lat="50.94733459327953" lon="4.972538569882966"><ele>34.0</ele><time>2026-04-16T15:22:47.999Z</time></trkpt><trkpt lat="50.94723084220009" lon="4.972683084275623"><ele>34.0</ele><time>2026-04-16T15:22:48.999Z</time></trkpt><trkpt lat="50.94712899941952" lon="4.97282043941985"><ele>34.0</ele><time>2026-04-16T15:22:49.999Z</time></trkpt><trkpt lat="50.94703172635213" lon="4.972954165148132"><ele>34.0</ele><time>2026-04-16T15:22:50.999Z</time></trkpt><trkpt lat="50.946946341533746" lon="4.973071859295617"><ele>34.0</ele><time>2026-04-16T15:22:51.999Z</time></trkpt><trkpt lat="50.94688137241541" lon="4.9731938274483865"><ele>34.0</ele><time>2026-04-16T15:22:52.999Z</time></trkpt><trkpt lat="50.946814341602426" lon="4.973270430336369"><ele>34.0</ele><time>2026-04-16T15:22:53.999Z</time></trkpt><trkpt lat="50.94675923358423" lon="4.973351486888701"><ele>34.0</ele><time>2026-04-16T15:22:54.999Z</time></trkpt><trkpt lat="50.946675692014196" lon="4.973418462353891"><ele>34.4</ele><time>2026-04-16T15:22:56.999Z</time></trkpt><trkpt lat="50.94659352881715" lon="4.973455880141295"><ele>34.8</ele><time>2026-04-16T15:22:58.999Z</time></trkpt><trkpt lat="50.94658663544239" lon="4.97362983405748"><ele>35.2</ele><time>2026-04-16T15:22:59.999Z</time></trkpt><trkpt lat="50.94661148416181" lon="4.973757575335548"><ele>35.6</ele><time>2026-04-16T15:23:00.999Z</time></trkpt><trkpt lat="50.94664077899387" lon="4.973898745664531"><ele>36.0</ele><time>2026-04-16T15:23:01.999Z</time></trkpt><trkpt lat="50.94666676182628" lon="4.9740604336444925"><ele>35.8</ele><time>2026-04-16T15:23:02.999Z</time></trkpt><trkpt lat="50.94668815548986" lon="4.974217294877838"><ele>35.6</ele><time>2026-04-16T15:23:03.998Z</time></trkpt><trkpt lat="50.946699783014154" lon="4.974393656324627"><ele>35.4</ele><time>2026-04-16T15:23:04.998Z</time></trkpt><trkpt lat="50.94670283249145" lon="4.974566457396246"><ele>35.2</ele><time>2026-04-16T15:23:05.998Z</time></trkpt><trkpt lat="50.94670531266263" lon="4.974744688509701"><ele>35.0</ele><time>2026-04-16T15:23:06.998Z</time></trkpt><trkpt lat="50.946706133559864" lon="4.9749250556756035"><ele>34.8</ele><time>2026-04-16T15:23:07.998Z</time></trkpt><trkpt lat="50.946707366126276" lon="4.975099968354523"><ele>34.6</ele><time>2026-04-16T15:23:08.998Z</time></trkpt><trkpt lat="50.94670979251919" lon="4.975257713047452"><ele>34.4</ele><time>2026-04-16T15:23:09.998Z</time></trkpt><trkpt lat="50.94671425442338" lon="4.975420785826489"><ele>34.2</ele><time>2026-04-16T15:23:10.998Z</time></trkpt><trkpt lat="50.94671762116933" lon="4.9755798306960575"><ele>34.0</ele><time>2026-04-16T15:23:11.998Z</time></trkpt><trkpt lat="50.9467131693852" lon="4.975736441254259"><ele>34.2</ele><time>2026-04-16T15:23:12.998Z</time></trkpt><trkpt lat="50.946721736187925" lon="4.975886547026264"><ele>34.4</ele><time>2026-04-16T15:23:13.998Z</time></trkpt><trkpt lat="50.9467210528722" lon="4.976049287215957"><ele>34.6</ele><time>2026-04-16T15:23:14.998Z</time></trkpt><trkpt lat="50.94671939882669" lon="4.9762078758152875"><ele>34.8</ele><time>2026-04-16T15:23:15.998Z</time></trkpt><trkpt lat="50.946711280105816" lon="4.976368362611256"><ele>35.0</ele><time>2026-04-16T15:23:16.998Z</time></trkpt><trkpt lat="50.94670843582824" lon="4.976530429802379"><ele>35.2</ele><time>2026-04-16T15:23:17.998Z</time></trkpt><trkpt lat="50.94669872555313" lon="4.976692004312252"><ele>35.4</ele><time>2026-04-16T15:23:18.998Z</time></trkpt><trkpt lat="50.94668805442718" lon="4.976857247324346"><ele>35.6</ele><time>2026-04-16T15:23:19.998Z</time></trkpt><trkpt lat="50.946671473602485" lon="4.977014741740928"><ele>35.8</ele><time>2026-04-16T15:23:20.998Z</time></trkpt><trkpt lat="50.94665810118234" lon="4.977185098621353"><ele>36.0</ele><time>2026-04-16T15:23:21.998Z</time></trkpt><trkpt lat="50.946641313927685" lon="4.977347818831887"><ele>36.0</ele><time>2026-04-16T15:23:22.998Z</time></trkpt><trkpt lat="50.94662574240239" lon="4.97750439649799"><ele>36.0</ele><time>2026-04-16T15:23:23.998Z</time></trkpt><trkpt lat="50.94661731611939" lon="4.977675455631212"><ele>36.0</ele><time>2026-04-16T15:23:24.998Z</time></trkpt><trkpt lat="50.94661200836304" lon="4.97783933679372"><ele>36.0</ele><time>2026-04-16T15:23:25.998Z</time></trkpt><trkpt lat="50.94660703165009" lon="4.978004856291682"><ele>36.0</ele><time>2026-04-16T15:23:26.998Z</time></trkpt><trkpt lat="50.94661426930761" lon="4.978176655568711"><ele>36.0</ele><time>2026-04-16T15:23:27.998Z</time></trkpt><trkpt lat="50.946617800444265" lon="4.9783406377381"><ele>36.0</ele><time>2026-04-16T15:23:28.998Z</time></trkpt><trkpt lat="50.94662737809165" lon="4.978509007036576"><ele>36.0</ele><time>2026-04-16T15:23:29.998Z</time></trkpt><trkpt lat="50.94663447035753" lon="4.978678346417474"><ele>36.0</ele><time>2026-04-16T15:23:30.998Z</time></trkpt><trkpt lat="50.94664290660401" lon="4.978848145465975"><ele>36.0</ele><time>2026-04-16T15:23:31.998Z</time></trkpt><trkpt lat="50.946649992858426" lon="4.979018130312823"><ele>36.0</ele><time>2026-04-16T15:23:32.998Z</time></trkpt><trkpt lat="50.94665612084227" lon="4.979185643613858"><ele>36.0</ele><time>2026-04-16T15:23:33.998Z</time></trkpt><trkpt lat="50.94665986560351" lon="4.9793474209217825"><ele>36.0</ele><time>2026-04-16T15:23:34.998Z</time></trkpt><trkpt lat="50.94667064953249" lon="4.979503667518727"><ele>36.0</ele><time>2026-04-16T15:23:35.998Z</time></trkpt><trkpt lat="50.94667824652251" lon="4.979667448538702"><ele>36.0</ele><time>2026-04-16T15:23:36.998Z</time></trkpt><trkpt lat="50.946689410809455" lon="4.979839952379851"><ele>36.0</ele><time>2026-04-16T15:23:37.998Z</time></trkpt><trkpt lat="50.9467015434883" lon="4.979997216422998"><ele>36.0</ele><time>2026-04-16T15:23:38.998Z</time></trkpt><trkpt lat="50.946716423945844" lon="4.980144983076156"><ele>36.0</ele><time>2026-04-16T15:23:39.998Z</time></trkpt><trkpt lat="50.94672857540813" lon="4.980252383397332"><ele>36.0</ele><time>2026-04-16T15:23:40.998Z</time></trkpt><trkpt lat="50.94674619865928" lon="4.9803490070305045"><ele>36.0</ele><time>2026-04-16T15:23:41.998Z</time></trkpt><trkpt lat="50.9467571085856" lon="4.980462102561214"><ele>36.0</ele><time>2026-04-16T15:23:43.998Z</time></trkpt><trkpt lat="50.9467038934666" lon="4.980574044941249"><ele>36.0</ele><time>2026-04-16T15:23:45.998Z</time></trkpt><trkpt lat="50.94663074594617" lon="4.98060024663408"><ele>36.0</ele><time>2026-04-16T15:23:46.998Z</time></trkpt><trkpt lat="50.946558406517696" lon="4.980635720711561"><ele>36.0</ele><time>2026-04-16T15:23:47.998Z</time></trkpt><trkpt lat="50.94649289210562" lon="4.980682801332381"><ele>36.0</ele><time>2026-04-16T15:23:48.998Z</time></trkpt><trkpt lat="50.946439090962286" lon="4.980751019865418"><ele>36.0</ele><time>2026-04-16T15:23:50.997Z</time></trkpt><trkpt lat="50.946363313815446" lon="4.980787877182735"><ele>36.0</ele><time>2026-04-16T15:23:58.997Z</time></trkpt><trkpt lat="50.94639866032174" lon="4.981097463991083"><ele>36.2</ele><time>2026-04-16T15:24:00.997Z</time></trkpt><trkpt lat="50.946448954469076" lon="4.981228191561621"><ele>36.400000000000006</ele><time>2026-04-16T15:24:02Z</time></trkpt><trkpt lat="50.94649372932007" lon="4.981362854584218"><ele>36.6</ele><time>2026-04-16T15:24:03Z</time></trkpt><trkpt lat="50.946536905709664" lon="4.981522294579581"><ele>36.800000000000004</ele><time>2026-04-16T15:24:04Z</time></trkpt><trkpt lat="50.94658448468397" lon="4.981693819452493"><ele>37.0</ele><time>2026-04-16T15:24:05Z</time></trkpt><trkpt lat="50.94663545949028" lon="4.981865158654293"><ele>37.0</ele><time>2026-04-16T15:24:06Z</time></trkpt><trkpt lat="50.94669178205583" lon="4.982049431279235"><ele>37.0</ele><time>2026-04-16T15:24:07Z</time></trkpt><trkpt lat="50.94674964024204" lon="4.9822258312421335"><ele>37.0</ele><time>2026-04-16T15:24:08Z</time></trkpt><trkpt lat="50.946802693414654" lon="4.982385015053443"><ele>37.0</ele><time>2026-04-16T15:24:09Z</time></trkpt><trkpt lat="50.94684420071054" lon="4.982512130971515"><ele>37.0</ele><time>2026-04-16T15:24:10Z</time></trkpt><trkpt lat="50.94688101136779" lon="4.982621663053381"><ele>37.0</ele><time>2026-04-16T15:24:11Z</time></trkpt><trkpt lat="50.946907233000495" lon="4.982721226999489"><ele>37.0</ele><time>2026-04-16T15:24:12Z</time></trkpt><trkpt lat="50.946897085057834" lon="4.982833501856429"><ele>37.0</ele><time>2026-04-16T15:24:14Z</time></trkpt><trkpt lat="50.94677213037692" lon="4.98286853603486"><ele>37.0</ele><time>2026-04-16T15:24:15Z</time></trkpt><trkpt lat="50.94669441490012" lon="4.98289193436316"><ele>37.0</ele><time>2026-04-16T15:24:16Z</time></trkpt><trkpt lat="50.946613009115424" lon="4.982936949693455"><ele>37.0</ele><time>2026-04-16T15:24:17Z</time></trkpt><trkpt lat="50.946509291617616" lon="4.982957154843699"><ele>37.0</ele><time>2026-04-16T15:24:18Z</time></trkpt><trkpt lat="50.94640437144028" lon="4.982993173080348"><ele>37.0</ele><time>2026-04-16T15:24:19Z</time></trkpt><trkpt lat="50.94628795901506" lon="4.983000414401139"><ele>37.0</ele><time>2026-04-16T15:24:20Z</time></trkpt><trkpt lat="50.94616376944328" lon="4.983040389152101"><ele>37.0</ele><time>2026-04-16T15:24:20.999Z</time></trkpt><trkpt lat="50.946032405992426" lon="4.983106803728738"><ele>37.0</ele><time>2026-04-16T15:24:21.999Z</time></trkpt><trkpt lat="50.94589308142967" lon="4.983146824545971"><ele>37.0</ele><time>2026-04-16T15:24:22.999Z</time></trkpt><trkpt lat="50.945751923346975" lon="4.983193304103067"><ele>37.0</ele><time>2026-04-16T15:24:23.999Z</time></trkpt><trkpt lat="50.945605785170414" lon="4.98323866860898"><ele>37.66666666666667</ele><time>2026-04-16T15:24:24.999Z</time></trkpt><trkpt lat="50.94545701767588" lon="4.983260774060521"><ele>38.333333333333336</ele><time>2026-04-16T15:24:25.999Z</time></trkpt><trkpt lat="50.945305022709405" lon="4.983309655413943"><ele>39.0</ele><time>2026-04-16T15:24:26.999Z</time></trkpt><trkpt lat="50.94514919896173" lon="4.9833517514529735"><ele>40.0</ele><time>2026-04-16T15:24:27.999Z</time></trkpt><trkpt lat="50.94500158533723" lon="4.983456431071314"><ele>41.0</ele><time>2026-04-16T15:24:28.999Z</time></trkpt><trkpt lat="50.94484851453088" lon="4.983529576786381"><ele>42.0</ele><time>2026-04-16T15:24:29.999Z</time></trkpt><trkpt lat="50.94469360279708" lon="4.983588564697807"><ele>42.0</ele><time>2026-04-16T15:24:30.999Z</time></trkpt><trkpt lat="50.944538076578795" lon="4.983646607372051"><ele>42.0</ele><time>2026-04-16T15:24:31.999Z</time></trkpt><trkpt lat="50.944394002069664" lon="4.983694093337552"><ele>42.0</ele><time>2026-04-16T15:24:32.999Z</time></trkpt><trkpt lat="50.94426436717046" lon="4.98374245673858"><ele>42.0</ele><time>2026-04-16T15:24:33.999Z</time></trkpt><trkpt lat="50.94414485261827" lon="4.983760732930555"><ele>42.5</ele><time>2026-04-16T15:24:34.999Z</time></trkpt><trkpt lat="50.944025097996644" lon="4.983802686359362"><ele>43.0</ele><time>2026-04-16T15:24:35.999Z</time></trkpt><trkpt lat="50.94392054450171" lon="4.9838738086221"><ele>43.5</ele><time>2026-04-16T15:24:36.999Z</time></trkpt><trkpt lat="50.94380982505717" lon="4.9839487044797535"><ele>44.0</ele><time>2026-04-16T15:24:37.999Z</time></trkpt><trkpt lat="50.94369794811433" lon="4.984026964458284"><ele>44.0</ele><time>2026-04-16T15:24:38.999Z</time></trkpt><trkpt lat="50.94358836947608" lon="4.9840828524777185"><ele>44.0</ele><time>2026-04-16T15:24:39.999Z</time></trkpt><trkpt lat="50.94347362024724" lon="4.984143188286314"><ele>44.0</ele><time>2026-04-16T15:24:40.999Z</time></trkpt><trkpt lat="50.943368365779214" lon="4.984214221012717"><ele>44.0</ele><time>2026-04-16T15:24:41.999Z</time></trkpt><trkpt lat="50.94325862524076" lon="4.9843022845808935"><ele>45.5</ele><time>2026-04-16T15:24:42.999Z</time></trkpt><trkpt lat="50.94315311064219" lon="4.9843730396016985"><ele>47.0</ele><time>2026-04-16T15:24:43.999Z</time></trkpt><trkpt lat="50.94304648367824" lon="4.984431043191203"><ele>48.5</ele><time>2026-04-16T15:24:44.999Z</time></trkpt><trkpt lat="50.942938932425385" lon="4.984507311017065"><ele>50.0</ele><time>2026-04-16T15:24:45.999Z</time></trkpt><trkpt lat="50.94283290039754" lon="4.9846247850200465"><ele>50.0</ele><time>2026-04-16T15:24:46.999Z</time></trkpt><trkpt lat="50.942729456115146" lon="4.984759880715178"><ele>50.0</ele><time>2026-04-16T15:24:47.999Z</time></trkpt><trkpt lat="50.94262739373614" lon="4.984863665935113"><ele>50.0</ele><time>2026-04-16T15:24:48.999Z</time></trkpt><trkpt lat="50.94252082769822" lon="4.98494282188361"><ele>50.0</ele><time>2026-04-16T15:24:49.999Z</time></trkpt><trkpt lat="50.94242348277867" lon="4.98502972200928"><ele>51.5</ele><time>2026-04-16T15:24:50.999Z</time></trkpt><trkpt lat="50.942323884697316" lon="4.985154436609066"><ele>53.0</ele><time>2026-04-16T15:24:51.999Z</time></trkpt><trkpt lat="50.94222734143816" lon="4.985271083583622"><ele>54.5</ele><time>2026-04-16T15:24:52.999Z</time></trkpt><trkpt lat="50.94212167745263" lon="4.985366177560722"><ele>56.0</ele><time>2026-04-16T15:24:53.999Z</time></trkpt><trkpt lat="50.94201228289406" lon="4.985446728785532"><ele>56.0</ele><time>2026-04-16T15:24:54.999Z</time></trkpt><trkpt lat="50.941903806304886" lon="4.9855191535090455"><ele>56.0</ele><time>2026-04-16T15:24:55.999Z</time></trkpt><trkpt lat="50.94178984926727" lon="4.985593468689961"><ele>56.0</ele><time>2026-04-16T15:24:56.999Z</time></trkpt><trkpt lat="50.94167771398843" lon="4.9856821973929675"><ele>56.0</ele><time>2026-04-16T15:24:57.999Z</time></trkpt><trkpt lat="50.94154584917987" lon="4.98575066850644"><ele>57.5</ele><time>2026-04-16T15:24:58.999Z</time></trkpt><trkpt lat="50.94143986093027" lon="4.985837065886446"><ele>59.0</ele><time>2026-04-16T15:24:59.999Z</time></trkpt><trkpt lat="50.94132283573993" lon="4.9859242020395635"><ele>60.5</ele><time>2026-04-16T15:25:00.999Z</time></trkpt><trkpt lat="50.94122121381465" lon="4.986036647617959"><ele>62.0</ele><time>2026-04-16T15:25:01.999Z</time></trkpt><trkpt lat="50.941118211568195" lon="4.98616397181102"><ele>62.5</ele><time>2026-04-16T15:25:02.999Z</time></trkpt><trkpt lat="50.9410239994656" lon="4.986306156797616"><ele>63.0</ele><time>2026-04-16T15:25:03.999Z</time></trkpt><trkpt lat="50.940933740637114" lon="4.9864504030506245"><ele>63.5</ele><time>2026-04-16T15:25:04.999Z</time></trkpt><trkpt lat="50.94085400060438" lon="4.986604438177834"><ele>64.0</ele><time>2026-04-16T15:25:05.998Z</time></trkpt><trkpt lat="50.94076813166808" lon="4.986764138490798"><ele>65.0</ele><time>2026-04-16T15:25:06.998Z</time></trkpt><trkpt lat="50.940697993378755" lon="4.98693411490898"><ele>66.0</ele><time>2026-04-16T15:25:07.998Z</time></trkpt><trkpt lat="50.94064333648559" lon="4.987122810233275"><ele>67.0</ele><time>2026-04-16T15:25:08.998Z</time></trkpt><trkpt lat="50.94058662092862" lon="4.987320815048325"><ele>68.0</ele><time>2026-04-16T15:25:09.998Z</time></trkpt><trkpt lat="50.9405251286864" lon="4.987522606029953"><ele>68.0</ele><time>2026-04-16T15:25:10.998Z</time></trkpt><trkpt lat="50.940465175414495" lon="4.987715935788889"><ele>68.0</ele><time>2026-04-16T15:25:11.998Z</time></trkpt><trkpt lat="50.94040321766908" lon="4.987914483659166"><ele>68.0</ele><time>2026-04-16T15:25:12.998Z</time></trkpt><trkpt lat="50.94034354889575" lon="4.988124200945726"><ele>68.0</ele><time>2026-04-16T15:25:13.998Z</time></trkpt><trkpt lat="50.940285584972166" lon="4.988318255594716"><ele>67.5</ele><time>2026-04-16T15:25:14.998Z</time></trkpt><trkpt lat="50.940222485247624" lon="4.988492928325333"><ele>67.0</ele><time>2026-04-16T15:25:15.998Z</time></trkpt><trkpt lat="50.940156696343905" lon="4.988675964370195"><ele>66.5</ele><time>2026-04-16T15:25:16.998Z</time></trkpt><trkpt lat="50.94008891901664" lon="4.988862141314554"><ele>66.0</ele><time>2026-04-16T15:25:17.998Z</time></trkpt><trkpt lat="50.94001820879093" lon="4.98904497418832"><ele>65.5</ele><time>2026-04-16T15:25:18.998Z</time></trkpt><trkpt lat="50.939938820414866" lon="4.989238797384765"><ele>65.0</ele><time>2026-04-16T15:25:19.998Z</time></trkpt><trkpt lat="50.93987236005084" lon="4.989425007473428"><ele>64.5</ele><time>2026-04-16T15:25:20.998Z</time></trkpt><trkpt lat="50.93981888867775" lon="4.9896067645556625"><ele>64.0</ele><time>2026-04-16T15:25:21.998Z</time></trkpt><trkpt lat="50.93974683683555" lon="4.989810347406206"><ele>63.25</ele><time>2026-04-16T15:25:22.998Z</time></trkpt><trkpt lat="50.939675933661846" lon="4.990017525557184"><ele>62.5</ele><time>2026-04-16T15:25:23.998Z</time></trkpt><trkpt lat="50.9396224978002" lon="4.990220597808229"><ele>61.75</ele><time>2026-04-16T15:25:24.998Z</time></trkpt><trkpt lat="50.93957821471001" lon="4.990407826093378"><ele>61.0</ele><time>2026-04-16T15:25:25.998Z</time></trkpt><trkpt lat="50.93953502695502" lon="4.9905784459425435"><ele>60.99999999999999</ele><time>2026-04-16T15:25:26.998Z</time></trkpt><trkpt lat="50.93948626746997" lon="4.990715550324068"><ele>61.0</ele><time>2026-04-16T15:25:27.998Z</time></trkpt><trkpt lat="50.93943958382929" lon="4.990835039137332"><ele>61.0</ele><time>2026-04-16T15:25:28.998Z</time></trkpt><trkpt lat="50.939399248050506" lon="4.990955337475269"><ele>61.0</ele><time>2026-04-16T15:25:29.998Z</time></trkpt><trkpt lat="50.93937356824444" lon="4.991051041306102"><ele>60.99999999999999</ele><time>2026-04-16T15:25:30.998Z</time></trkpt><trkpt lat="50.939367940111055" lon="4.991152913519799"><ele>61.0</ele><time>2026-04-16T15:25:31.998Z</time></trkpt><trkpt lat="50.939423995123846" lon="4.991302852354489"><ele>60.666666666666664</ele><time>2026-04-16T15:25:33.998Z</time></trkpt><trkpt lat="50.93950615547514" lon="4.991346742671118"><ele>60.33333333333333</ele><time>2026-04-16T15:25:34.998Z</time></trkpt><trkpt lat="50.93958398471182" lon="4.991404939571924"><ele>60.0</ele><time>2026-04-16T15:25:35.998Z</time></trkpt><trkpt lat="50.93962937371874" lon="4.9914754269064945"><ele>59.66666666666667</ele><time>2026-04-16T15:25:36.998Z</time></trkpt><trkpt lat="50.939649834969096" lon="4.991628286506851"><ele>59.333333333333336</ele><time>2026-04-16T15:25:38.998Z</time></trkpt><trkpt lat="50.939612240763665" lon="4.991781629176812"><ele>59.0</ele><time>2026-04-16T15:25:40.998Z</time></trkpt><trkpt lat="50.93961664456811" lon="4.99188800618391"><ele>58.0</ele><time>2026-04-16T15:25:54.997Z</time></trkpt><trkpt lat="50.939646569521976" lon="4.99197893856985"><ele>57.00000000000001</ele><time>2026-04-16T15:25:55.997Z</time></trkpt><trkpt lat="50.939710243519734" lon="4.992028226258768"><ele>56.00000000000001</ele><time>2026-04-16T15:25:56.997Z</time></trkpt><trkpt lat="50.93979076168018" lon="4.992057004761361"><ele>55.0</ele><time>2026-04-16T15:25:57.997Z</time></trkpt><trkpt lat="50.93971441385346" lon="4.992326877658462"><ele>54.0</ele><time>2026-04-16T15:26:00.998Z</time></trkpt><trkpt lat="50.93968922908298" lon="4.992479725619412"><ele>52.75</ele><time>2026-04-16T15:26:01.998Z</time></trkpt><trkpt lat="50.93962580858413" lon="4.992640608076009"><ele>51.5</ele><time>2026-04-16T15:26:02.998Z</time></trkpt><trkpt lat="50.939584268397944" lon="4.992850325018314"><ele>50.25</ele><time>2026-04-16T15:26:03.998Z</time></trkpt><trkpt lat="50.93951806946106" lon="4.993080988261251"><ele>49.0</ele><time>2026-04-16T15:26:04.998Z</time></trkpt><trkpt lat="50.939444659632" lon="4.9933331149203815"><ele>47.33333333333333</ele><time>2026-04-16T15:26:05.998Z</time></trkpt><trkpt lat="50.93936681731997" lon="4.993608245522455"><ele>45.666666666666664</ele><time>2026-04-16T15:26:06.998Z</time></trkpt><trkpt lat="50.93928264666358" lon="4.993906103829556"><ele>44.0</ele><time>2026-04-16T15:26:08.001Z</time></trkpt><trkpt lat="50.939198479252084" lon="4.994220627348797"><ele>43.5</ele><time>2026-04-16T15:26:09.001Z</time></trkpt><trkpt lat="50.93910803081503" lon="4.994541234482828"><ele>43.0</ele><time>2026-04-16T15:26:10.001Z</time></trkpt><trkpt lat="50.939016876192525" lon="4.994874198302929"><ele>41.0</ele><time>2026-04-16T15:26:11.001Z</time></trkpt><trkpt lat="50.93891768684633" lon="4.995214004661793"><ele>39.0</ele><time>2026-04-16T15:26:12.001Z</time></trkpt><trkpt lat="50.93881903884749" lon="4.995565136354012"><ele>38.5</ele><time>2026-04-16T15:26:13.001Z</time></trkpt><trkpt lat="50.938702128042486" lon="4.995914412108384"><ele>38.0</ele><time>2026-04-16T15:26:14.001Z</time></trkpt><trkpt lat="50.93859765447277" lon="4.996279230682133"><ele>38.0</ele><time>2026-04-16T15:26:15.001Z</time></trkpt><trkpt lat="50.93850819090197" lon="4.9966544870423535"><ele>38.0</ele><time>2026-04-16T15:26:16.001Z</time></trkpt><trkpt lat="50.93840112620877" lon="4.997016214378722"><ele>37.5</ele><time>2026-04-16T15:26:17.001Z</time></trkpt><trkpt lat="50.938297827990056" lon="4.9973823341467725"><ele>37.0</ele><time>2026-04-16T15:26:18.001Z</time></trkpt><trkpt lat="50.938178609876914" lon="4.9977448761386505"><ele>36.0</ele><time>2026-04-16T15:26:19.001Z</time></trkpt><trkpt lat="50.938071916224146" lon="4.998118340011185"><ele>35.0</ele><time>2026-04-16T15:26:20.001Z</time></trkpt><trkpt lat="50.937968882576804" lon="4.998494142312993"><ele>34.666666666666664</ele><time>2026-04-16T15:26:21.001Z</time></trkpt><trkpt lat="50.937905134904035" lon="4.99874661559831"><ele>34.333333333333336</ele><time>2026-04-16T15:26:22.001Z</time></trkpt><trkpt lat="50.93781988553166" lon="4.998985400082148"><ele>34.0</ele><time>2026-04-16T15:26:23Z</time></trkpt><trkpt lat="50.93774228991435" lon="4.99924030619978"><ele>33.5</ele><time>2026-04-16T15:26:24Z</time></trkpt><trkpt lat="50.93767769958001" lon="4.999464325019335"><ele>33.0</ele><time>2026-04-16T15:26:25Z</time></trkpt><trkpt lat="50.93762484851387" lon="4.999650741008701"><ele>32.5</ele><time>2026-04-16T15:26:26Z</time></trkpt><trkpt lat="50.937588323284785" lon="4.999838522022349"><ele>32.0</ele><time>2026-04-16T15:26:27Z</time></trkpt><trkpt lat="50.93753481535775" lon="4.999994559265178"><ele>31.999999999999996</ele><time>2026-04-16T15:26:28Z</time></trkpt><trkpt lat="50.93748955542949" lon="5.000145827141742"><ele>32.0</ele><time>2026-04-16T15:26:29Z</time></trkpt><trkpt lat="50.93746210730586" lon="5.000268660153374"><ele>32.0</ele><time>2026-04-16T15:26:30Z</time></trkpt><trkpt lat="50.93742508373732" lon="5.000389420484274"><ele>32.0</ele><time>2026-04-16T15:26:31Z</time></trkpt><trkpt lat="50.93739583457047" lon="5.000483361336901"><ele>31.999999999999996</ele><time>2026-04-16T15:26:32Z</time></trkpt><trkpt lat="50.93734185463426" lon="5.000627772011009"><ele>32.0</ele><time>2026-04-16T15:26:34Z</time></trkpt><trkpt lat="50.93741941411205" lon="5.000848449261887"><ele>32.2</ele><time>2026-04-16T15:26:37Z</time></trkpt><trkpt lat="50.937500674394286" lon="5.000948027008825"><ele>32.400000000000006</ele><time>2026-04-16T15:26:39Z</time></trkpt><trkpt lat="50.93758636498761" lon="5.001052916290842"><ele>32.599999999999994</ele><time>2026-04-16T15:26:41Z</time></trkpt><trkpt lat="50.93767585338089" lon="5.001136305298126"><ele>32.8</ele><time>2026-04-16T15:26:43Z</time></trkpt><trkpt lat="50.93768440662145" lon="5.001290560173288"><ele>33.0</ele><time>2026-04-16T15:26:46Z</time></trkpt><trkpt lat="50.93761627029763" lon="5.001381444227245"><ele>33.0</ele><time>2026-04-16T15:26:48Z</time></trkpt><trkpt lat="50.9375808769043" lon="5.0014801256305494"><ele>33.0</ele><time>2026-04-16T15:26:49Z</time></trkpt><trkpt lat="50.93752605873402" lon="5.001554090508965"><ele>33.0</ele><time>2026-04-16T15:26:50Z</time></trkpt><trkpt lat="50.937478881145104" lon="5.001644378683856"><ele>33.0</ele><time>2026-04-16T15:26:51Z</time></trkpt><trkpt lat="50.93744349263013" lon="5.001753580727907"><ele>33.0</ele><time>2026-04-16T15:26:52Z</time></trkpt><trkpt lat="50.93739501967719" lon="5.001846188853004"><ele>33.0</ele><time>2026-04-16T15:26:53Z</time></trkpt><trkpt lat="50.93734309039463" lon="5.001905916921799"><ele>33.0</ele><time>2026-04-16T15:26:54Z</time></trkpt><trkpt lat="50.93728380725247" lon="5.002017511802975"><ele>33.666666666666664</ele><time>2026-04-16T15:26:56Z</time></trkpt><trkpt lat="50.93721035974041" lon="5.002048521300192"><ele>34.333333333333336</ele><time>2026-04-16T15:26:59Z</time></trkpt><trkpt lat="50.93712751708712" lon="5.0021177978694835"><ele>35.0</ele><time>2026-04-16T15:30:13.998Z</time></trkpt><trkpt lat="50.937087341969885" lon="5.0022006436430075"><ele>35.66666666666667</ele><time>2026-04-16T15:30:14.998Z</time></trkpt><trkpt lat="50.93704709578753" lon="5.0022795730199014"><ele>36.333333333333336</ele><time>2026-04-16T15:30:15.998Z</time></trkpt><trkpt lat="50.936989047050666" lon="5.002367064685887"><ele>37.0</ele><time>2026-04-16T15:30:16.998Z</time></trkpt><trkpt lat="50.936941479091715" lon="5.002456425814498"><ele>36.75</ele><time>2026-04-16T15:30:17.998Z</time></trkpt><trkpt lat="50.93686507088942" lon="5.002588869525004"><ele>36.5</ele><time>2026-04-16T15:30:20.001Z</time></trkpt><trkpt lat="50.93677320297005" lon="5.002681757815036"><ele>36.25</ele><time>2026-04-16T15:30:22.001Z</time></trkpt><trkpt lat="50.93663346400633" lon="5.0025397489677825"><ele>36.0</ele><time>2026-04-16T15:30:23.001Z</time></trkpt><trkpt lat="50.93653440514408" lon="5.002527120744696"><ele>36.0</ele><time>2026-04-16T15:30:24.001Z</time></trkpt><trkpt lat="50.93642477668137" lon="5.002532554552695"><ele>36.0</ele><time>2026-04-16T15:30:25.001Z</time></trkpt><trkpt lat="50.93631037833281" lon="5.002538611538587"><ele>36.0</ele><time>2026-04-16T15:30:26.001Z</time></trkpt><trkpt lat="50.93618865004846" lon="5.002545313465474"><ele>36.0</ele><time>2026-04-16T15:30:27.001Z</time></trkpt><trkpt lat="50.93606265468384" lon="5.00255402962658"><ele>36.0</ele><time>2026-04-16T15:30:28.001Z</time></trkpt><trkpt lat="50.9359365695723" lon="5.002563161150567"><ele>36.0</ele><time>2026-04-16T15:30:29.001Z</time></trkpt><trkpt lat="50.93582968643706" lon="5.002567181145116"><ele>36.0</ele><time>2026-04-16T15:30:30.001Z</time></trkpt><trkpt lat="50.93573580470592" lon="5.0025704927523735"><ele>36.0</ele><time>2026-04-16T15:30:31.001Z</time></trkpt><trkpt lat="50.935658539380505" lon="5.002577520575912"><ele>36.0</ele><time>2026-04-16T15:30:32.001Z</time></trkpt><trkpt lat="50.93558396704203" lon="5.00257946423807"><ele>36.0</ele><time>2026-04-16T15:30:33.001Z</time></trkpt><trkpt lat="50.935481167667355" lon="5.002584166244793"><ele>36.0</ele><time>2026-04-16T15:30:35Z</time></trkpt><trkpt lat="50.93539458738212" lon="5.002565578010883"><ele>36.0</ele><time>2026-04-16T15:30:37Z</time></trkpt><trkpt lat="50.93536258666513" lon="5.002811831897509"><ele>36.0</ele><time>2026-04-16T15:30:38Z</time></trkpt><trkpt lat="50.93535664200309" lon="5.002957989556845"><ele>36.0</ele><time>2026-04-16T15:30:39Z</time></trkpt><trkpt lat="50.93531566458673" lon="5.0031021767446155"><ele>36.0</ele><time>2026-04-16T15:30:40Z</time></trkpt><trkpt lat="50.93528526502273" lon="5.003256336558509"><ele>36.0</ele><time>2026-04-16T15:30:41Z</time></trkpt><trkpt lat="50.935249776488114" lon="5.003436303085766"><ele>36.0</ele><time>2026-04-16T15:30:42Z</time></trkpt><trkpt lat="50.93521196788715" lon="5.003628034933718"><ele>36.0</ele><time>2026-04-16T15:30:43Z</time></trkpt><trkpt lat="50.93516294138113" lon="5.003832432107084"><ele>36.75</ele><time>2026-04-16T15:30:44Z</time></trkpt><trkpt lat="50.935110601686674" lon="5.004034360309832"><ele>37.5</ele><time>2026-04-16T15:30:45Z</time></trkpt><trkpt lat="50.93505509821047" lon="5.004239596218306"><ele>38.25</ele><time>2026-04-16T15:30:46Z</time></trkpt><trkpt lat="50.934990170739724" lon="5.004446469294875"><ele>39.0</ele><time>2026-04-16T15:30:47Z</time></trkpt><trkpt lat="50.93491946015444" lon="5.004650976129963"><ele>39.75</ele><time>2026-04-16T15:30:48Z</time></trkpt><trkpt lat="50.93484625718624" lon="5.0048521644997885"><ele>40.5</ele><time>2026-04-16T15:30:49Z</time></trkpt><trkpt lat="50.934770179936415" lon="5.005051628529969"><ele>41.25</ele><time>2026-04-16T15:30:50Z</time></trkpt><trkpt lat="50.9346894457777" lon="5.005251189755869"><ele>42.0</ele><time>2026-04-16T15:30:51Z</time></trkpt><trkpt lat="50.93460645488494" lon="5.005445272976377"><ele>42.0</ele><time>2026-04-16T15:30:52Z</time></trkpt><trkpt lat="50.93452509023865" lon="5.00562051804332"><ele>42.0</ele><time>2026-04-16T15:30:53Z</time></trkpt><trkpt lat="50.93444186813715" lon="5.00578466495593"><ele>42.0</ele><time>2026-04-16T15:30:54Z</time></trkpt><trkpt lat="50.93435279572113" lon="5.005936248910057"><ele>42.0</ele><time>2026-04-16T15:30:55Z</time></trkpt><trkpt lat="50.93425929203334" lon="5.006069382460833"><ele>43.25</ele><time>2026-04-16T15:30:56Z</time></trkpt><trkpt lat="50.93416249677357" lon="5.006210122848754"><ele>44.5</ele><time>2026-04-16T15:30:57Z</time></trkpt><trkpt lat="50.93407288195204" lon="5.006342031488958"><ele>45.75</ele><time>2026-04-16T15:30:58Z</time></trkpt><trkpt lat="50.93399306849719" lon="5.00647343086928"><ele>47.0</ele><time>2026-04-16T15:30:59Z</time></trkpt><trkpt lat="50.93392239615128" lon="5.0065930998683825"><ele>47.6</ele><time>2026-04-16T15:31:00Z</time></trkpt><trkpt lat="50.93385873920141" lon="5.006710058867868"><ele>48.2</ele><time>2026-04-16T15:31:01Z</time></trkpt><trkpt lat="50.93379406469595" lon="5.006836280883175"><ele>48.8</ele><time>2026-04-16T15:31:02Z</time></trkpt><trkpt lat="50.933738681607835" lon="5.006944707957851"><ele>49.4</ele><time>2026-04-16T15:31:03Z</time></trkpt><trkpt lat="50.93367757032908" lon="5.007064128024211"><ele>50.0</ele><time>2026-04-16T15:31:04Z</time></trkpt><trkpt lat="50.9336216135122" lon="5.007173567311008"><ele>50.00000000000001</ele><time>2026-04-16T15:31:05Z</time></trkpt><trkpt lat="50.93357832380325" lon="5.007265424519749"><ele>50.0</ele><time>2026-04-16T15:31:06Z</time></trkpt><trkpt lat="50.93353963688863" lon="5.007351851251298"><ele>50.0</ele><time>2026-04-16T15:31:07Z</time></trkpt><trkpt lat="50.93350015530971" lon="5.007443393952449"><ele>50.0</ele><time>2026-04-16T15:31:08Z</time></trkpt><trkpt lat="50.933450622882326" lon="5.007540279195197"><ele>50.00000000000001</ele><time>2026-04-16T15:31:09Z</time></trkpt><trkpt lat="50.933401583879714" lon="5.007636198435362"><ele>50.0</ele><time>2026-04-16T15:31:10Z</time></trkpt><trkpt lat="50.93335062663658" lon="5.007752652667312"><ele>50.8</ele><time>2026-04-16T15:31:11Z</time></trkpt><trkpt lat="50.933296126797984" lon="5.007869429553563"><ele>51.6</ele><time>2026-04-16T15:31:12Z</time></trkpt><trkpt lat="50.93323254760728" lon="5.0079978209405445"><ele>52.400000000000006</ele><time>2026-04-16T15:31:13Z</time></trkpt><trkpt lat="50.93315890995932" lon="5.008133251287388"><ele>53.2</ele><time>2026-04-16T15:31:14Z</time></trkpt><trkpt lat="50.93308935718118" lon="5.008256153092552"><ele>54.0</ele><time>2026-04-16T15:31:15Z</time></trkpt><trkpt lat="50.93301894463127" lon="5.008385564716379"><ele>54.0</ele><time>2026-04-16T15:31:16Z</time></trkpt><trkpt lat="50.93294923681759" lon="5.008515006201582"><ele>54.00000000000001</ele><time>2026-04-16T15:31:17Z</time></trkpt><trkpt lat="50.93287632838243" lon="5.008647555070655"><ele>54.00000000000001</ele><time>2026-04-16T15:31:17.999Z</time></trkpt><trkpt lat="50.932791005494636" lon="5.008758430433821"><ele>54.0</ele><time>2026-04-16T15:31:18.999Z</time></trkpt><trkpt lat="50.93271297688478" lon="5.008882295171522"><ele>54.0</ele><time>2026-04-16T15:31:19.999Z</time></trkpt><trkpt lat="50.93265043647819" lon="5.0090078819020665"><ele>54.0</ele><time>2026-04-16T15:31:20.999Z</time></trkpt><trkpt lat="50.932576318730796" lon="5.009114017459063"><ele>54.00000000000001</ele><time>2026-04-16T15:31:21.999Z</time></trkpt><trkpt lat="50.93250256613553" lon="5.0091953986844455"><ele>54.00000000000001</ele><time>2026-04-16T15:31:22.999Z</time></trkpt><trkpt lat="50.93242505397229" lon="5.0093085779984365"><ele>54.0</ele><time>2026-04-16T15:31:23.999Z</time></trkpt><trkpt lat="50.93234608822409" lon="5.009415751527105"><ele>54.0</ele><time>2026-04-16T15:31:24.999Z</time></trkpt><trkpt lat="50.932272768059356" lon="5.0095230964312"><ele>54.800000000000004</ele><time>2026-04-16T15:31:25.999Z</time></trkpt><trkpt lat="50.93220319405803" lon="5.009649061868566"><ele>55.60000000000001</ele><time>2026-04-16T15:31:26.999Z</time></trkpt><trkpt lat="50.93211247076188" lon="5.009755968964609"><ele>56.4</ele><time>2026-04-16T15:31:27.999Z</time></trkpt><trkpt lat="50.93202636093873" lon="5.009862996604227"><ele>57.2</ele><time>2026-04-16T15:31:28.999Z</time></trkpt><trkpt lat="50.9319361341689" lon="5.009986481323334"><ele>58.0</ele><time>2026-04-16T15:31:29.999Z</time></trkpt><trkpt lat="50.931849410791685" lon="5.010102259200131"><ele>58.166666666666664</ele><time>2026-04-16T15:31:30.999Z</time></trkpt><trkpt lat="50.931771948178955" lon="5.010201789395775"><ele>58.33333333333333</ele><time>2026-04-16T15:31:31.999Z</time></trkpt><trkpt lat="50.93170920251531" lon="5.0102973199812"><ele>58.5</ele><time>2026-04-16T15:31:32.999Z</time></trkpt><trkpt lat="50.93165160046029" lon="5.01038298473047"><ele>58.66666666666667</ele><time>2026-04-16T15:31:33.999Z</time></trkpt><trkpt lat="50.93158976235893" lon="5.010464331707358"><ele>58.833333333333336</ele><time>2026-04-16T15:31:34.999Z</time></trkpt><trkpt lat="50.931525605557326" lon="5.010545422281038"><ele>59.0</ele><time>2026-04-16T15:31:35.999Z</time></trkpt><trkpt lat="50.931432171192945" lon="5.010674045805657"><ele>60.5</ele><time>2026-04-16T15:31:36.999Z</time></trkpt><trkpt lat="50.931320410972134" lon="5.01081719070179"><ele>62.0</ele><time>2026-04-16T15:31:37.999Z</time></trkpt><trkpt lat="50.93122071970365" lon="5.010985357349393"><ele>63.5</ele><time>2026-04-16T15:31:38.999Z</time></trkpt><trkpt lat="50.931095251422576" lon="5.011119969637445"><ele>65.0</ele><time>2026-04-16T15:31:39.999Z</time></trkpt><trkpt lat="50.930973945412106" lon="5.01128164003391"><ele>67.33333333333334</ele><time>2026-04-16T15:31:40.999Z</time></trkpt><trkpt lat="50.930848446206205" lon="5.011438573009884"><ele>69.66666666666667</ele><time>2026-04-16T15:31:41.999Z</time></trkpt><trkpt lat="50.93072095685777" lon="5.011594708139185"><ele>72.0</ele><time>2026-04-16T15:31:42.999Z</time></trkpt><trkpt lat="50.93060048814338" lon="5.011740669182673"><ele>72.0</ele><time>2026-04-16T15:31:43.999Z</time></trkpt><trkpt lat="50.930497599390655" lon="5.0118850538517385"><ele>72.0</ele><time>2026-04-16T15:31:44.999Z</time></trkpt><trkpt lat="50.930389677754896" lon="5.012033754341854"><ele>72.0</ele><time>2026-04-16T15:31:45.999Z</time></trkpt><trkpt lat="50.930281999369015" lon="5.012177312341065"><ele>72.0</ele><time>2026-04-16T15:31:46.999Z</time></trkpt><trkpt lat="50.930158832468386" lon="5.012276080831863"><ele>72.25</ele><time>2026-04-16T15:31:47.999Z</time></trkpt><trkpt lat="50.93003931437531" lon="5.012376272843173"><ele>72.5</ele><time>2026-04-16T15:31:48.999Z</time></trkpt><trkpt lat="50.929913320200725" lon="5.012478707665771"><ele>72.75</ele><time>2026-04-16T15:31:49.999Z</time></trkpt><trkpt lat="50.92980528948225" lon="5.012571722709369"><ele>73.0</ele><time>2026-04-16T15:31:50.999Z</time></trkpt><trkpt lat="50.929701806360406" lon="5.012637504675416"><ele>73.0</ele><time>2026-04-16T15:31:51.999Z</time></trkpt><trkpt lat="50.929589785541054" lon="5.012697589564097"><ele>73.0</ele><time>2026-04-16T15:31:52.999Z</time></trkpt><trkpt lat="50.92946863889327" lon="5.01277613434096"><ele>73.0</ele><time>2026-04-16T15:31:53.999Z</time></trkpt><trkpt lat="50.929336832073865" lon="5.012784930537167"><ele>73.0</ele><time>2026-04-16T15:31:54.999Z</time></trkpt><trkpt lat="50.92922686881165" lon="5.012818993828128"><ele>72.2</ele><time>2026-04-16T15:31:55.999Z</time></trkpt><trkpt lat="50.929134810868796" lon="5.01286745558725"><ele>71.4</ele><time>2026-04-16T15:31:56.999Z</time></trkpt><trkpt lat="50.92904956866207" lon="5.012927475468388"><ele>70.60000000000001</ele><time>2026-04-16T15:31:57.999Z</time></trkpt><trkpt lat="50.92897063414951" lon="5.012996605750625"><ele>69.8</ele><time>2026-04-16T15:31:58.999Z</time></trkpt><trkpt lat="50.928887777937064" lon="5.012943606292439"><ele>69.0</ele><time>2026-04-16T15:31:59.999Z</time></trkpt><trkpt lat="50.928795187344576" lon="5.012877537503993"><ele>69.0</ele><time>2026-04-16T15:32:00.999Z</time></trkpt><trkpt lat="50.9286847792916" lon="5.012827616889699"><ele>69.0</ele><time>2026-04-16T15:32:01.998Z</time></trkpt><trkpt lat="50.9285674815475" lon="5.012781043315532"><ele>69.0</ele><time>2026-04-16T15:32:02.998Z</time></trkpt><trkpt lat="50.92844613116245" lon="5.0127377501229855"><ele>69.0</ele><time>2026-04-16T15:32:03.998Z</time></trkpt><trkpt lat="50.92831121750476" lon="5.01267775815654"><ele>67.0</ele><time>2026-04-16T15:32:04.998Z</time></trkpt><trkpt lat="50.9281676872185" lon="5.012603910951932"><ele>65.0</ele><time>2026-04-16T15:32:05.998Z</time></trkpt><trkpt lat="50.92801989504203" lon="5.012517293109974"><ele>63.0</ele><time>2026-04-16T15:32:06.998Z</time></trkpt><trkpt lat="50.92786892605516" lon="5.012414068281721"><ele>63.0</ele><time>2026-04-16T15:32:07.998Z</time></trkpt><trkpt lat="50.92770159413191" lon="5.012337856531301"><ele>63.0</ele><time>2026-04-16T15:32:08.998Z</time></trkpt><trkpt lat="50.92753205406608" lon="5.0122278120790495"><ele>63.0</ele><time>2026-04-16T15:32:09.998Z</time></trkpt><trkpt lat="50.927376906936985" lon="5.012075990028877"><ele>62.0</ele><time>2026-04-16T15:32:10.998Z</time></trkpt><trkpt lat="50.92720990879875" lon="5.01193129933081"><ele>61.0</ele><time>2026-04-16T15:32:11.998Z</time></trkpt><trkpt lat="50.9270442944413" lon="5.011794279366927"><ele>60.0</ele><time>2026-04-16T15:32:12.998Z</time></trkpt><trkpt lat="50.926865838251096" lon="5.011666310500519"><ele>58.66666666666667</ele><time>2026-04-16T15:32:13.998Z</time></trkpt><trkpt lat="50.92670144602852" lon="5.011501831637148"><ele>57.333333333333336</ele><time>2026-04-16T15:32:14.998Z</time></trkpt><trkpt lat="50.92653576688752" lon="5.011329340995097"><ele>56.0</ele><time>2026-04-16T15:32:15.998Z</time></trkpt><trkpt lat="50.92636986772192" lon="5.011136683121569"><ele>56.0</ele><time>2026-04-16T15:32:16.998Z</time></trkpt><trkpt lat="50.92619719352007" lon="5.011011629713153"><ele>56.0</ele><time>2026-04-16T15:32:17.998Z</time></trkpt><trkpt lat="50.92601396393754" lon="5.0108881931166485"><ele>56.0</ele><time>2026-04-16T15:32:18.998Z</time></trkpt><trkpt lat="50.92583325908982" lon="5.010771286538654"><ele>55.66666666666667</ele><time>2026-04-16T15:32:19.998Z</time></trkpt><trkpt lat="50.925678970689766" lon="5.010663766070098"><ele>55.33333333333333</ele><time>2026-04-16T15:32:20.998Z</time></trkpt><trkpt lat="50.92553036699372" lon="5.010564874549394"><ele>55.0</ele><time>2026-04-16T15:32:21.998Z</time></trkpt><trkpt lat="50.925389492771004" lon="5.010477796788171"><ele>55.0</ele><time>2026-04-16T15:32:22.998Z</time></trkpt><trkpt lat="50.92526502370104" lon="5.0103968933704905"><ele>55.0</ele><time>2026-04-16T15:32:23.998Z</time></trkpt><trkpt lat="50.92515370614851" lon="5.010325572746304"><ele>55.0</ele><time>2026-04-16T15:32:25Z</time></trkpt><trkpt lat="50.92505014746863" lon="5.010258394481581"><ele>55.0</ele><time>2026-04-16T15:32:26Z</time></trkpt><trkpt lat="50.9249611745301" lon="5.0101997504424"><ele>54.8</ele><time>2026-04-16T15:32:27Z</time></trkpt><trkpt lat="50.92489070127961" lon="5.010156249758929"><ele>54.6</ele><time>2026-04-16T15:32:28Z</time></trkpt><trkpt lat="50.924824307772894" lon="5.010119945925654"><ele>54.400000000000006</ele><time>2026-04-16T15:32:29Z</time></trkpt><trkpt lat="50.92476095797871" lon="5.01005746687496"><ele>54.2</ele><time>2026-04-16T15:32:31Z</time></trkpt><trkpt lat="50.92470569639844" lon="5.0102721614760775"><ele>54.0</ele><time>2026-04-16T15:32:33Z</time></trkpt><trkpt lat="50.92471705398562" lon="5.010411981402483"><ele>54.0</ele><time>2026-04-16T15:32:34Z</time></trkpt><trkpt lat="50.92472417028693" lon="5.010576491492693"><ele>54.0</ele><time>2026-04-16T15:32:35Z</time></trkpt><trkpt lat="50.92472423410919" lon="5.010751556810519"><ele>54.0</ele><time>2026-04-16T15:32:36Z</time></trkpt><trkpt lat="50.92472371400069" lon="5.0109518782686315"><ele>54.0</ele><time>2026-04-16T15:32:37Z</time></trkpt><trkpt lat="50.92472200153747" lon="5.011175318395258"><ele>54.0</ele><time>2026-04-16T15:32:38Z</time></trkpt><trkpt lat="50.92472226936254" lon="5.011409868038508"><ele>54.0</ele><time>2026-04-16T15:32:39Z</time></trkpt><trkpt lat="50.92472387857528" lon="5.011652591641925"><ele>54.0</ele><time>2026-04-16T15:32:40Z</time></trkpt><trkpt lat="50.92472552129778" lon="5.011906851957084"><ele>54.33333333333333</ele><time>2026-04-16T15:32:41Z</time></trkpt><trkpt lat="50.924731504097956" lon="5.012175046058243"><ele>54.666666666666664</ele><time>2026-04-16T15:32:42Z</time></trkpt><trkpt lat="50.924743442669964" lon="5.012451253640357"><ele>55.0</ele><time>2026-04-16T15:32:43Z</time></trkpt><trkpt lat="50.92475982759108" lon="5.012737935566839"><ele>54.33333333333333</ele><time>2026-04-16T15:32:44Z</time></trkpt><trkpt lat="50.92478262037373" lon="5.013028762476378"><ele>53.66666666666667</ele><time>2026-04-16T15:32:45Z</time></trkpt><trkpt lat="50.92480908177689" lon="5.0133475080444185"><ele>53.0</ele><time>2026-04-16T15:32:46Z</time></trkpt><trkpt lat="50.924842848974095" lon="5.013650525870843"><ele>53.0</ele><time>2026-04-16T15:32:47Z</time></trkpt><trkpt lat="50.92488142862467" lon="5.013948619422695"><ele>53.0</ele><time>2026-04-16T15:32:48Z</time></trkpt><trkpt lat="50.92492577159421" lon="5.014259328803588"><ele>53.0</ele><time>2026-04-16T15:32:49Z</time></trkpt><trkpt lat="50.924977910497404" lon="5.014569401043668"><ele>53.0</ele><time>2026-04-16T15:32:50Z</time></trkpt><trkpt lat="50.9250359967678" lon="5.014878409033715"><ele>53.0</ele><time>2026-04-16T15:32:51Z</time></trkpt><trkpt lat="50.92509247893964" lon="5.015187576647623"><ele>53.0</ele><time>2026-04-16T15:32:52Z</time></trkpt><trkpt lat="50.925151640573645" lon="5.01550477086374"><ele>53.0</ele><time>2026-04-16T15:32:53Z</time></trkpt><trkpt lat="50.92520963260362" lon="5.015824025786177"><ele>53.0</ele><time>2026-04-16T15:32:53.999Z</time></trkpt><trkpt lat="50.925266073463256" lon="5.0161506442553945"><ele>53.0</ele><time>2026-04-16T15:32:54.999Z</time></trkpt><trkpt lat="50.92532371949547" lon="5.0164674922916115"><ele>53.0</ele><time>2026-04-16T15:32:55.999Z</time></trkpt><trkpt lat="50.92538618389032" lon="5.016793183708686"><ele>53.0</ele><time>2026-04-16T15:32:56.999Z</time></trkpt><trkpt lat="50.92544526550166" lon="5.01712017099421"><ele>53.0</ele><time>2026-04-16T15:32:57.999Z</time></trkpt><trkpt lat="50.92550471202607" lon="5.017445895448482"><ele>53.0</ele><time>2026-04-16T15:32:58.999Z</time></trkpt><trkpt lat="50.925563294115626" lon="5.017771007853391"><ele>53.0</ele><time>2026-04-16T15:32:59.999Z</time></trkpt><trkpt lat="50.925625301373415" lon="5.018109720889193"><ele>53.0</ele><time>2026-04-16T15:33:00.999Z</time></trkpt><trkpt lat="50.92568548847238" lon="5.018440919946026"><ele>52.66666666666667</ele><time>2026-04-16T15:33:01.999Z</time></trkpt><trkpt lat="50.92575120562032" lon="5.018787611728431"><ele>52.33333333333333</ele><time>2026-04-16T15:33:02.999Z</time></trkpt><trkpt lat="50.925810232525045" lon="5.019118808192217"><ele>52.0</ele><time>2026-04-16T15:33:03.999Z</time></trkpt><trkpt lat="50.92587393282343" lon="5.019456705203368"><ele>52.5</ele><time>2026-04-16T15:33:04.999Z</time></trkpt><trkpt lat="50.92593868908391" lon="5.019796432316468"><ele>53.0</ele><time>2026-04-16T15:33:05.999Z</time></trkpt><trkpt lat="50.92601126973395" lon="5.0201397391096"><ele>53.0</ele><time>2026-04-16T15:33:06.999Z</time></trkpt><trkpt lat="50.926088644459945" lon="5.020468335612776"><ele>53.0</ele><time>2026-04-16T15:33:07.999Z</time></trkpt><trkpt lat="50.92617402228356" lon="5.020781915932514"><ele>53.0</ele><time>2026-04-16T15:33:08.999Z</time></trkpt><trkpt lat="50.926278510339145" lon="5.0211056697033625"><ele>53.0</ele><time>2026-04-16T15:33:09.999Z</time></trkpt><trkpt lat="50.926383665409425" lon="5.02139741603341"><ele>53.0</ele><time>2026-04-16T15:33:10.999Z</time></trkpt><trkpt lat="50.92649811673174" lon="5.021683116553169"><ele>53.0</ele><time>2026-04-16T15:33:11.999Z</time></trkpt><trkpt lat="50.926609439550944" lon="5.021941257879187"><ele>55.333333333333336</ele><time>2026-04-16T15:33:12.999Z</time></trkpt><trkpt lat="50.92673285774372" lon="5.022203100231485"><ele>57.66666666666667</ele><time>2026-04-16T15:33:13.999Z</time></trkpt><trkpt lat="50.92683890378687" lon="5.02245675869282"><ele>60.0</ele><time>2026-04-16T15:33:14.999Z</time></trkpt><trkpt lat="50.92694554188636" lon="5.022711799264531"><ele>60.66666666666667</ele><time>2026-04-16T15:33:15.999Z</time></trkpt><trkpt lat="50.92705404286263" lon="5.022974728653181"><ele>61.333333333333336</ele><time>2026-04-16T15:33:16.999Z</time></trkpt><trkpt lat="50.92715928581276" lon="5.023226690283272"><ele>62.0</ele><time>2026-04-16T15:33:17.999Z</time></trkpt><trkpt lat="50.92726801095104" lon="5.023478763122416"><ele>60.333333333333336</ele><time>2026-04-16T15:33:18.999Z</time></trkpt><trkpt lat="50.927371708330696" lon="5.023732452301887"><ele>58.66666666666667</ele><time>2026-04-16T15:33:19.999Z</time></trkpt><trkpt lat="50.927473651459096" lon="5.02398308276913"><ele>57.0</ele><time>2026-04-16T15:33:20.999Z</time></trkpt><trkpt lat="50.9275783402051" lon="5.0242396052017755"><ele>57.0</ele><time>2026-04-16T15:33:21.999Z</time></trkpt><trkpt lat="50.92768072272737" lon="5.024492964617715"><ele>57.0</ele><time>2026-04-16T15:33:22.999Z</time></trkpt><trkpt lat="50.92778910221469" lon="5.024749015712274"><ele>57.0</ele><time>2026-04-16T15:33:23.999Z</time></trkpt><trkpt lat="50.92789450160238" lon="5.025012248472707"><ele>57.33333333333333</ele><time>2026-04-16T15:33:24.999Z</time></trkpt><trkpt lat="50.92799147887203" lon="5.025271990167724"><ele>57.666666666666664</ele><time>2026-04-16T15:33:25.999Z</time></trkpt><trkpt lat="50.928090671294946" lon="5.025542144191078"><ele>58.0</ele><time>2026-04-16T15:33:26.999Z</time></trkpt><trkpt lat="50.928187644218625" lon="5.025817480960559"><ele>58.0</ele><time>2026-04-16T15:33:27.998Z</time></trkpt><trkpt lat="50.9282757486703" lon="5.026095748367056"><ele>58.0</ele><time>2026-04-16T15:33:28.998Z</time></trkpt><trkpt lat="50.92836504397757" lon="5.026382468900285"><ele>58.0</ele><time>2026-04-16T15:33:29.998Z</time></trkpt><trkpt lat="50.9284563344919" lon="5.026659084382306"><ele>60.0</ele><time>2026-04-16T15:33:30.998Z</time></trkpt><trkpt lat="50.928548264579426" lon="5.026951508462873"><ele>62.0</ele><time>2026-04-16T15:33:31.998Z</time></trkpt><trkpt lat="50.92864096624247" lon="5.027242813081005"><ele>64.0</ele><time>2026-04-16T15:33:32.998Z</time></trkpt><trkpt lat="50.928731356273126" lon="5.027522131787696"><ele>64.0</ele><time>2026-04-16T15:33:33.998Z</time></trkpt><trkpt lat="50.928825522722256" lon="5.0278060139763525"><ele>64.0</ele><time>2026-04-16T15:33:34.998Z</time></trkpt><trkpt lat="50.92892070383949" lon="5.028098172588331"><ele>64.0</ele><time>2026-04-16T15:33:35.998Z</time></trkpt><trkpt lat="50.929010942539506" lon="5.028380507720955"><ele>61.666666666666664</ele><time>2026-04-16T15:33:36.998Z</time></trkpt><trkpt lat="50.929104784463384" lon="5.0286684577337715"><ele>59.33333333333333</ele><time>2026-04-16T15:33:37.998Z</time></trkpt><trkpt lat="50.92919494412996" lon="5.028958290390386"><ele>57.0</ele><time>2026-04-16T15:33:38.998Z</time></trkpt><trkpt lat="50.92928238331479" lon="5.0292466097996025"><ele>56.33333333333333</ele><time>2026-04-16T15:33:39.998Z</time></trkpt><trkpt lat="50.929372764856595" lon="5.029534731131799"><ele>55.666666666666664</ele><time>2026-04-16T15:33:40.998Z</time></trkpt><trkpt lat="50.92945953390528" lon="5.029807621521145"><ele>55.0</ele><time>2026-04-16T15:33:41.998Z</time></trkpt><trkpt lat="50.9295458319968" lon="5.03007976996512"><ele>55.0</ele><time>2026-04-16T15:33:42.998Z</time></trkpt><trkpt lat="50.92963167139523" lon="5.030344166819823"><ele>55.0</ele><time>2026-04-16T15:33:43.998Z</time></trkpt><trkpt lat="50.92971411215971" lon="5.030603232195714"><ele>55.0</ele><time>2026-04-16T15:33:44.998Z</time></trkpt><trkpt lat="50.92979705345048" lon="5.030863927984686"><ele>53.666666666666664</ele><time>2026-04-16T15:33:45.998Z</time></trkpt><trkpt lat="50.92988086473593" lon="5.031135125086564"><ele>52.33333333333333</ele><time>2026-04-16T15:33:46.998Z</time></trkpt><trkpt lat="50.929963508361595" lon="5.031403140317201"><ele>51.0</ele><time>2026-04-16T15:33:47.998Z</time></trkpt><trkpt lat="50.93005261171237" lon="5.031680250686593"><ele>52.0</ele><time>2026-04-16T15:33:48.998Z</time></trkpt><trkpt lat="50.930141102993204" lon="5.031957045954203"><ele>53.0</ele><time>2026-04-16T15:33:49.998Z</time></trkpt><trkpt lat="50.930225623835106" lon="5.032229454002452"><ele>54.0</ele><time>2026-04-16T15:33:50.998Z</time></trkpt><trkpt lat="50.930317207173466" lon="5.032510531416096"><ele>54.0</ele><time>2026-04-16T15:33:51.998Z</time></trkpt><trkpt lat="50.93040856217232" lon="5.032790869194089"><ele>54.0</ele><time>2026-04-16T15:33:52.998Z</time></trkpt><trkpt lat="50.9304935887152" lon="5.033067547091729"><ele>54.0</ele><time>2026-04-16T15:33:53.998Z</time></trkpt><trkpt lat="50.93058003239874" lon="5.033346435461171"><ele>53.0</ele><time>2026-04-16T15:33:54.998Z</time></trkpt><trkpt lat="50.930663550735495" lon="5.033620019556051"><ele>52.0</ele><time>2026-04-16T15:33:55.998Z</time></trkpt><trkpt lat="50.930747386384006" lon="5.033885675383132"><ele>51.0</ele><time>2026-04-16T15:33:56.998Z</time></trkpt><trkpt lat="50.93082053728672" lon="5.034116851592285"><ele>51.33333333333333</ele><time>2026-04-16T15:33:57.998Z</time></trkpt><trkpt lat="50.93089032880524" lon="5.034342906409524"><ele>51.666666666666664</ele><time>2026-04-16T15:33:58.998Z</time></trkpt><trkpt lat="50.930957271557176" lon="5.034555696947655"><ele>52.0</ele><time>2026-04-16T15:33:59.998Z</time></trkpt><trkpt lat="50.9310264035719" lon="5.034760519999367"><ele>52.0</ele><time>2026-04-16T15:34:00.998Z</time></trkpt><trkpt lat="50.93109358757261" lon="5.034958980752222"><ele>52.0</ele><time>2026-04-16T15:34:01.998Z</time></trkpt><trkpt lat="50.9311656024383" lon="5.0351529847536804"><ele>52.0</ele><time>2026-04-16T15:34:02.998Z</time></trkpt><trkpt lat="50.931234006404566" lon="5.035346069627205"><ele>52.0</ele><time>2026-04-16T15:34:03.998Z</time></trkpt><trkpt lat="50.9312983276265" lon="5.035524160663856"><ele>51.75</ele><time>2026-04-16T15:34:04.998Z</time></trkpt><trkpt lat="50.93136768355228" lon="5.03569497267256"><ele>51.5</ele><time>2026-04-16T15:34:05.998Z</time></trkpt><trkpt lat="50.93143196343708" lon="5.035881437244494"><ele>51.25</ele><time>2026-04-16T15:34:06.998Z</time></trkpt><trkpt lat="50.93150830342842" lon="5.0360715178413695"><ele>51.0</ele><time>2026-04-16T15:34:07.998Z</time></trkpt><trkpt lat="50.93159061346931" lon="5.036262825026895"><ele>51.0</ele><time>2026-04-16T15:34:08.998Z</time></trkpt><trkpt lat="50.931678300478055" lon="5.036450810627797"><ele>51.0</ele><time>2026-04-16T15:34:09.998Z</time></trkpt><trkpt lat="50.931772598193675" lon="5.036611587759784"><ele>51.0</ele><time>2026-04-16T15:34:10.997Z</time></trkpt><trkpt lat="50.931870599456595" lon="5.036759389343022"><ele>51.0</ele><time>2026-04-16T15:34:11.997Z</time></trkpt><trkpt lat="50.931960415309234" lon="5.036914502470678"><ele>51.0</ele><time>2026-04-16T15:34:12.997Z</time></trkpt><trkpt lat="50.93203349314902" lon="5.037083843512895"><ele>51.0</ele><time>2026-04-16T15:34:13.997Z</time></trkpt><trkpt lat="50.93211087579945" lon="5.037265438339378"><ele>51.0</ele><time>2026-04-16T15:34:14.997Z</time></trkpt><trkpt lat="50.93220329679206" lon="5.037432434463958"><ele>51.0</ele><time>2026-04-16T15:34:15.997Z</time></trkpt><trkpt lat="50.932295862086924" lon="5.037594450257341"><ele>50.75</ele><time>2026-04-16T15:34:16.997Z</time></trkpt><trkpt lat="50.93238714854454" lon="5.037759630353444"><ele>50.5</ele><time>2026-04-16T15:34:17.997Z</time></trkpt><trkpt lat="50.932480147968604" lon="5.037917974083267"><ele>50.25</ele><time>2026-04-16T15:34:18.997Z</time></trkpt><trkpt lat="50.9325745509335" lon="5.038071377192071"><ele>50.0</ele><time>2026-04-16T15:34:19.997Z</time></trkpt><trkpt lat="50.9326632284415" lon="5.038229941964832"><ele>50.5</ele><time>2026-04-16T15:34:20.997Z</time></trkpt><trkpt lat="50.93274510915606" lon="5.038383992911897"><ele>51.0</ele><time>2026-04-16T15:34:21.997Z</time></trkpt><trkpt lat="50.932824371918294" lon="5.038549327341633"><ele>51.5</ele><time>2026-04-16T15:34:22.997Z</time></trkpt><trkpt lat="50.932911240269114" lon="5.038716735807322"><ele>52.0</ele><time>2026-04-16T15:34:23.997Z</time></trkpt><trkpt lat="50.93299594337793" lon="5.0389003041815785"><ele>52.0</ele><time>2026-04-16T15:34:24.997Z</time></trkpt><trkpt lat="50.9330780729224" lon="5.039094977769033"><ele>52.0</ele><time>2026-04-16T15:34:25.997Z</time></trkpt><trkpt lat="50.93315729786423" lon="5.039301808199121"><ele>52.0</ele><time>2026-04-16T15:34:26.997Z</time></trkpt><trkpt lat="50.933238223724466" lon="5.03950953903223"><ele>52.0</ele><time>2026-04-16T15:34:27.997Z</time></trkpt><trkpt lat="50.93331072799036" lon="5.039717028246786"><ele>52.0</ele><time>2026-04-16T15:34:28.997Z</time></trkpt><trkpt lat="50.93337397219306" lon="5.039926388878065"><ele>52.0</ele><time>2026-04-16T15:34:29.997Z</time></trkpt><trkpt lat="50.93343509806684" lon="5.040137823664993"><ele>52.0</ele><time>2026-04-16T15:34:30.999Z</time></trkpt><trkpt lat="50.933493052807975" lon="5.040349262191317"><ele>52.0</ele><time>2026-04-16T15:34:31.999Z</time></trkpt><trkpt lat="50.93354954456298" lon="5.040550724301986"><ele>52.0</ele><time>2026-04-16T15:34:32.999Z</time></trkpt><trkpt lat="50.933601267159155" lon="5.040737606714655"><ele>52.0</ele><time>2026-04-16T15:34:33.999Z</time></trkpt><trkpt lat="50.93364422720913" lon="5.040902443393462"><ele>52.0</ele><time>2026-04-16T15:34:35Z</time></trkpt><trkpt lat="50.933688312274114" lon="5.041048095291438"><ele>51.8</ele><time>2026-04-16T15:34:36Z</time></trkpt><trkpt lat="50.933729744854915" lon="5.041191105720834"><ele>51.6</ele><time>2026-04-16T15:34:37Z</time></trkpt><trkpt lat="50.93376825453901" lon="5.041321806863863"><ele>51.4</ele><time>2026-04-16T15:34:38Z</time></trkpt><trkpt lat="50.93381153404956" lon="5.0414700055324175"><ele>51.199999999999996</ele><time>2026-04-16T15:34:39Z</time></trkpt><trkpt lat="50.93385208644324" lon="5.041634639711679"><ele>51.0</ele><time>2026-04-16T15:34:40Z</time></trkpt><trkpt lat="50.933902807032105" lon="5.041814174750856"><ele>51.0</ele><time>2026-04-16T15:34:41Z</time></trkpt><trkpt lat="50.933949085659826" lon="5.042000184516826"><ele>51.0</ele><time>2026-04-16T15:34:42Z</time></trkpt><trkpt lat="50.933995349652015" lon="5.042194395284928"><ele>51.0</ele><time>2026-04-16T15:34:43Z</time></trkpt><trkpt lat="50.93403908531855" lon="5.042402555360896"><ele>51.0</ele><time>2026-04-16T15:34:44Z</time></trkpt><trkpt lat="50.93407409184653" lon="5.042614836856436"><ele>50.75</ele><time>2026-04-16T15:34:45Z</time></trkpt><trkpt lat="50.93410445377119" lon="5.042831130197851"><ele>50.5</ele><time>2026-04-16T15:34:46Z</time></trkpt><trkpt lat="50.93412946753339" lon="5.043051962092207"><ele>50.25</ele><time>2026-04-16T15:34:47Z</time></trkpt><trkpt lat="50.934145890718355" lon="5.0432673259292065"><ele>50.0</ele><time>2026-04-16T15:34:48Z</time></trkpt><trkpt lat="50.93416111018345" lon="5.043464643517418"><ele>49.8</ele><time>2026-04-16T15:34:49Z</time></trkpt><trkpt lat="50.93417079527459" lon="5.043643205404597"><ele>49.6</ele><time>2026-04-16T15:34:50Z</time></trkpt><trkpt lat="50.93417503510642" lon="5.043809656562225"><ele>49.400000000000006</ele><time>2026-04-16T15:34:51Z</time></trkpt><trkpt lat="50.9341729119359" lon="5.043967398742116"><ele>49.2</ele><time>2026-04-16T15:34:52Z</time></trkpt><trkpt lat="50.93416824889515" lon="5.044105898906684"><ele>49.0</ele><time>2026-04-16T15:34:53Z</time></trkpt><trkpt lat="50.93416254647378" lon="5.044221147255303"><ele>48.83333333333333</ele><time>2026-04-16T15:34:54Z</time></trkpt><trkpt lat="50.934154143483774" lon="5.044326959650333"><ele>48.666666666666664</ele><time>2026-04-16T15:34:55Z</time></trkpt><trkpt lat="50.934147299607005" lon="5.044427458778344"><ele>48.5</ele><time>2026-04-16T15:34:56Z</time></trkpt><trkpt lat="50.93413528624101" lon="5.044525638824695"><ele>48.33333333333333</ele><time>2026-04-16T15:34:57Z</time></trkpt><trkpt lat="50.934120142940166" lon="5.044629388219659"><ele>48.166666666666664</ele><time>2026-04-16T15:34:58Z</time></trkpt><trkpt lat="50.93409754789139" lon="5.044768481465512"><ele>48.0</ele><time>2026-04-16T15:35:00Z</time></trkpt><trkpt lat="50.934240251716794" lon="5.044802925531821"><ele>49.333333333333336</ele><time>2026-04-16T15:35:02Z</time></trkpt><trkpt lat="50.934332860374866" lon="5.044745849634412"><ele>50.66666666666667</ele><time>2026-04-16T15:35:04Z</time></trkpt><trkpt lat="50.9344003513769" lon="5.044710590673347"><ele>52.0</ele><time>2026-04-16T15:35:06Z</time></trkpt><trkpt lat="50.93446704756362" lon="5.044650890228466"><ele>53.333333333333336</ele><time>2026-04-16T15:35:16Z</time></trkpt><trkpt lat="50.93453067546109" lon="5.044612614843109"><ele>54.66666666666667</ele><time>2026-04-16T15:35:17Z</time></trkpt><trkpt lat="50.93460543449826" lon="5.0445728139397055"><ele>56.0</ele><time>2026-04-16T15:35:17.999Z</time></trkpt><trkpt lat="50.93468592424102" lon="5.044533336229654"><ele>56.0</ele><time>2026-04-16T15:35:18.999Z</time></trkpt><trkpt lat="50.93477186181164" lon="5.044473769557218"><ele>55.99999999999999</ele><time>2026-04-16T15:35:19.999Z</time></trkpt><trkpt lat="50.934867787680936" lon="5.044425204274723"><ele>55.99999999999999</ele><time>2026-04-16T15:35:20.999Z</time></trkpt><trkpt lat="50.93497361573938" lon="5.044362080147803"><ele>56.0</ele><time>2026-04-16T15:35:21.999Z</time></trkpt><trkpt lat="50.935083486192404" lon="5.044278894544596"><ele>56.0</ele><time>2026-04-16T15:35:22.999Z</time></trkpt><trkpt lat="50.93519000648434" lon="5.044188954228294"><ele>56.25</ele><time>2026-04-16T15:35:23.999Z</time></trkpt><trkpt lat="50.935310667711626" lon="5.044121345497512"><ele>56.5</ele><time>2026-04-16T15:35:24.999Z</time></trkpt><trkpt lat="50.93542125785656" lon="5.0440498098584525"><ele>56.75</ele><time>2026-04-16T15:35:25.999Z</time></trkpt><trkpt lat="50.935529197776276" lon="5.0440021051257204"><ele>57.0</ele><time>2026-04-16T15:35:26.999Z</time></trkpt><trkpt lat="50.935628171233034" lon="5.043970418041332"><ele>57.0</ele><time>2026-04-16T15:35:27.999Z</time></trkpt><trkpt lat="50.93573264846049" lon="5.043946170288709"><ele>57.0</ele><time>2026-04-16T15:35:28.999Z</time></trkpt><trkpt lat="50.93584686409236" lon="5.043923767277122"><ele>57.0</ele><time>2026-04-16T15:35:29.999Z</time></trkpt><trkpt lat="50.935963047021446" lon="5.043904455535183"><ele>57.0</ele><time>2026-04-16T15:35:30.999Z</time></trkpt><trkpt lat="50.93606446847951" lon="5.043899016215483"><ele>57.0</ele><time>2026-04-16T15:35:31.999Z</time></trkpt><trkpt lat="50.93617532947581" lon="5.043909740814427"><ele>57.75</ele><time>2026-04-16T15:35:32.999Z</time></trkpt><trkpt lat="50.936296123431966" lon="5.043924173957262"><ele>58.5</ele><time>2026-04-16T15:35:33.999Z</time></trkpt><trkpt lat="50.93643097421404" lon="5.043940286692388"><ele>59.25</ele><time>2026-04-16T15:35:34.999Z</time></trkpt><trkpt lat="50.93658161672462" lon="5.043932170768158"><ele>60.0</ele><time>2026-04-16T15:35:35.999Z</time></trkpt><trkpt lat="50.93670440353746" lon="5.043989483951377"><ele>60.166666666666664</ele><time>2026-04-16T15:35:36.999Z</time></trkpt><trkpt lat="50.936801553070076" lon="5.044015319019403"><ele>60.33333333333333</ele><time>2026-04-16T15:35:37.999Z</time></trkpt><trkpt lat="50.93687879922487" lon="5.044036978234124"><ele>60.5</ele><time>2026-04-16T15:35:38.999Z</time></trkpt><trkpt lat="50.936959010426094" lon="5.044062135579801"><ele>60.666666666666664</ele><time>2026-04-16T15:35:39.999Z</time></trkpt><trkpt lat="50.937015169576696" lon="5.044109272098253"><ele>60.83333333333333</ele><time>2026-04-16T15:35:40.999Z</time></trkpt><trkpt lat="50.937054969973666" lon="5.044211056264519"><ele>61.0</ele><time>2026-04-16T15:35:41.999Z</time></trkpt><trkpt lat="50.93709822435742" lon="5.044346416872648"><ele>61.8</ele><time>2026-04-16T15:35:42.999Z</time></trkpt><trkpt lat="50.93715889219435" lon="5.044493946355796"><ele>62.599999999999994</ele><time>2026-04-16T15:35:43.999Z</time></trkpt><trkpt lat="50.93720637761744" lon="5.044653318899829"><ele>63.4</ele><time>2026-04-16T15:35:44.999Z</time></trkpt><trkpt lat="50.93724745927" lon="5.044794639632269"><ele>64.2</ele><time>2026-04-16T15:35:45.999Z</time></trkpt><trkpt lat="50.93729875425502" lon="5.044885169835416"><ele>65.0</ele><time>2026-04-16T15:35:46.999Z</time></trkpt><trkpt lat="50.93737034942226" lon="5.044917344398743"><ele>65.0</ele><time>2026-04-16T15:35:47.999Z</time></trkpt><trkpt lat="50.937452210838146" lon="5.044870965356319"><ele>65.0</ele><time>2026-04-16T15:35:48.999Z</time></trkpt><trkpt lat="50.93751851886405" lon="5.0447876735344455"><ele>65.0</ele><time>2026-04-16T15:35:49.999Z</time></trkpt><trkpt lat="50.93759850367303" lon="5.044752162449196"><ele>65.0</ele><time>2026-04-16T15:35:50.999Z</time></trkpt><trkpt lat="50.9376897553416" lon="5.044777544081933"><ele>65.0</ele><time>2026-04-16T15:35:51.999Z</time></trkpt><trkpt lat="50.937767051607885" lon="5.044784183309848"><ele>65.0</ele><time>2026-04-16T15:35:52.999Z</time></trkpt><trkpt lat="50.93783175040203" lon="5.0447987650029935"><ele>65.8</ele><time>2026-04-16T15:35:53.999Z</time></trkpt><trkpt lat="50.93793022945731" lon="5.044920180518457"><ele>66.6</ele><time>2026-04-16T15:35:55.999Z</time></trkpt><trkpt lat="50.9380061239347" lon="5.045018944159061"><ele>67.4</ele><time>2026-04-16T15:35:56.999Z</time></trkpt><trkpt lat="50.938078543224606" lon="5.0451263800402675"><ele>68.2</ele><time>2026-04-16T15:35:57.999Z</time></trkpt><trkpt lat="50.938155790118515" lon="5.04524419723091"><ele>69.0</ele><time>2026-04-16T15:35:58.999Z</time></trkpt><trkpt lat="50.938221295387805" lon="5.045382439777296"><ele>69.75</ele><time>2026-04-16T15:35:59.999Z</time></trkpt><trkpt lat="50.93829091419394" lon="5.045520276697983"><ele>70.5</ele><time>2026-04-16T15:36:00.999Z</time></trkpt><trkpt lat="50.938375092502895" lon="5.045686718415271"><ele>71.25</ele><time>2026-04-16T15:36:01.999Z</time></trkpt><trkpt lat="50.938469906992" lon="5.045840544697525"><ele>72.0</ele><time>2026-04-16T15:36:02.999Z</time></trkpt><trkpt lat="50.93855364026325" lon="5.046048022153772"><ele>72.0</ele><time>2026-04-16T15:36:03.999Z</time></trkpt><trkpt lat="50.93864715731674" lon="5.046253898649965"><ele>72.0</ele><time>2026-04-16T15:36:04.999Z</time></trkpt><trkpt lat="50.93874119419084" lon="5.0464582314286766"><ele>72.0</ele><time>2026-04-16T15:36:05.998Z</time></trkpt><trkpt lat="50.93882530684797" lon="5.046690617143019"><ele>72.0</ele><time>2026-04-16T15:36:06.998Z</time></trkpt><trkpt lat="50.93891809529591" lon="5.046906847402896"><ele>72.0</ele><time>2026-04-16T15:36:07.998Z</time></trkpt><trkpt lat="50.93901752334757" lon="5.04713855024388"><ele>72.0</ele><time>2026-04-16T15:36:08.998Z</time></trkpt><trkpt lat="50.9391102237671" lon="5.0473542947887715"><ele>72.0</ele><time>2026-04-16T15:36:09.998Z</time></trkpt><trkpt lat="50.939210435423576" lon="5.047566467374127"><ele>72.0</ele><time>2026-04-16T15:36:10.998Z</time></trkpt><trkpt lat="50.93928927425948" lon="5.047797996150453"><ele>72.0</ele><time>2026-04-16T15:36:11.998Z</time></trkpt><trkpt lat="50.93935027338244" lon="5.0479238652468625"><ele>72.0</ele><time>2026-04-16T15:36:12.998Z</time></trkpt><trkpt lat="50.93940653824241" lon="5.048063982901376"><ele>72.25</ele><time>2026-04-16T15:36:13.998Z</time></trkpt><trkpt lat="50.93945674758646" lon="5.048189020325326"><ele>72.5</ele><time>2026-04-16T15:36:14.998Z</time></trkpt><trkpt lat="50.93949120268233" lon="5.048294999899197"><ele>72.75</ele><time>2026-04-16T15:36:15.998Z</time></trkpt><trkpt lat="50.939525899137834" lon="5.048425506834943"><ele>73.0</ele><time>2026-04-16T15:36:17.998Z</time></trkpt><trkpt lat="50.939711976316644" lon="5.0483137788599075"><ele>73.0</ele><time>2026-04-16T15:36:20.998Z</time></trkpt><trkpt lat="50.939786843839315" lon="5.048230189855002"><ele>73.0</ele><time>2026-04-16T15:36:21.998Z</time></trkpt><trkpt lat="50.93988581890676" lon="5.0481349353361455"><ele>73.0</ele><time>2026-04-16T15:36:22.998Z</time></trkpt><trkpt lat="50.93995705715299" lon="5.048072341090562"><ele>73.0</ele><time>2026-04-16T15:36:23.998Z</time></trkpt><trkpt lat="50.94001565775423" lon="5.0480198700480905"><ele>73.0</ele><time>2026-04-16T15:36:24.998Z</time></trkpt><trkpt lat="50.94010186432978" lon="5.047927121408386"><ele>73.0</ele><time>2026-04-16T15:36:26.998Z</time></trkpt><trkpt lat="50.940178759530916" lon="5.047875463541963"><ele>73.0</ele><time>2026-04-16T15:36:28.998Z</time></trkpt><trkpt lat="50.9402760078049" lon="5.047988933199714"><ele>73.0</ele><time>2026-04-16T15:36:30.998Z</time></trkpt><trkpt lat="50.94031082877611" lon="5.0481098323475555"><ele>73.0</ele><time>2026-04-16T15:36:31.998Z</time></trkpt><trkpt lat="50.94034790006413" lon="5.048249224052547"><ele>73.0</ele><time>2026-04-16T15:36:32.998Z</time></trkpt><trkpt lat="50.940401342800904" lon="5.048393940274933"><ele>73.0</ele><time>2026-04-16T15:36:33.998Z</time></trkpt><trkpt lat="50.9404672196016" lon="5.048546276412998"><ele>73.0</ele><time>2026-04-16T15:36:34.998Z</time></trkpt><trkpt lat="50.94052985586616" lon="5.048690015797378"><ele>73.0</ele><time>2026-04-16T15:36:36Z</time></trkpt><trkpt lat="50.94057564132619" lon="5.048794868810612"><ele>73.0</ele><time>2026-04-16T15:36:37Z</time></trkpt><trkpt lat="50.940611353375296" lon="5.048887089072773"><ele>73.0</ele><time>2026-04-16T15:36:38Z</time></trkpt><trkpt lat="50.9406474054295" lon="5.048973340659051"><ele>73.0</ele><time>2026-04-16T15:36:39Z</time></trkpt><trkpt lat="50.94069867667493" lon="5.0490817187784005"><ele>73.0</ele><time>2026-04-16T15:36:41Z</time></trkpt><trkpt lat="50.94077511311088" lon="5.049057863666012"><ele>73.0</ele><time>2026-04-16T15:36:43Z</time></trkpt><trkpt lat="50.94088014563755" lon="5.04892914690924"><ele>73.0</ele><time>2026-04-16T15:36:45Z</time></trkpt><trkpt lat="50.94095360903088" lon="5.048847023365532"><ele>73.0</ele><time>2026-04-16T15:36:46Z</time></trkpt><trkpt lat="50.94103043161059" lon="5.048768222945525"><ele>73.0</ele><time>2026-04-16T15:36:47Z</time></trkpt><trkpt lat="50.94108969709829" lon="5.0487125607615875"><ele>72.8</ele><time>2026-04-16T15:36:48Z</time></trkpt><trkpt lat="50.94115209334451" lon="5.048647895146002"><ele>72.6</ele><time>2026-04-16T15:36:49Z</time></trkpt><trkpt lat="50.9412269328401" lon="5.0485741886711395"><ele>72.4</ele><time>2026-04-16T15:36:50Z</time></trkpt><trkpt lat="50.94130878867314" lon="5.048493131131837"><ele>72.2</ele><time>2026-04-16T15:36:51Z</time></trkpt><trkpt lat="50.941395521394185" lon="5.048411861474"><ele>72.0</ele><time>2026-04-16T15:36:52Z</time></trkpt><trkpt lat="50.94148564390486" lon="5.048321756037429"><ele>72.0</ele><time>2026-04-16T15:36:53Z</time></trkpt><trkpt lat="50.94157347108792" lon="5.048225549377278"><ele>72.0</ele><time>2026-04-16T15:36:54Z</time></trkpt><trkpt lat="50.94166297450514" lon="5.04813141607311"><ele>72.0</ele><time>2026-04-16T15:36:55Z</time></trkpt><trkpt lat="50.94174196329699" lon="5.048059979267285"><ele>72.0</ele><time>2026-04-16T15:36:56Z</time></trkpt><trkpt lat="50.94181068698546" lon="5.04798919810795"><ele>72.0</ele><time>2026-04-16T15:36:57Z</time></trkpt><trkpt lat="50.9418817684618" lon="5.047921230236475"><ele>72.0</ele><time>2026-04-16T15:36:58Z</time></trkpt><trkpt lat="50.941954418530024" lon="5.04785525770562"><ele>72.0</ele><time>2026-04-16T15:36:59Z</time></trkpt><trkpt lat="50.94201159568925" lon="5.0478026633368485"><ele>72.0</ele><time>2026-04-16T15:37:00Z</time></trkpt><trkpt lat="50.94208900047828" lon="5.047719373620863"><ele>72.0</ele><time>2026-04-16T15:37:02Z</time></trkpt><trkpt lat="50.942048699589066" lon="5.04758495416786"><ele>72.0</ele><time>2026-04-16T15:37:05Z</time></trkpt><trkpt lat="50.94195848302496" lon="5.047647316944441"><ele>72.0</ele><time>2026-04-16T15:37:07Z</time></trkpt><trkpt lat="50.94189427308285" lon="5.047728741404992"><ele>72.0</ele><time>2026-04-16T15:37:08Z</time></trkpt><trkpt lat="50.94181144123659" lon="5.047819948608793"><ele>72.0</ele><time>2026-04-16T15:37:09Z</time></trkpt><trkpt lat="50.941710775104085" lon="5.0479199736479785"><ele>72.0</ele><time>2026-04-16T15:37:10Z</time></trkpt><trkpt lat="50.941589150105635" lon="5.048039073272314"><ele>72.0</ele><time>2026-04-16T15:37:11Z</time></trkpt><trkpt lat="50.94145108223914" lon="5.048173787138506"><ele>72.0</ele><time>2026-04-16T15:37:12Z</time></trkpt><trkpt lat="50.94132495095292" lon="5.048300800406042"><ele>72.0</ele><time>2026-04-16T15:37:13Z</time></trkpt><trkpt lat="50.94122405304582" lon="5.048400077000431"><ele>72.0</ele><time>2026-04-16T15:37:14Z</time></trkpt><trkpt lat="50.94113838387283" lon="5.048485406682876"><ele>72.0</ele><time>2026-04-16T15:37:15Z</time></trkpt><trkpt lat="50.941057187263844" lon="5.0485639384908705"><ele>72.0</ele><time>2026-04-16T15:37:16Z</time></trkpt><trkpt lat="50.940985803407045" lon="5.048631550768225"><ele>72.0</ele><time>2026-04-16T15:37:17Z</time></trkpt><trkpt lat="50.94092723627679" lon="5.0486887201406585"><ele>72.0</ele><time>2026-04-16T15:37:18Z</time></trkpt><trkpt lat="50.94086959851118" lon="5.0487467078308255"><ele>72.0</ele><time>2026-04-16T15:37:19Z</time></trkpt><trkpt lat="50.94081038671638" lon="5.048805293801583"><ele>72.0</ele><time>2026-04-16T15:37:20Z</time></trkpt><trkpt lat="50.94072278866212" lon="5.048896072773912"><ele>72.0</ele><time>2026-04-16T15:37:22Z</time></trkpt><trkpt lat="50.9406466143611" lon="5.048943041685486"><ele>72.16666666666667</ele><time>2026-04-16T15:37:24.999Z</time></trkpt><trkpt lat="50.94057269247518" lon="5.048851044284601"><ele>72.33333333333333</ele><time>2026-04-16T15:37:26.999Z</time></trkpt><trkpt lat="50.94054403039491" lon="5.048747294909015"><ele>72.5</ele><time>2026-04-16T15:37:27.999Z</time></trkpt><trkpt lat="50.94051079333095" lon="5.0486385454051375"><ele>72.66666666666666</ele><time>2026-04-16T15:37:28.999Z</time></trkpt><trkpt lat="50.94046593402267" lon="5.048526685618099"><ele>72.83333333333333</ele><time>2026-04-16T15:37:29.999Z</time></trkpt><trkpt lat="50.940408106272415" lon="5.048395229370713"><ele>73.0</ele><time>2026-04-16T15:37:30.999Z</time></trkpt><trkpt lat="50.940353681664284" lon="5.048270446885977"><ele>73.0</ele><time>2026-04-16T15:37:31.999Z</time></trkpt><trkpt lat="50.940301844062176" lon="5.0481612367061945"><ele>73.0</ele><time>2026-04-16T15:37:32.999Z</time></trkpt><trkpt lat="50.940247630003775" lon="5.048007869375679"><ele>73.0</ele><time>2026-04-16T15:37:34.999Z</time></trkpt><trkpt lat="50.94021427302325" lon="5.047904620367311"><ele>73.0</ele><time>2026-04-16T15:37:36.999Z</time></trkpt><trkpt lat="50.94013946828565" lon="5.0479468759737625"><ele>73.0</ele><time>2026-04-16T15:37:39.999Z</time></trkpt><trkpt lat="50.9401555972995" lon="5.04805891862794"><ele>73.0</ele><time>2026-04-16T15:37:41.999Z</time></trkpt><trkpt lat="50.94019534753913" lon="5.0481377380620795"><ele>73.0</ele><time>2026-04-16T15:37:42.999Z</time></trkpt><trkpt lat="50.940249853158065" lon="5.048240366642435"><ele>73.0</ele><time>2026-04-16T15:37:43.999Z</time></trkpt><trkpt lat="50.94030140353063" lon="5.04835810726553"><ele>73.0</ele><time>2026-04-16T15:37:44.999Z</time></trkpt><trkpt lat="50.94035696472873" lon="5.048491620258594"><ele>73.0</ele><time>2026-04-16T15:37:45.999Z</time></trkpt><trkpt lat="50.940418560299" lon="5.048641599183416"><ele>73.0</ele><time>2026-04-16T15:37:46.999Z</time></trkpt><trkpt lat="50.94048878220518" lon="5.048805443104196"><ele>73.0</ele><time>2026-04-16T15:37:47.999Z</time></trkpt><trkpt lat="50.94056450487772" lon="5.048981884587455"><ele>73.0</ele><time>2026-04-16T15:37:48.999Z</time></trkpt><trkpt lat="50.9406378006342" lon="5.049155400314531"><ele>73.0</ele><time>2026-04-16T15:37:49.999Z</time></trkpt><trkpt lat="50.940706621154234" lon="5.049311609260849"><ele>73.0</ele><time>2026-04-16T15:37:50.999Z</time></trkpt><trkpt lat="50.94077503757866" lon="5.049471302493206"><ele>73.0</ele><time>2026-04-16T15:37:51.999Z</time></trkpt><trkpt lat="50.940844150375035" lon="5.049638459553912"><ele>73.0</ele><time>2026-04-16T15:37:52.999Z</time></trkpt><trkpt lat="50.94090926563204" lon="5.049788934074414"><ele>73.0</ele><time>2026-04-16T15:37:53.999Z</time></trkpt><trkpt lat="50.940969335601835" lon="5.049927101518677"><ele>73.0</ele><time>2026-04-16T15:37:54.999Z</time></trkpt><trkpt lat="50.94101950848838" lon="5.050048173822801"><ele>73.0</ele><time>2026-04-16T15:37:55.999Z</time></trkpt><trkpt lat="50.941067088803784" lon="5.0501644089798745"><ele>72.6</ele><time>2026-04-16T15:37:56.999Z</time></trkpt><trkpt lat="50.94110419769348" lon="5.05026349419805"><ele>72.19999999999999</ele><time>2026-04-16T15:37:57.999Z</time></trkpt><trkpt lat="50.94113839281229" lon="5.050349162681474"><ele>71.8</ele><time>2026-04-16T15:37:58.999Z</time></trkpt><trkpt lat="50.94118841552381" lon="5.050449299937515"><ele>71.39999999999999</ele><time>2026-04-16T15:38:00.999Z</time></trkpt><trkpt lat="50.94128535972386" lon="5.050520940111858"><ele>71.0</ele><time>2026-04-16T15:38:02.999Z</time></trkpt><trkpt lat="50.941397096748844" lon="5.050424117603631"><ele>71.0</ele><time>2026-04-16T15:38:04.999Z</time></trkpt><trkpt lat="50.941466853830384" lon="5.050342875980414"><ele>71.0</ele><time>2026-04-16T15:38:05.999Z</time></trkpt><trkpt lat="50.941541992220785" lon="5.050259749296912"><ele>71.0</ele><time>2026-04-16T15:38:06.999Z</time></trkpt><trkpt lat="50.941625059809475" lon="5.050177696799121"><ele>71.0</ele><time>2026-04-16T15:38:07.998Z</time></trkpt><trkpt lat="50.94171596844757" lon="5.05007971530348"><ele>71.0</ele><time>2026-04-16T15:38:08.998Z</time></trkpt><trkpt lat="50.941782223524434" lon="5.050007681534214"><ele>70.66666666666667</ele><time>2026-04-16T15:38:09.998Z</time></trkpt><trkpt lat="50.94183771392917" lon="5.049940348419469"><ele>70.33333333333334</ele><time>2026-04-16T15:38:10.998Z</time></trkpt><trkpt lat="50.94193296553929" lon="5.0498545384132445"><ele>70.0</ele><time>2026-04-16T15:38:12.998Z</time></trkpt><trkpt lat="50.94203629459366" lon="5.04984862100322"><ele>69.66666666666667</ele><time>2026-04-16T15:38:14.998Z</time></trkpt><trkpt lat="50.94208564854262" lon="5.04997883904057"><ele>69.33333333333333</ele><time>2026-04-16T15:38:16.998Z</time></trkpt><trkpt lat="50.94210698258611" lon="5.0500731028606864"><ele>69.0</ele><time>2026-04-16T15:38:17.998Z</time></trkpt><trkpt lat="50.94213755979433" lon="5.050190613694968"><ele>69.0</ele><time>2026-04-16T15:38:18.998Z</time></trkpt><trkpt lat="50.94217260849812" lon="5.05032049702693"><ele>69.0</ele><time>2026-04-16T15:38:19.998Z</time></trkpt><trkpt lat="50.94221728299302" lon="5.050482963289017"><ele>69.0</ele><time>2026-04-16T15:38:20.998Z</time></trkpt><trkpt lat="50.9422577848302" lon="5.050611685553043"><ele>69.0</ele><time>2026-04-16T15:38:21.998Z</time></trkpt><trkpt lat="50.94229506609717" lon="5.050731537209884"><ele>69.0</ele><time>2026-04-16T15:38:22.998Z</time></trkpt><trkpt lat="50.94233743382269" lon="5.0508799253921906"><ele>69.0</ele><time>2026-04-16T15:38:23.998Z</time></trkpt><trkpt lat="50.942384524090826" lon="5.051042662800656"><ele>69.0</ele><time>2026-04-16T15:38:24.998Z</time></trkpt><trkpt lat="50.94242924466047" lon="5.051191628512209"><ele>69.0</ele><time>2026-04-16T15:38:25.998Z</time></trkpt><trkpt lat="50.942484896401815" lon="5.051355326837918"><ele>69.0</ele><time>2026-04-16T15:38:26.998Z</time></trkpt><trkpt lat="50.9425323707962" lon="5.051505769189702"><ele>69.0</ele><time>2026-04-16T15:38:27.998Z</time></trkpt><trkpt lat="50.94258062671197" lon="5.051668164784691"><ele>68.8</ele><time>2026-04-16T15:38:28.998Z</time></trkpt><trkpt lat="50.942627226406174" lon="5.051831659570308"><ele>68.60000000000001</ele><time>2026-04-16T15:38:29.998Z</time></trkpt><trkpt lat="50.942675270696775" lon="5.05199186675829"><ele>68.4</ele><time>2026-04-16T15:38:30.998Z</time></trkpt><trkpt lat="50.94271592889106" lon="5.052144183487504"><ele>68.2</ele><time>2026-04-16T15:38:31.998Z</time></trkpt><trkpt lat="50.942760825222834" lon="5.05229962015707"><ele>68.0</ele><time>2026-04-16T15:38:32.998Z</time></trkpt><trkpt lat="50.942794549188804" lon="5.052417390813731"><ele>67.8</ele><time>2026-04-16T15:38:33.998Z</time></trkpt><trkpt lat="50.94283296058345" lon="5.052546930642778"><ele>67.6</ele><time>2026-04-16T15:38:34.998Z</time></trkpt><trkpt lat="50.942872816298646" lon="5.052687241720073"><ele>67.4</ele><time>2026-04-16T15:38:35.998Z</time></trkpt><trkpt lat="50.942913848344574" lon="5.0528288090814435"><ele>67.2</ele><time>2026-04-16T15:38:36.998Z</time></trkpt><trkpt lat="50.94296313835606" lon="5.05299116775724"><ele>67.0</ele><time>2026-04-16T15:38:37.998Z</time></trkpt><trkpt lat="50.94301490031853" lon="5.0531609253594585"><ele>66.8</ele><time>2026-04-16T15:38:38.998Z</time></trkpt><trkpt lat="50.94306256208775" lon="5.053323054734397"><ele>66.6</ele><time>2026-04-16T15:38:39.998Z</time></trkpt><trkpt lat="50.94310936606117" lon="5.0534855652254675"><ele>66.39999999999999</ele><time>2026-04-16T15:38:40.998Z</time></trkpt><trkpt lat="50.9431511041705" lon="5.053620804352157"><ele>66.2</ele><time>2026-04-16T15:38:42Z</time></trkpt><trkpt lat="50.94320051576454" lon="5.053774548396209"><ele>66.0</ele><time>2026-04-16T15:38:43Z</time></trkpt><trkpt lat="50.94325152813077" lon="5.053937431029282"><ele>66.0</ele><time>2026-04-16T15:38:44Z</time></trkpt><trkpt lat="50.943298279178606" lon="5.0540897340882"><ele>66.0</ele><time>2026-04-16T15:38:45Z</time></trkpt><trkpt lat="50.94334485699488" lon="5.054251388838045"><ele>66.0</ele><time>2026-04-16T15:38:46Z</time></trkpt><trkpt lat="50.94338942594567" lon="5.054402606634959"><ele>66.0</ele><time>2026-04-16T15:38:47Z</time></trkpt><trkpt lat="50.94343587458524" lon="5.054559783471051"><ele>66.0</ele><time>2026-04-16T15:38:48Z</time></trkpt><trkpt lat="50.943486313083596" lon="5.054729842265208"><ele>65.83333333333333</ele><time>2026-04-16T15:38:49Z</time></trkpt><trkpt lat="50.94353246082635" lon="5.054897815376262"><ele>65.66666666666667</ele><time>2026-04-16T15:38:50Z</time></trkpt><trkpt lat="50.94356847492992" lon="5.055022615182701"><ele>65.5</ele><time>2026-04-16T15:38:51Z</time></trkpt><trkpt lat="50.94360519612623" lon="5.055143607321103"><ele>65.33333333333334</ele><time>2026-04-16T15:38:52Z</time></trkpt><trkpt lat="50.94363339199309" lon="5.055251296847937"><ele>65.16666666666667</ele><time>2026-04-16T15:38:53Z</time></trkpt><trkpt lat="50.943666059740096" lon="5.055371680378728"><ele>65.0</ele><time>2026-04-16T15:38:54Z</time></trkpt><trkpt lat="50.94369575817467" lon="5.055469896567511"><ele>64.6</ele><time>2026-04-16T15:38:55Z</time></trkpt><trkpt lat="50.943728310920704" lon="5.055599593046839"><ele>64.2</ele><time>2026-04-16T15:38:57Z</time></trkpt><trkpt lat="50.94386965936841" lon="5.0554873431846925"><ele>63.8</ele><time>2026-04-16T15:38:59Z</time></trkpt><trkpt lat="50.943909584841855" lon="5.055402788907499"><ele>63.4</ele><time>2026-04-16T15:39:00Z</time></trkpt><trkpt lat="50.943994752728244" lon="5.055268070209999"><ele>63.0</ele><time>2026-04-16T15:39:01Z</time></trkpt><trkpt lat="50.944078751347256" lon="5.055139259602232"><ele>63.0</ele><time>2026-04-16T15:39:02Z</time></trkpt><trkpt lat="50.94416103211029" lon="5.055022758397002"><ele>63.0</ele><time>2026-04-16T15:39:03Z</time></trkpt><trkpt lat="50.9442512283338" lon="5.054897946888078"><ele>63.0</ele><time>2026-04-16T15:39:04Z</time></trkpt><trkpt lat="50.94434476251638" lon="5.054772480669825"><ele>63.0</ele><time>2026-04-16T15:39:05Z</time></trkpt><trkpt lat="50.94442737159975" lon="5.054662412808857"><ele>63.2</ele><time>2026-04-16T15:39:06Z</time></trkpt><trkpt lat="50.94449797838604" lon="5.054546702883275"><ele>63.4</ele><time>2026-04-16T15:39:07Z</time></trkpt><trkpt lat="50.944536747980976" lon="5.054421221298247"><ele>63.60000000000001</ele><time>2026-04-16T15:39:08Z</time></trkpt><trkpt lat="50.944556379115376" lon="5.05427412304954"><ele>63.800000000000004</ele><time>2026-04-16T15:39:09Z</time></trkpt><trkpt lat="50.944553930441174" lon="5.054111916646767"><ele>64.0</ele><time>2026-04-16T15:39:10Z</time></trkpt><trkpt lat="50.94454544909186" lon="5.053942165027816"><ele>64.75</ele><time>2026-04-16T15:39:11Z</time></trkpt><trkpt lat="50.94455835463615" lon="5.05374791523882"><ele>65.5</ele><time>2026-04-16T15:39:12Z</time></trkpt><trkpt lat="50.94456643319839" lon="5.053536044541715"><ele>66.25</ele><time>2026-04-16T15:39:13Z</time></trkpt><trkpt lat="50.944579469152536" lon="5.053313423541871"><ele>67.0</ele><time>2026-04-16T15:39:14Z</time></trkpt><trkpt lat="50.94459093343064" lon="5.053078775640893"><ele>67.66666666666666</ele><time>2026-04-16T15:39:15Z</time></trkpt><trkpt lat="50.94460499044925" lon="5.05281560236812"><ele>68.33333333333333</ele><time>2026-04-16T15:39:16Z</time></trkpt><trkpt lat="50.944620019962095" lon="5.052533745111998"><ele>69.0</ele><time>2026-04-16T15:39:17Z</time></trkpt><trkpt lat="50.94463417048147" lon="5.052228063446489"><ele>69.0</ele><time>2026-04-16T15:39:18Z</time></trkpt><trkpt lat="50.944650346408935" lon="5.051970084474878"><ele>69.0</ele><time>2026-04-16T15:39:19Z</time></trkpt><trkpt lat="50.94466183646733" lon="5.051773446967965"><ele>69.0</ele><time>2026-04-16T15:39:20Z</time></trkpt><trkpt lat="50.94468323030095" lon="5.051590434960031"><ele>69.0</ele><time>2026-04-16T15:39:21Z</time></trkpt><trkpt lat="50.944689569093455" lon="5.051441529669334"><ele>69.0</ele><time>2026-04-16T15:39:22Z</time></trkpt><trkpt lat="50.94469988069457" lon="5.051290235399173"><ele>69.0</ele><time>2026-04-16T15:39:23Z</time></trkpt><trkpt lat="50.94473052109231" lon="5.051163653271693"><ele>69.0</ele><time>2026-04-16T15:39:24Z</time></trkpt><trkpt lat="50.94478766104318" lon="5.051064503366317"><ele>69.0</ele><time>2026-04-16T15:39:25Z</time></trkpt><trkpt lat="50.94488733895085" lon="5.051041143280052"><ele>69.0</ele><time>2026-04-16T15:39:26Z</time></trkpt><trkpt lat="50.94499212190564" lon="5.050992363213934"><ele>69.16666666666667</ele><time>2026-04-16T15:39:26.999Z</time></trkpt><trkpt lat="50.94506122036368" lon="5.050959331933323"><ele>69.33333333333333</ele><time>2026-04-16T15:39:27.999Z</time></trkpt><trkpt lat="50.94513291742446" lon="5.0509336505943505"><ele>69.5</ele><time>2026-04-16T15:39:28.999Z</time></trkpt><trkpt lat="50.94523376635673" lon="5.050880522583382"><ele>69.66666666666666</ele><time>2026-04-16T15:39:30.999Z</time></trkpt><trkpt lat="50.94531041811048" lon="5.050778333491324"><ele>69.83333333333333</ele><time>2026-04-16T15:39:32.999Z</time></trkpt><trkpt lat="50.94531811347378" lon="5.050678756462642"><ele>70.0</ele><time>2026-04-16T15:39:33.999Z</time></trkpt><trkpt lat="50.94527750477705" lon="5.050573017684803"><ele>70.33333333333333</ele><time>2026-04-16T15:39:34.999Z</time></trkpt><trkpt lat="50.94523308406627" lon="5.050461732608086"><ele>70.66666666666666</ele><time>2026-04-16T15:39:35.999Z</time></trkpt><trkpt lat="50.945214188321614" lon="5.050342574822664"><ele>71.0</ele><time>2026-04-16T15:39:36.999Z</time></trkpt><trkpt lat="50.9451774318431" lon="5.050218507376788"><ele>71.33333333333333</ele><time>2026-04-16T15:39:37.999Z</time></trkpt><trkpt lat="50.94516147295503" lon="5.0501046515261505"><ele>71.66666666666667</ele><time>2026-04-16T15:39:38.999Z</time></trkpt><trkpt lat="50.945132689599845" lon="5.050012222551808"><ele>72.0</ele><time>2026-04-16T15:39:39.999Z</time></trkpt><trkpt lat="50.945096481122064" lon="5.049833066332945"><ele>72.0</ele><time>2026-04-16T15:39:41.999Z</time></trkpt><trkpt lat="50.9454210947487" lon="5.049637786274854"><ele>72.0</ele><time>2026-04-16T15:39:42.999Z</time></trkpt><trkpt lat="50.94550658159092" lon="5.049570576075341"><ele>72.0</ele><time>2026-04-16T15:39:43.999Z</time></trkpt><trkpt lat="50.94560603980184" lon="5.049496366713315"><ele>72.0</ele><time>2026-04-16T15:39:44.999Z</time></trkpt><trkpt lat="50.945704255207495" lon="5.049427681298078"><ele>72.0</ele><time>2026-04-16T15:39:45.999Z</time></trkpt><trkpt lat="50.94578784589518" lon="5.049360792881827"><ele>72.0</ele><time>2026-04-16T15:39:46.999Z</time></trkpt><trkpt lat="50.94588154610916" lon="5.049283701833989"><ele>72.0</ele><time>2026-04-16T15:39:47.999Z</time></trkpt><trkpt lat="50.94597232279834" lon="5.049206708609741"><ele>72.0</ele><time>2026-04-16T15:39:48.999Z</time></trkpt><trkpt lat="50.94605559142165" lon="5.049139210317703"><ele>71.33333333333333</ele><time>2026-04-16T15:39:49.999Z</time></trkpt><trkpt lat="50.946136615179526" lon="5.049070885213794"><ele>70.66666666666667</ele><time>2026-04-16T15:39:50.999Z</time></trkpt><trkpt lat="50.94621008521539" lon="5.049001639560237"><ele>70.0</ele><time>2026-04-16T15:39:51.999Z</time></trkpt><trkpt lat="50.94628769264459" lon="5.048937046608706"><ele>69.33333333333334</ele><time>2026-04-16T15:39:52.999Z</time></trkpt><trkpt lat="50.94634836307544" lon="5.048892781060889"><ele>68.66666666666667</ele><time>2026-04-16T15:39:53.999Z</time></trkpt><trkpt lat="50.94645238291794" lon="5.048872079955356"><ele>68.0</ele><time>2026-04-16T15:39:55.999Z</time></trkpt><trkpt lat="50.94653365347414" lon="5.048950527652392"><ele>68.0</ele><time>2026-04-16T15:39:57.999Z</time></trkpt><trkpt lat="50.946578585129664" lon="5.0490438362992744"><ele>68.0</ele><time>2026-04-16T15:39:58.999Z</time></trkpt><trkpt lat="50.946588538801116" lon="5.049203225630314"><ele>68.0</ele><time>2026-04-16T15:39:59.999Z</time></trkpt><trkpt lat="50.94664457812777" lon="5.049344077170773"><ele>68.0</ele><time>2026-04-16T15:40:00.999Z</time></trkpt><trkpt lat="50.946717267333526" lon="5.049496127882977"><ele>68.0</ele><time>2026-04-16T15:40:01.999Z</time></trkpt><trkpt lat="50.94678421050889" lon="5.0496983018151695"><ele>68.0</ele><time>2026-04-16T15:40:02.999Z</time></trkpt><trkpt lat="50.94686480896755" lon="5.049895420177797"><ele>68.0</ele><time>2026-04-16T15:40:03.999Z</time></trkpt><trkpt lat="50.94694842975208" lon="5.050099170679469"><ele>68.0</ele><time>2026-04-16T15:40:04.999Z</time></trkpt><trkpt lat="50.94705874222948" lon="5.05031910418604"><ele>68.0</ele><time>2026-04-16T15:40:05.999Z</time></trkpt><trkpt lat="50.947149062006034" lon="5.050564809466567"><ele>68.0</ele><time>2026-04-16T15:40:06.999Z</time></trkpt><trkpt lat="50.947258730606364" lon="5.05081480973339"><ele>68.0</ele><time>2026-04-16T15:40:07.999Z</time></trkpt><trkpt lat="50.94736210208468" lon="5.0510491534535396"><ele>68.0</ele><time>2026-04-16T15:40:08.999Z</time></trkpt><trkpt lat="50.94747394254746" lon="5.051303796972292"><ele>68.0</ele><time>2026-04-16T15:40:09.999Z</time></trkpt><trkpt lat="50.94759042107176" lon="5.051548051124406"><ele>68.0</ele><time>2026-04-16T15:40:10.999Z</time></trkpt><trkpt lat="50.94771828211643" lon="5.051779028223394"><ele>67.66666666666667</ele><time>2026-04-16T15:40:11.999Z</time></trkpt><trkpt lat="50.947833009813166" lon="5.052017381723199"><ele>67.33333333333333</ele><time>2026-04-16T15:40:12.998Z</time></trkpt><trkpt lat="50.94795961204057" lon="5.052270215851207"><ele>67.0</ele><time>2026-04-16T15:40:13.998Z</time></trkpt><trkpt lat="50.948094220501" lon="5.052533424570539"><ele>67.0</ele><time>2026-04-16T15:40:14.998Z</time></trkpt><trkpt lat="50.94822667639154" lon="5.052820227772524"><ele>67.0</ele><time>2026-04-16T15:40:15.998Z</time></trkpt><trkpt lat="50.948389068596" lon="5.053074597517831"><ele>66.5</ele><time>2026-04-16T15:40:16.998Z</time></trkpt><trkpt lat="50.94854881580139" lon="5.053359080710836"><ele>66.0</ele><time>2026-04-16T15:40:17.998Z</time></trkpt><trkpt lat="50.948712894638895" lon="5.053643671822968"><ele>66.0</ele><time>2026-04-16T15:40:18.998Z</time></trkpt><trkpt lat="50.94886415630398" lon="5.0539241288774415"><ele>66.0</ele><time>2026-04-16T15:40:19.998Z</time></trkpt><trkpt lat="50.949013922127605" lon="5.054197427552979"><ele>66.0</ele><time>2026-04-16T15:40:20.998Z</time></trkpt><trkpt lat="50.949157675312975" lon="5.054464556245985"><ele>66.0</ele><time>2026-04-16T15:40:21.998Z</time></trkpt><trkpt lat="50.94929637152563" lon="5.0547224120042085"><ele>66.0</ele><time>2026-04-16T15:40:22.998Z</time></trkpt><trkpt lat="50.9494446197863" lon="5.054992179904412"><ele>66.0</ele><time>2026-04-16T15:40:23.998Z</time></trkpt><trkpt lat="50.94959253828643" lon="5.055249513935971"><ele>66.0</ele><time>2026-04-16T15:40:24.998Z</time></trkpt><trkpt lat="50.94975009492853" lon="5.055509045443552"><ele>66.0</ele><time>2026-04-16T15:40:25.998Z</time></trkpt><trkpt lat="50.94990217912424" lon="5.055760050997956"><ele>65.5</ele><time>2026-04-16T15:40:26.998Z</time></trkpt><trkpt lat="50.950052709286005" lon="5.056036252869624"><ele>65.0</ele><time>2026-04-16T15:40:27.998Z</time></trkpt><trkpt lat="50.950209974660666" lon="5.056288173297343"><ele>65.0</ele><time>2026-04-16T15:40:28.998Z</time></trkpt><trkpt lat="50.95037224469456" lon="5.056543852281573"><ele>65.0</ele><time>2026-04-16T15:40:29.998Z</time></trkpt><trkpt lat="50.95053312924087" lon="5.05681809526162"><ele>64.5</ele><time>2026-04-16T15:40:30.998Z</time></trkpt><trkpt lat="50.950707227771346" lon="5.057079753967729"><ele>64.0</ele><time>2026-04-16T15:40:31.998Z</time></trkpt><trkpt lat="50.95088536258145" lon="5.057312321169928"><ele>63.0</ele><time>2026-04-16T15:40:32.998Z</time></trkpt><trkpt lat="50.951059886586556" lon="5.057579545941328"><ele>62.0</ele><time>2026-04-16T15:40:33.998Z</time></trkpt><trkpt lat="50.95121834669984" lon="5.057848677192407"><ele>62.0</ele><time>2026-04-16T15:40:34.998Z</time></trkpt><trkpt lat="50.95138977623779" lon="5.058106309024233"><ele>62.0</ele><time>2026-04-16T15:40:35.998Z</time></trkpt><trkpt lat="50.95156331512256" lon="5.058366593748886"><ele>60.0</ele><time>2026-04-16T15:40:36.998Z</time></trkpt><trkpt lat="50.95173013486408" lon="5.058617079959252"><ele>58.0</ele><time>2026-04-16T15:40:37.998Z</time></trkpt><trkpt lat="50.95189813422235" lon="5.058869337769881"><ele>58.0</ele><time>2026-04-16T15:40:38.998Z</time></trkpt><trkpt lat="50.9520671294823" lon="5.059087006079508"><ele>58.0</ele><time>2026-04-16T15:40:39.998Z</time></trkpt><trkpt lat="50.95222500274422" lon="5.0593604876830955"><ele>58.666666666666664</ele><time>2026-04-16T15:40:40.998Z</time></trkpt><trkpt lat="50.952385867071655" lon="5.059602418855028"><ele>59.33333333333333</ele><time>2026-04-16T15:40:41.998Z</time></trkpt><trkpt lat="50.95255275346646" lon="5.05982778002187"><ele>60.0</ele><time>2026-04-16T15:40:42.998Z</time></trkpt><trkpt lat="50.95270752302854" lon="5.060098348486348"><ele>58.0</ele><time>2026-04-16T15:40:43.998Z</time></trkpt><trkpt lat="50.95287804047886" lon="5.060357473765947"><ele>56.0</ele><time>2026-04-16T15:40:44.998Z</time></trkpt><trkpt lat="50.953043939249405" lon="5.060616662406297"><ele>56.66666666666667</ele><time>2026-04-16T15:40:45.998Z</time></trkpt><trkpt lat="50.95320871993141" lon="5.0608406563507495"><ele>57.33333333333333</ele><time>2026-04-16T15:40:46.998Z</time></trkpt><trkpt lat="50.953345798635056" lon="5.061094730240681"><ele>58.0</ele><time>2026-04-16T15:40:48Z</time></trkpt><trkpt lat="50.953493207815995" lon="5.061291235470193"><ele>57.0</ele><time>2026-04-16T15:40:49Z</time></trkpt><trkpt lat="50.95362734101889" lon="5.061503692191118"><ele>56.0</ele><time>2026-04-16T15:40:50Z</time></trkpt><trkpt lat="50.95374877650526" lon="5.061712286212079"><ele>55.0</ele><time>2026-04-16T15:40:51Z</time></trkpt><trkpt lat="50.95387959678116" lon="5.061908789460181"><ele>55.0</ele><time>2026-04-16T15:40:52Z</time></trkpt><trkpt lat="50.95400134005565" lon="5.062111890229702"><ele>55.0</ele><time>2026-04-16T15:40:53Z</time></trkpt><trkpt lat="50.95412577113669" lon="5.062310613709965"><ele>55.0</ele><time>2026-04-16T15:40:54Z</time></trkpt><trkpt lat="50.954251657371906" lon="5.0625088671535305"><ele>54.0</ele><time>2026-04-16T15:40:55Z</time></trkpt><trkpt lat="50.95438456923815" lon="5.062709366611083"><ele>53.0</ele><time>2026-04-16T15:40:56Z</time></trkpt><trkpt lat="50.954497811049585" lon="5.062931044468354"><ele>52.0</ele><time>2026-04-16T15:40:57Z</time></trkpt><trkpt lat="50.954622815978475" lon="5.063147513109402"><ele>52.0</ele><time>2026-04-16T15:40:58Z</time></trkpt><trkpt lat="50.954751494529205" lon="5.063370341085445"><ele>52.0</ele><time>2026-04-16T15:40:59Z</time></trkpt><trkpt lat="50.95488479695301" lon="5.063601175929229"><ele>52.0</ele><time>2026-04-16T15:41:00Z</time></trkpt><trkpt lat="50.95503340102666" lon="5.063819161213449"><ele>51.33333333333333</ele><time>2026-04-16T15:41:01Z</time></trkpt><trkpt lat="50.955177600508065" lon="5.064054865673588"><ele>50.66666666666667</ele><time>2026-04-16T15:41:02Z</time></trkpt><trkpt lat="50.955335530615365" lon="5.064286654042856"><ele>50.0</ele><time>2026-04-16T15:41:03Z</time></trkpt><trkpt lat="50.95549377158485" lon="5.064518054413018"><ele>50.0</ele><time>2026-04-16T15:41:04Z</time></trkpt><trkpt lat="50.955648405347745" lon="5.064748305293494"><ele>50.0</ele><time>2026-04-16T15:41:05Z</time></trkpt><trkpt lat="50.95578152533024" lon="5.064952626395715"><ele>50.0</ele><time>2026-04-16T15:41:06Z</time></trkpt><trkpt lat="50.955917497421645" lon="5.065160706754886"><ele>49.66666666666667</ele><time>2026-04-16T15:41:07Z</time></trkpt><trkpt lat="50.95604565170375" lon="5.065351541762887"><ele>49.33333333333333</ele><time>2026-04-16T15:41:08Z</time></trkpt><trkpt lat="50.95617715369774" lon="5.065547279398113"><ele>49.0</ele><time>2026-04-16T15:41:09Z</time></trkpt><trkpt lat="50.95631454715915" lon="5.065750288688236"><ele>48.666666666666664</ele><time>2026-04-16T15:41:10Z</time></trkpt><trkpt lat="50.956414389716834" lon="5.0659045126936855"><ele>48.33333333333333</ele><time>2026-04-16T15:41:11Z</time></trkpt><trkpt lat="50.95653418735298" lon="5.0660859080378495"><ele>48.0</ele><time>2026-04-16T15:41:12Z</time></trkpt><trkpt lat="50.956652535073445" lon="5.066262750882621"><ele>47.25</ele><time>2026-04-16T15:41:13Z</time></trkpt><trkpt lat="50.9567656380111" lon="5.066431648676984"><ele>46.5</ele><time>2026-04-16T15:41:14Z</time></trkpt><trkpt lat="50.956868499213634" lon="5.066590294758842"><ele>45.75</ele><time>2026-04-16T15:41:15Z</time></trkpt><trkpt lat="50.95696379913608" lon="5.066742806254752"><ele>45.0</ele><time>2026-04-16T15:41:16Z</time></trkpt><trkpt lat="50.95705046531925" lon="5.0668904999143205"><ele>45.0</ele><time>2026-04-16T15:41:17Z</time></trkpt><trkpt lat="50.9571301110251" lon="5.067058494288412"><ele>45.0</ele><time>2026-04-16T15:41:18Z</time></trkpt><trkpt lat="50.9571905063706" lon="5.067264685482522"><ele>45.0</ele><time>2026-04-16T15:41:19Z</time></trkpt><trkpt lat="50.957228063913405" lon="5.067491366496185"><ele>45.0</ele><time>2026-04-16T15:41:20Z</time></trkpt><trkpt lat="50.957252250518366" lon="5.0677351412062945"><ele>44.666666666666664</ele><time>2026-04-16T15:41:21Z</time></trkpt><trkpt lat="50.9572848803459" lon="5.067974802568308"><ele>44.33333333333333</ele><time>2026-04-16T15:41:22Z</time></trkpt><trkpt lat="50.95733069539591" lon="5.068220245625875"><ele>44.0</ele><time>2026-04-16T15:41:23Z</time></trkpt><trkpt lat="50.957381180576604" lon="5.068457379801607"><ele>43.666666666666664</ele><time>2026-04-16T15:41:24Z</time></trkpt><trkpt lat="50.95742981446423" lon="5.068693098158705"><ele>43.333333333333336</ele><time>2026-04-16T15:41:25Z</time></trkpt><trkpt lat="50.95747893309406" lon="5.06893572264035"><ele>43.0</ele><time>2026-04-16T15:41:26Z</time></trkpt><trkpt lat="50.95753310444454" lon="5.069186700860761"><ele>41.66666666666667</ele><time>2026-04-16T15:41:27Z</time></trkpt><trkpt lat="50.95758980892521" lon="5.069434630860339"><ele>40.333333333333336</ele><time>2026-04-16T15:41:28Z</time></trkpt><trkpt lat="50.957650935661945" lon="5.069691559944902"><ele>39.0</ele><time>2026-04-16T15:41:29Z</time></trkpt><trkpt lat="50.957710995336136" lon="5.069945940722995"><ele>38.75</ele><time>2026-04-16T15:41:30Z</time></trkpt><trkpt lat="50.95777017139822" lon="5.070186783328385"><ele>38.5</ele><time>2026-04-16T15:41:31Z</time></trkpt><trkpt lat="50.95782568358677" lon="5.070396654626716"><ele>38.25</ele><time>2026-04-16T15:41:32Z</time></trkpt><trkpt lat="50.95788521916716" lon="5.07059530199125"><ele>38.0</ele><time>2026-04-16T15:41:32.999Z</time></trkpt><trkpt lat="50.95795141318324" lon="5.0708009251246535"><ele>37.75</ele><time>2026-04-16T15:41:33.999Z</time></trkpt><trkpt lat="50.95802151280574" lon="5.0710127527334485"><ele>37.5</ele><time>2026-04-16T15:41:34.999Z</time></trkpt><trkpt lat="50.95808015763834" lon="5.071227857706666"><ele>37.25</ele><time>2026-04-16T15:41:35.999Z</time></trkpt><trkpt lat="50.95813250221738" lon="5.071418672074541"><ele>37.0</ele><time>2026-04-16T15:41:36.999Z</time></trkpt><trkpt lat="50.958172904409786" lon="5.071572224469213"><ele>37.4</ele><time>2026-04-16T15:41:37.999Z</time></trkpt><trkpt lat="50.958217258606346" lon="5.071695556715179"><ele>37.800000000000004</ele><time>2026-04-16T15:41:38.999Z</time></trkpt><trkpt lat="50.95826242820904" lon="5.071835503627082"><ele>38.2</ele><time>2026-04-16T15:41:39.999Z</time></trkpt><trkpt lat="50.95827245589132" lon="5.072023553942982"><ele>38.6</ele><time>2026-04-16T15:41:40.999Z</time></trkpt><trkpt lat="50.95829642093804" lon="5.072212201123485"><ele>39.0</ele><time>2026-04-16T15:41:41.999Z</time></trkpt><trkpt lat="50.958338532339084" lon="5.072377747761248"><ele>38.6</ele><time>2026-04-16T15:41:42.999Z</time></trkpt><trkpt lat="50.958403802745586" lon="5.072529563198528"><ele>38.2</ele><time>2026-04-16T15:41:43.999Z</time></trkpt><trkpt lat="50.95844076432488" lon="5.0726901378639155"><ele>37.800000000000004</ele><time>2026-04-16T15:41:44.999Z</time></trkpt><trkpt lat="50.95846071169459" lon="5.072860069506153"><ele>37.4</ele><time>2026-04-16T15:41:45.999Z</time></trkpt><trkpt lat="50.95849033955845" lon="5.073027697523928"><ele>37.0</ele><time>2026-04-16T15:41:46.999Z</time></trkpt><trkpt lat="50.95851009272307" lon="5.073227708634011"><ele>37.0</ele><time>2026-04-16T15:41:47.999Z</time></trkpt><trkpt lat="50.95854478765892" lon="5.073404478002882"><ele>37.0</ele><time>2026-04-16T15:41:48.999Z</time></trkpt><trkpt lat="50.9585871097933" lon="5.073558490304741"><ele>37.0</ele><time>2026-04-16T15:41:49.999Z</time></trkpt><trkpt lat="50.95862225611788" lon="5.073739524437463"><ele>37.0</ele><time>2026-04-16T15:41:50.999Z</time></trkpt><trkpt lat="50.95866334152519" lon="5.073937349251656"><ele>37.0</ele><time>2026-04-16T15:41:51.999Z</time></trkpt><trkpt lat="50.95869776646644" lon="5.074117357963384"><ele>37.0</ele><time>2026-04-16T15:41:52.999Z</time></trkpt><trkpt lat="50.95874157587171" lon="5.074292940094428"><ele>37.0</ele><time>2026-04-16T15:41:53.999Z</time></trkpt><trkpt lat="50.95878308299505" lon="5.074477268908735"><ele>37.0</ele><time>2026-04-16T15:41:54.999Z</time></trkpt><trkpt lat="50.95882225184387" lon="5.074656626526512"><ele>37.0</ele><time>2026-04-16T15:41:55.999Z</time></trkpt><trkpt lat="50.95886185873048" lon="5.0748379635940495"><ele>37.0</ele><time>2026-04-16T15:41:56.999Z</time></trkpt><trkpt lat="50.9589021461621" lon="5.075010980550531"><ele>37.0</ele><time>2026-04-16T15:41:57.999Z</time></trkpt><trkpt lat="50.958917857022485" lon="5.075171897647257"><ele>37.0</ele><time>2026-04-16T15:41:58.999Z</time></trkpt><trkpt lat="50.95893488382211" lon="5.075320769992515"><ele>37.0</ele><time>2026-04-16T15:41:59.999Z</time></trkpt><trkpt lat="50.95895274997623" lon="5.075487990370475"><ele>36.800000000000004</ele><time>2026-04-16T15:42:00.999Z</time></trkpt><trkpt lat="50.9589620699256" lon="5.075676876050451"><ele>36.6</ele><time>2026-04-16T15:42:01.999Z</time></trkpt><trkpt lat="50.958978316429956" lon="5.075846498258277"><ele>36.400000000000006</ele><time>2026-04-16T15:42:02.999Z</time></trkpt><trkpt lat="50.958974798695785" lon="5.0759868594401505"><ele>36.2</ele><time>2026-04-16T15:42:03.999Z</time></trkpt><trkpt lat="50.95900964557807" lon="5.076143357577079"><ele>36.0</ele><time>2026-04-16T15:42:04.999Z</time></trkpt><trkpt lat="50.959029219285085" lon="5.076310641595502"><ele>37.0</ele><time>2026-04-16T15:42:05.999Z</time></trkpt><trkpt lat="50.95905398246781" lon="5.076477518225792"><ele>38.0</ele><time>2026-04-16T15:42:06.999Z</time></trkpt><trkpt lat="50.959073905937736" lon="5.076680918487591"><ele>39.0</ele><time>2026-04-16T15:42:07.999Z</time></trkpt><trkpt lat="50.95909842423032" lon="5.076889142677429"><ele>40.0</ele><time>2026-04-16T15:42:08.999Z</time></trkpt><trkpt lat="50.959135025957636" lon="5.077055547493393"><ele>39.75</ele><time>2026-04-16T15:42:09.999Z</time></trkpt><trkpt lat="50.95918185957185" lon="5.077222315705214"><ele>39.5</ele><time>2026-04-16T15:42:10.999Z</time></trkpt><trkpt lat="50.95924758743127" lon="5.077395024350679"><ele>39.25</ele><time>2026-04-16T15:42:11.999Z</time></trkpt><trkpt lat="50.95933489160434" lon="5.077529173410274"><ele>39.0</ele><time>2026-04-16T15:42:12.999Z</time></trkpt><trkpt lat="50.9594074923113" lon="5.077698627370149"><ele>40.75</ele><time>2026-04-16T15:42:13.999Z</time></trkpt><trkpt lat="50.95948510184703" lon="5.07787514679288"><ele>42.5</ele><time>2026-04-16T15:42:14.999Z</time></trkpt><trkpt lat="50.959546904882004" lon="5.078055295869657"><ele>44.25</ele><time>2026-04-16T15:42:15.999Z</time></trkpt><trkpt lat="50.95962251115083" lon="5.078237826650188"><ele>46.0</ele><time>2026-04-16T15:42:16.999Z</time></trkpt><trkpt lat="50.95969448598092" lon="5.078421798160883"><ele>46.25</ele><time>2026-04-16T15:42:17.999Z</time></trkpt><trkpt lat="50.95977742830529" lon="5.078597516748212"><ele>46.5</ele><time>2026-04-16T15:42:18.998Z</time></trkpt><trkpt lat="50.959841039112185" lon="5.078785727564737"><ele>46.75</ele><time>2026-04-16T15:42:19.998Z</time></trkpt><trkpt lat="50.95988479617676" lon="5.078971594001861"><ele>47.0</ele><time>2026-04-16T15:42:20.998Z</time></trkpt><trkpt lat="50.95991047919294" lon="5.079139434150428"><ele>47.5</ele><time>2026-04-16T15:42:21.998Z</time></trkpt><trkpt lat="50.95991327130739" lon="5.079322858686203"><ele>48.0</ele><time>2026-04-16T15:42:22.998Z</time></trkpt><trkpt lat="50.9599137769604" lon="5.079527313285269"><ele>48.5</ele><time>2026-04-16T15:42:23.998Z</time></trkpt><trkpt lat="50.95992319008887" lon="5.079705514575239"><ele>49.0</ele><time>2026-04-16T15:42:24.998Z</time></trkpt><trkpt lat="50.95989376994878" lon="5.0798630861727405"><ele>49.0</ele><time>2026-04-16T15:42:25.998Z</time></trkpt><trkpt lat="50.95990770788393" lon="5.080018823887014"><ele>49.0</ele><time>2026-04-16T15:42:26.998Z</time></trkpt><trkpt lat="50.95991547994258" lon="5.080179163474937"><ele>49.0</ele><time>2026-04-16T15:42:27.998Z</time></trkpt><trkpt lat="50.95989923072946" lon="5.080363700330456"><ele>49.0</ele><time>2026-04-16T15:42:28.998Z</time></trkpt><trkpt lat="50.95989672227039" lon="5.080561618512152"><ele>49.0</ele><time>2026-04-16T15:42:29.998Z</time></trkpt><trkpt lat="50.95988633237055" lon="5.080726671416846"><ele>48.6</ele><time>2026-04-16T15:42:30.998Z</time></trkpt><trkpt lat="50.95987003357578" lon="5.080886237600722"><ele>48.2</ele><time>2026-04-16T15:42:31.998Z</time></trkpt><trkpt lat="50.959842476863315" lon="5.0810302229901"><ele>47.800000000000004</ele><time>2026-04-16T15:42:32.998Z</time></trkpt><trkpt lat="50.959809086786684" lon="5.081203877488394"><ele>47.400000000000006</ele><time>2026-04-16T15:42:33.998Z</time></trkpt><trkpt lat="50.95976723050932" lon="5.0813986762677175"><ele>47.0</ele><time>2026-04-16T15:42:34.998Z</time></trkpt><trkpt lat="50.95971482872923" lon="5.081607863811404"><ele>46.25</ele><time>2026-04-16T15:42:35.998Z</time></trkpt><trkpt lat="50.95967018719157" lon="5.0817934819349295"><ele>45.5</ele><time>2026-04-16T15:42:36.998Z</time></trkpt><trkpt lat="50.959624469383414" lon="5.081956677005181"><ele>44.75</ele><time>2026-04-16T15:42:37.998Z</time></trkpt><trkpt lat="50.959586557009075" lon="5.08211815056835"><ele>44.0</ele><time>2026-04-16T15:42:38.998Z</time></trkpt><trkpt lat="50.95955527385515" lon="5.082280632352865"><ele>42.0</ele><time>2026-04-16T15:42:39.998Z</time></trkpt><trkpt lat="50.95951656558093" lon="5.082438798978482"><ele>40.0</ele><time>2026-04-16T15:42:40.998Z</time></trkpt><trkpt lat="50.959480461447214" lon="5.082616247401361"><ele>38.0</ele><time>2026-04-16T15:42:41.998Z</time></trkpt><trkpt lat="50.95944561455035" lon="5.082810690865398"><ele>36.0</ele><time>2026-04-16T15:42:42.998Z</time></trkpt><trkpt lat="50.95940795264908" lon="5.08302402440035"><ele>36.0</ele><time>2026-04-16T15:42:43.998Z</time></trkpt><trkpt lat="50.95938559626579" lon="5.083213674340854"><ele>36.0</ele><time>2026-04-16T15:42:44.998Z</time></trkpt><trkpt lat="50.959351164581925" lon="5.083385890924818"><ele>36.0</ele><time>2026-04-16T15:42:45.998Z</time></trkpt><trkpt lat="50.9593236211527" lon="5.0835446152857955"><ele>36.0</ele><time>2026-04-16T15:42:46.998Z</time></trkpt><trkpt lat="50.95928920143452" lon="5.083704356646618"><ele>36.0</ele><time>2026-04-16T15:42:47.998Z</time></trkpt><trkpt lat="50.95926330619615" lon="5.083873272367671"><ele>36.2</ele><time>2026-04-16T15:42:48.998Z</time></trkpt><trkpt lat="50.959219771041155" lon="5.084030786921104"><ele>36.400000000000006</ele><time>2026-04-16T15:42:49.998Z</time></trkpt><trkpt lat="50.95918621649153" lon="5.084209766357394"><ele>36.6</ele><time>2026-04-16T15:42:50.998Z</time></trkpt><trkpt lat="50.9591562639998" lon="5.084369831767321"><ele>36.800000000000004</ele><time>2026-04-16T15:42:51.998Z</time></trkpt><trkpt lat="50.959131946426" lon="5.084513740709102"><ele>37.0</ele><time>2026-04-16T15:42:52.998Z</time></trkpt><trkpt lat="50.959091589932356" lon="5.0846874887098235"><ele>37.0</ele><time>2026-04-16T15:42:54Z</time></trkpt><trkpt lat="50.95904790541667" lon="5.084874039549441"><ele>37.0</ele><time>2026-04-16T15:42:55Z</time></trkpt><trkpt lat="50.95900466217222" lon="5.085058705684898"><ele>37.0</ele><time>2026-04-16T15:42:56Z</time></trkpt><trkpt lat="50.95898221394197" lon="5.085247830729713"><ele>37.0</ele><time>2026-04-16T15:42:57Z</time></trkpt><trkpt lat="50.95897483828558" lon="5.085392873379405"><ele>35.5</ele><time>2026-04-16T15:42:58Z</time></trkpt><trkpt lat="50.95896744176244" lon="5.085544631205016"><ele>34.0</ele><time>2026-04-16T15:42:59Z</time></trkpt><trkpt lat="50.958794441810625" lon="5.085646628452584"><ele>32.5</ele><time>2026-04-16T15:43:00Z</time></trkpt><trkpt lat="50.95871431857461" lon="5.085804006211583"><ele>31.0</ele><time>2026-04-16T15:43:01Z</time></trkpt><trkpt lat="50.95862254048889" lon="5.085954657233926"><ele>31.0</ele><time>2026-04-16T15:43:02Z</time></trkpt><trkpt lat="50.95853231940349" lon="5.0861167877607265"><ele>31.0</ele><time>2026-04-16T15:43:03Z</time></trkpt><trkpt lat="50.95843733132047" lon="5.0862827817342575"><ele>31.0</ele><time>2026-04-16T15:43:04Z</time></trkpt><trkpt lat="50.95833858578106" lon="5.086445112271965"><ele>31.0</ele><time>2026-04-16T15:43:05Z</time></trkpt><trkpt lat="50.95824250480542" lon="5.086606350785921"><ele>30.75</ele><time>2026-04-16T15:43:06Z</time></trkpt><trkpt lat="50.95814815993757" lon="5.086767338985609"><ele>30.5</ele><time>2026-04-16T15:43:07Z</time></trkpt><trkpt lat="50.958052614540435" lon="5.086926776422306"><ele>30.25</ele><time>2026-04-16T15:43:08Z</time></trkpt><trkpt lat="50.95794865591082" lon="5.087080733642645"><ele>30.0</ele><time>2026-04-16T15:43:09Z</time></trkpt><trkpt lat="50.957846501886884" lon="5.0872320435193705"><ele>30.0</ele><time>2026-04-16T15:43:10Z</time></trkpt><trkpt lat="50.95773114571385" lon="5.087387855851109"><ele>30.0</ele><time>2026-04-16T15:43:11Z</time></trkpt><trkpt lat="50.957626527203836" lon="5.0875358919753575"><ele>30.0</ele><time>2026-04-16T15:43:12Z</time></trkpt><trkpt lat="50.95751410560464" lon="5.087679592206514"><ele>30.0</ele><time>2026-04-16T15:43:13Z</time></trkpt><trkpt lat="50.95740558021643" lon="5.087814565312964"><ele>29.5</ele><time>2026-04-16T15:43:14Z</time></trkpt><trkpt lat="50.957296825282796" lon="5.087954178198174"><ele>29.0</ele><time>2026-04-16T15:43:15Z</time></trkpt><trkpt lat="50.95719097568444" lon="5.0880908102902875"><ele>28.5</ele><time>2026-04-16T15:43:16Z</time></trkpt><trkpt lat="50.95708254426709" lon="5.088225072453398"><ele>28.0</ele><time>2026-04-16T15:43:17Z</time></trkpt><trkpt lat="50.95697583293573" lon="5.0883633583465935"><ele>28.0</ele><time>2026-04-16T15:43:18Z</time></trkpt><trkpt lat="50.95686873343092" lon="5.088504771889752"><ele>28.0</ele><time>2026-04-16T15:43:19Z</time></trkpt><trkpt lat="50.956752623523755" lon="5.088625581408322"><ele>28.0</ele><time>2026-04-16T15:43:20Z</time></trkpt><trkpt lat="50.95665282580593" lon="5.088783760441639"><ele>28.0</ele><time>2026-04-16T15:43:21Z</time></trkpt><trkpt lat="50.95654010400519" lon="5.088922534632987"><ele>28.0</ele><time>2026-04-16T15:43:22Z</time></trkpt><trkpt lat="50.95642900512797" lon="5.089063278505323"><ele>28.0</ele><time>2026-04-16T15:43:23Z</time></trkpt><trkpt lat="50.956316814928265" lon="5.089206188510099"><ele>28.0</ele><time>2026-04-16T15:43:24Z</time></trkpt><trkpt lat="50.956196063959766" lon="5.089326895088821"><ele>28.0</ele><time>2026-04-16T15:43:25Z</time></trkpt><trkpt lat="50.95608155860905" lon="5.089470235771243"><ele>28.0</ele><time>2026-04-16T15:43:26Z</time></trkpt><trkpt lat="50.955977628172896" lon="5.089632195800942"><ele>28.0</ele><time>2026-04-16T15:43:27Z</time></trkpt><trkpt lat="50.95585952521455" lon="5.089773901449803"><ele>28.0</ele><time>2026-04-16T15:43:28Z</time></trkpt><trkpt lat="50.95574633675228" lon="5.089910564748544"><ele>28.0</ele><time>2026-04-16T15:43:29Z</time></trkpt><trkpt lat="50.955638528757454" lon="5.090049121944927"><ele>28.0</ele><time>2026-04-16T15:43:30Z</time></trkpt><trkpt lat="50.95553738597579" lon="5.0901794080383915"><ele>28.0</ele><time>2026-04-16T15:43:31Z</time></trkpt><trkpt lat="50.95544652417823" lon="5.090300522925553"><ele>28.0</ele><time>2026-04-16T15:43:32Z</time></trkpt><trkpt lat="50.95536123324169" lon="5.090403146548988"><ele>28.0</ele><time>2026-04-16T15:43:33Z</time></trkpt><trkpt lat="50.95528353959059" lon="5.0904922575392915"><ele>28.000000000000004</ele><time>2026-04-16T15:43:34Z</time></trkpt><trkpt lat="50.95520270255536" lon="5.0905779918676215"><ele>28.0</ele><time>2026-04-16T15:43:35Z</time></trkpt><trkpt lat="50.955117395660714" lon="5.090616033150429"><ele>28.0</ele><time>2026-04-16T15:43:36Z</time></trkpt><trkpt lat="50.95505484198702" lon="5.090684440686026"><ele>28.0</ele><time>2026-04-16T15:43:36.999Z</time></trkpt><trkpt lat="50.95495573496685" lon="5.090724375625978"><ele>28.000000000000004</ele><time>2026-04-16T15:43:38.999Z</time></trkpt><trkpt lat="50.954881978550674" lon="5.090734569626155"><ele>28.0</ele><time>2026-04-16T15:43:40.999Z</time></trkpt><trkpt lat="50.95482677134699" lon="5.090520498329599"><ele>27.799999999999997</ele><time>2026-04-16T15:43:41.999Z</time></trkpt><trkpt lat="50.9547701228089" lon="5.090404681960546"><ele>27.599999999999998</ele><time>2026-04-16T15:43:42.999Z</time></trkpt><trkpt lat="50.954709434416344" lon="5.090277901899624"><ele>27.400000000000002</ele><time>2026-04-16T15:43:43.999Z</time></trkpt><trkpt lat="50.95466973363488" lon="5.090107566782962"><ele>27.200000000000003</ele><time>2026-04-16T15:43:44.999Z</time></trkpt><trkpt lat="50.95462637353703" lon="5.08999763358279"><ele>27.0</ele><time>2026-04-16T15:43:45.999Z</time></trkpt><trkpt lat="50.954563345936705" lon="5.089816601169286"><ele>26.6</ele><time>2026-04-16T15:43:46.999Z</time></trkpt><trkpt lat="50.95451218322324" lon="5.089659712765478"><ele>26.200000000000003</ele><time>2026-04-16T15:43:47.999Z</time></trkpt><trkpt lat="50.954469049752525" lon="5.089533729978129"><ele>25.8</ele><time>2026-04-16T15:43:48.999Z</time></trkpt><trkpt lat="50.95443521091126" lon="5.089428536043226"><ele>25.4</ele><time>2026-04-16T15:43:49.999Z</time></trkpt><trkpt lat="50.95440813324608" lon="5.089336461386632"><ele>25.0</ele><time>2026-04-16T15:43:50.999Z</time></trkpt><trkpt lat="50.95423406302984" lon="5.089480302273773"><ele>25.25</ele><time>2026-04-16T15:43:52.999Z</time></trkpt><trkpt lat="50.95416866705666" lon="5.089622661714666"><ele>25.5</ele><time>2026-04-16T15:43:53.999Z</time></trkpt><trkpt lat="50.9540883794235" lon="5.089787492881866"><ele>25.75</ele><time>2026-04-16T15:43:54.999Z</time></trkpt><trkpt lat="50.954000596633044" lon="5.08994590176759"><ele>26.0</ele><time>2026-04-16T15:43:55.999Z</time></trkpt><trkpt lat="50.953908844558995" lon="5.090128645925094"><ele>26.0</ele><time>2026-04-16T15:43:56.999Z</time></trkpt><trkpt lat="50.9538232008727" lon="5.090319654054225"><ele>26.0</ele><time>2026-04-16T15:43:57.999Z</time></trkpt><trkpt lat="50.95373857695973" lon="5.090534594044529"><ele>26.0</ele><time>2026-04-16T15:43:58.999Z</time></trkpt><trkpt lat="50.953645385131985" lon="5.090761221487989"><ele>26.0</ele><time>2026-04-16T15:43:59.999Z</time></trkpt><trkpt lat="50.953545737641235" lon="5.091007614401549"><ele>26.0</ele><time>2026-04-16T15:44:00.999Z</time></trkpt><trkpt lat="50.95344421870081" lon="5.091253928879858"><ele>26.0</ele><time>2026-04-16T15:44:01.999Z</time></trkpt><trkpt lat="50.95334265513971" lon="5.091499468960473"><ele>26.0</ele><time>2026-04-16T15:44:02.999Z</time></trkpt><trkpt lat="50.95323863479801" lon="5.091757834247806"><ele>26.0</ele><time>2026-04-16T15:44:03.999Z</time></trkpt><trkpt lat="50.95313159695972" lon="5.092026089679421"><ele>26.0</ele><time>2026-04-16T15:44:04.999Z</time></trkpt><trkpt lat="50.95302242682357" lon="5.092295761771546"><ele>25.333333333333332</ele><time>2026-04-16T15:44:05.999Z</time></trkpt><trkpt lat="50.95291263284736" lon="5.09256968228209"><ele>24.666666666666664</ele><time>2026-04-16T15:44:06.999Z</time></trkpt><trkpt lat="50.95279994229489" lon="5.092850894510718"><ele>24.0</ele><time>2026-04-16T15:44:07.999Z</time></trkpt><trkpt lat="50.95268534427747" lon="5.093133030619054"><ele>24.333333333333336</ele><time>2026-04-16T15:44:08.999Z</time></trkpt><trkpt lat="50.95257352351113" lon="5.093414326308408"><ele>24.666666666666668</ele><time>2026-04-16T15:44:09.999Z</time></trkpt><trkpt lat="50.95246613246531" lon="5.093687491074848"><ele>25.0</ele><time>2026-04-16T15:44:10.999Z</time></trkpt><trkpt lat="50.95235663191991" lon="5.093958656159993"><ele>25.333333333333336</ele><time>2026-04-16T15:44:11.999Z</time></trkpt><trkpt lat="50.95224736440245" lon="5.094237387584494"><ele>25.666666666666664</ele><time>2026-04-16T15:44:12.999Z</time></trkpt><trkpt lat="50.9521336193335" lon="5.0945123600810165"><ele>26.0</ele><time>2026-04-16T15:44:13.999Z</time></trkpt><trkpt lat="50.95201850711181" lon="5.094790503814333"><ele>25.666666666666664</ele><time>2026-04-16T15:44:14.999Z</time></trkpt><trkpt lat="50.95190497778863" lon="5.095069949809395"><ele>25.333333333333336</ele><time>2026-04-16T15:44:15.999Z</time></trkpt><trkpt lat="50.95179217284665" lon="5.095354042017734"><ele>25.0</ele><time>2026-04-16T15:44:16.999Z</time></trkpt><trkpt lat="50.951679176932984" lon="5.095638153849279"><ele>25.666666666666668</ele><time>2026-04-16T15:44:17.999Z</time></trkpt><trkpt lat="50.951564485585365" lon="5.095928104555283"><ele>26.333333333333336</ele><time>2026-04-16T15:44:18.999Z</time></trkpt><trkpt lat="50.95144903713636" lon="5.096212832901583"><ele>27.0</ele><time>2026-04-16T15:44:19.999Z</time></trkpt><trkpt lat="50.951337002445726" lon="5.096500490991498"><ele>25.666666666666668</ele><time>2026-04-16T15:44:20.999Z</time></trkpt><trkpt lat="50.95122604237412" lon="5.0967861058936705"><ele>24.333333333333336</ele><time>2026-04-16T15:44:21.999Z</time></trkpt><trkpt lat="50.95111227118151" lon="5.097072419336345"><ele>23.0</ele><time>2026-04-16T15:44:22.998Z</time></trkpt><trkpt lat="50.95099707883088" lon="5.097354039159716"><ele>23.0</ele><time>2026-04-16T15:44:23.998Z</time></trkpt><trkpt lat="50.950883388409466" lon="5.09763920352993"><ele>23.0</ele><time>2026-04-16T15:44:24.998Z</time></trkpt><trkpt lat="50.95077205321987" lon="5.09792090065107"><ele>23.0</ele><time>2026-04-16T15:44:25.998Z</time></trkpt><trkpt lat="50.95066162674371" lon="5.098203885450383"><ele>23.333333333333336</ele><time>2026-04-16T15:44:26.998Z</time></trkpt><trkpt lat="50.95055172083974" lon="5.098490470300335"><ele>23.666666666666668</ele><time>2026-04-16T15:44:27.998Z</time></trkpt><trkpt lat="50.9504401531178" lon="5.098772880017123"><ele>24.0</ele><time>2026-04-16T15:44:28.998Z</time></trkpt><trkpt lat="50.950326355983016" lon="5.0990530880034495"><ele>24.333333333333336</ele><time>2026-04-16T15:44:29.998Z</time></trkpt><trkpt lat="50.95021434168092" lon="5.0993325165832415"><ele>24.666666666666668</ele><time>2026-04-16T15:44:30.998Z</time></trkpt><trkpt lat="50.95010261358097" lon="5.099611951272179"><ele>25.0</ele><time>2026-04-16T15:44:31.998Z</time></trkpt><trkpt lat="50.949992270383305" lon="5.0998931314876605"><ele>25.333333333333336</ele><time>2026-04-16T15:44:32.998Z</time></trkpt><trkpt lat="50.94988748520993" lon="5.1001568171349385"><ele>25.666666666666664</ele><time>2026-04-16T15:44:33.998Z</time></trkpt><trkpt lat="50.949787844505" lon="5.10041075371449"><ele>26.0</ele><time>2026-04-16T15:44:34.998Z</time></trkpt><trkpt lat="50.94969056026561" lon="5.100660298868835"><ele>25.666666666666664</ele><time>2026-04-16T15:44:35.998Z</time></trkpt><trkpt lat="50.949593737707936" lon="5.100911916834834"><ele>25.333333333333336</ele><time>2026-04-16T15:44:36.998Z</time></trkpt><trkpt lat="50.94949224515815" lon="5.101165066005111"><ele>25.0</ele><time>2026-04-16T15:44:37.998Z</time></trkpt><trkpt lat="50.94938729767831" lon="5.1014190882354535"><ele>24.666666666666668</ele><time>2026-04-16T15:44:38.998Z</time></trkpt><trkpt lat="50.94928638366879" lon="5.101671664342271"><ele>24.333333333333336</ele><time>2026-04-16T15:44:39.998Z</time></trkpt><trkpt lat="50.94919055147236" lon="5.10192796653215"><ele>24.0</ele><time>2026-04-16T15:44:40.998Z</time></trkpt><trkpt lat="50.94908922005702" lon="5.102189164116358"><ele>24.0</ele><time>2026-04-16T15:44:41.998Z</time></trkpt><trkpt lat="50.94897316933036" lon="5.102435448343614"><ele>24.0</ele><time>2026-04-16T15:44:42.998Z</time></trkpt><trkpt lat="50.948881758583745" lon="5.10271298313558"><ele>24.0</ele><time>2026-04-16T15:44:43.998Z</time></trkpt><trkpt lat="50.94877766566374" lon="5.102974713812921"><ele>24.0</ele><time>2026-04-16T15:44:44.998Z</time></trkpt><trkpt lat="50.94866703106376" lon="5.1032352426382666"><ele>24.0</ele><time>2026-04-16T15:44:45.998Z</time></trkpt><trkpt lat="50.948539980988635" lon="5.103469408266487"><ele>24.0</ele><time>2026-04-16T15:44:46.998Z</time></trkpt><trkpt lat="50.948417054300435" lon="5.103713023470216"><ele>24.0</ele><time>2026-04-16T15:44:47.998Z</time></trkpt><trkpt lat="50.94831360981454" lon="5.103969247520651"><ele>24.0</ele><time>2026-04-16T15:44:48.998Z</time></trkpt><trkpt lat="50.94820387939565" lon="5.104216113505515"><ele>24.0</ele><time>2026-04-16T15:44:49.998Z</time></trkpt><trkpt lat="50.948101245010584" lon="5.104471971986689"><ele>23.666666666666668</ele><time>2026-04-16T15:44:50.998Z</time></trkpt><trkpt lat="50.9480014580074" lon="5.1047258883480335"><ele>23.333333333333336</ele><time>2026-04-16T15:44:51.998Z</time></trkpt><trkpt lat="50.94790054385934" lon="5.104980817261023"><ele>23.0</ele><time>2026-04-16T15:44:52.998Z</time></trkpt><trkpt lat="50.94780876444508" lon="5.1052256533166895"><ele>23.0</ele><time>2026-04-16T15:44:53.998Z</time></trkpt><trkpt lat="50.94771636613941" lon="5.105465834044286"><ele>23.0</ele><time>2026-04-16T15:44:54.998Z</time></trkpt><trkpt lat="50.94761974459951" lon="5.105695349885339"><ele>23.0</ele><time>2026-04-16T15:44:55.998Z</time></trkpt><trkpt lat="50.94753164033119" lon="5.105913282015663"><ele>23.333333333333336</ele><time>2026-04-16T15:44:56.998Z</time></trkpt><trkpt lat="50.94744081444618" lon="5.106134973557866"><ele>23.666666666666668</ele><time>2026-04-16T15:44:57.998Z</time></trkpt><trkpt lat="50.947355778081516" lon="5.106351989263105"><ele>24.0</ele><time>2026-04-16T15:44:58.998Z</time></trkpt><trkpt lat="50.947281788966706" lon="5.106536377528568"><ele>24.0</ele><time>2026-04-16T15:45:00Z</time></trkpt><trkpt lat="50.94721303145912" lon="5.106711281387041"><ele>24.0</ele><time>2026-04-16T15:45:01Z</time></trkpt><trkpt lat="50.94715258360226" lon="5.1068577402569915"><ele>24.0</ele><time>2026-04-16T15:45:02Z</time></trkpt><trkpt lat="50.94710496078738" lon="5.106977211298303"><ele>24.0</ele><time>2026-04-16T15:45:03Z</time></trkpt><trkpt lat="50.94706938405394" lon="5.107090698720678"><ele>24.0</ele><time>2026-04-16T15:45:04Z</time></trkpt><trkpt lat="50.947052634716464" lon="5.107189648742259"><ele>24.0</ele><time>2026-04-16T15:45:05Z</time></trkpt><trkpt lat="50.94702053444286" lon="5.10728513040644"><ele>24.0</ele><time>2026-04-16T15:45:06Z</time></trkpt><trkpt lat="50.94696309311089" lon="5.1073710231879526"><ele>24.0</ele><time>2026-04-16T15:45:07Z</time></trkpt><trkpt lat="50.94689179135351" lon="5.107441400129691"><ele>24.0</ele><time>2026-04-16T15:45:08Z</time></trkpt><trkpt lat="50.94683412914396" lon="5.107526746469708"><ele>24.0</ele><time>2026-04-16T15:45:09Z</time></trkpt><trkpt lat="50.94682443708458" lon="5.107647712074839"><ele>24.0</ele><time>2026-04-16T15:45:10Z</time></trkpt><trkpt lat="50.94686343569085" lon="5.107760345738193"><ele>24.0</ele><time>2026-04-16T15:45:11Z</time></trkpt><trkpt lat="50.94694554698333" lon="5.107816071660501"><ele>24.0</ele><time>2026-04-16T15:45:12Z</time></trkpt><trkpt lat="50.947038493829794" lon="5.107781434852779"><ele>24.0</ele><time>2026-04-16T15:45:13Z</time></trkpt><trkpt lat="50.947106769108785" lon="5.1076752158793175"><ele>24.0</ele><time>2026-04-16T15:45:14Z</time></trkpt><trkpt lat="50.94716190800147" lon="5.107558892102028"><ele>24.0</ele><time>2026-04-16T15:45:15Z</time></trkpt><trkpt lat="50.94723606157872" lon="5.107522131857609"><ele>24.0</ele><time>2026-04-16T15:45:16Z</time></trkpt><trkpt lat="50.94732633061125" lon="5.10753320502594"><ele>24.0</ele><time>2026-04-16T15:45:17Z</time></trkpt><trkpt lat="50.94741779967864" lon="5.107610426640367"><ele>24.0</ele><time>2026-04-16T15:45:18Z</time></trkpt><trkpt lat="50.947503950360016" lon="5.107719750033752"><ele>24.0</ele><time>2026-04-16T15:45:19Z</time></trkpt><trkpt lat="50.94757250735181" lon="5.107830717423673"><ele>24.0</ele><time>2026-04-16T15:45:20Z</time></trkpt><trkpt lat="50.94764692290859" lon="5.107956236717365"><ele>24.0</ele><time>2026-04-16T15:45:21Z</time></trkpt><trkpt lat="50.947728776243004" lon="5.108087938963455"><ele>24.0</ele><time>2026-04-16T15:45:22Z</time></trkpt><trkpt lat="50.94781031281276" lon="5.108231170441365"><ele>24.0</ele><time>2026-04-16T15:45:23Z</time></trkpt><trkpt lat="50.947886992314686" lon="5.108369700651553"><ele>24.0</ele><time>2026-04-16T15:45:24Z</time></trkpt><trkpt lat="50.9479641475747" lon="5.108501829072821"><ele>24.0</ele><time>2026-04-16T15:45:25Z</time></trkpt><trkpt lat="50.948039100789316" lon="5.108632049006083"><ele>24.0</ele><time>2026-04-16T15:45:26Z</time></trkpt><trkpt lat="50.94811297232747" lon="5.1087678304474125"><ele>24.0</ele><time>2026-04-16T15:45:27Z</time></trkpt><trkpt lat="50.94818782087591" lon="5.108899869361446"><ele>24.0</ele><time>2026-04-16T15:45:28Z</time></trkpt><trkpt lat="50.94826164436295" lon="5.109025250492571"><ele>24.0</ele><time>2026-04-16T15:45:29Z</time></trkpt><trkpt lat="50.94832937251223" lon="5.1091370776830916"><ele>24.0</ele><time>2026-04-16T15:45:30Z</time></trkpt><trkpt lat="50.9483884119319" lon="5.109236279222638"><ele>24.0</ele><time>2026-04-16T15:45:31Z</time></trkpt><trkpt lat="50.948435510490505" lon="5.109314991292268"><ele>24.0</ele><time>2026-04-16T15:45:32Z</time></trkpt><trkpt lat="50.94850999522171" lon="5.109438191983524"><ele>24.0</ele><time>2026-04-16T15:45:34Z</time></trkpt><trkpt lat="50.94850503404792" lon="5.109553131592308"><ele>24.0</ele><time>2026-04-16T15:45:36Z</time></trkpt><trkpt lat="50.94842697428309" lon="5.10961598066585"><ele>24.0</ele><time>2026-04-16T15:45:38Z</time></trkpt><trkpt lat="50.94836573983084" lon="5.109684555586701"><ele>24.0</ele><time>2026-04-16T15:45:40Z</time></trkpt><trkpt lat="50.94831965110813" lon="5.109760376996479"><ele>24.0</ele><time>2026-04-16T15:45:41.999Z</time></trkpt><trkpt lat="50.94830164792455" lon="5.109858235858008"><ele>24.0</ele><time>2026-04-16T15:45:43.999Z</time></trkpt></trkseg><trkseg><trkpt lat="50.94831825447875" lon="5.10979033097271"><ele>24.2</ele><time>2026-04-16T16:01:40.998Z</time></trkpt><trkpt lat="50.948404173049795" lon="5.109659973094799"><ele>24.4</ele><time>2026-04-16T16:01:42.998Z</time></trkpt><trkpt lat="50.948468902603544" lon="5.1095868203766335"><ele>24.6</ele><time>2026-04-16T16:01:45Z</time></trkpt><trkpt lat="50.94851683758689" lon="5.109497573857034"><ele>24.8</ele><time>2026-04-16T16:01:49Z</time></trkpt><trkpt lat="50.948469501015985" lon="5.109346209916178"><ele>25.0</ele><time>2026-04-16T16:01:51Z</time></trkpt><trkpt lat="50.94841456169606" lon="5.109253410397882"><ele>25.0</ele><time>2026-04-16T16:01:52Z</time></trkpt><trkpt lat="50.948355050888104" lon="5.109152893276729"><ele>25.0</ele><time>2026-04-16T16:01:53Z</time></trkpt><trkpt lat="50.94829159064544" lon="5.10904701533101"><ele>25.0</ele><time>2026-04-16T16:01:54Z</time></trkpt><trkpt lat="50.94822427458849" lon="5.1089283249840145"><ele>25.0</ele><time>2026-04-16T16:01:55Z</time></trkpt><trkpt lat="50.948153484269206" lon="5.108801043207262"><ele>25.0</ele><time>2026-04-16T16:01:56Z</time></trkpt><trkpt lat="50.948074479911924" lon="5.108653588675658"><ele>25.0</ele><time>2026-04-16T16:01:57Z</time></trkpt><trkpt lat="50.947997637995655" lon="5.108511305759637"><ele>25.0</ele><time>2026-04-16T16:01:58Z</time></trkpt><trkpt lat="50.94791257977304" lon="5.108361341942272"><ele>25.0</ele><time>2026-04-16T16:01:59Z</time></trkpt><trkpt lat="50.9478253110296" lon="5.108208027032185"><ele>25.0</ele><time>2026-04-16T16:02:00Z</time></trkpt><trkpt lat="50.94773815505651" lon="5.108053421128637"><ele>24.75</ele><time>2026-04-16T16:02:01Z</time></trkpt><trkpt lat="50.94764826267247" lon="5.107907083710866"><ele>24.5</ele><time>2026-04-16T16:02:02Z</time></trkpt><trkpt lat="50.94755836041633" lon="5.107779055768775"><ele>24.25</ele><time>2026-04-16T16:02:03Z</time></trkpt><trkpt lat="50.947475318290934" lon="5.107661548298984"><ele>24.0</ele><time>2026-04-16T16:02:04Z</time></trkpt><trkpt lat="50.947394006569205" lon="5.107553370517929"><ele>24.0</ele><time>2026-04-16T16:02:05Z</time></trkpt><trkpt lat="50.94731522265024" lon="5.107451878192169"><ele>24.0</ele><time>2026-04-16T16:02:06Z</time></trkpt><trkpt lat="50.94722703025067" lon="5.107410158285505"><ele>24.0</ele><time>2026-04-16T16:02:07Z</time></trkpt><trkpt lat="50.9471510338095" lon="5.107376448451435"><ele>24.0</ele><time>2026-04-16T16:02:08Z</time></trkpt><trkpt lat="50.94709824294494" lon="5.107298083908616"><ele>24.0</ele><time>2026-04-16T16:02:09Z</time></trkpt><trkpt lat="50.94703066274876" lon="5.1072547757824545"><ele>24.0</ele><time>2026-04-16T16:02:09.999Z</time></trkpt><trkpt lat="50.94694490887672" lon="5.1073027466310625"><ele>24.0</ele><time>2026-04-16T16:02:10.999Z</time></trkpt><trkpt lat="50.9468687623721" lon="5.107423270486817"><ele>24.0</ele><time>2026-04-16T16:02:11.999Z</time></trkpt><trkpt lat="50.946806201992764" lon="5.10756137226504"><ele>24.0</ele><time>2026-04-16T16:02:12.999Z</time></trkpt><trkpt lat="50.946740706248406" lon="5.1076899013157"><ele>24.0</ele><time>2026-04-16T16:02:13.999Z</time></trkpt><trkpt lat="50.94659341312769" lon="5.107633752178701"><ele>24.0</ele><time>2026-04-16T16:02:14.999Z</time></trkpt><trkpt lat="50.94650481596639" lon="5.107496109117072"><ele>24.0</ele><time>2026-04-16T16:02:15.999Z</time></trkpt><trkpt lat="50.94643232266407" lon="5.107337181006922"><ele>24.0</ele><time>2026-04-16T16:02:16.999Z</time></trkpt><trkpt lat="50.946342992807146" lon="5.10718113291283"><ele>24.0</ele><time>2026-04-16T16:02:17.999Z</time></trkpt><trkpt lat="50.946249132198226" lon="5.107042360096818"><ele>24.0</ele><time>2026-04-16T16:02:18.999Z</time></trkpt><trkpt lat="50.946165023116976" lon="5.106874966564851"><ele>24.0</ele><time>2026-04-16T16:02:19.999Z</time></trkpt><trkpt lat="50.94607258771584" lon="5.1067107056957886"><ele>24.0</ele><time>2026-04-16T16:02:20.999Z</time></trkpt><trkpt lat="50.94598164640212" lon="5.106546344074003"><ele>24.0</ele><time>2026-04-16T16:02:21.999Z</time></trkpt><trkpt lat="50.945887504493605" lon="5.106376098538455"><ele>24.0</ele><time>2026-04-16T16:02:22.999Z</time></trkpt><trkpt lat="50.945794889409484" lon="5.1062137923623165"><ele>24.0</ele><time>2026-04-16T16:02:23.999Z</time></trkpt><trkpt lat="50.94570265870112" lon="5.1060461837036915"><ele>24.0</ele><time>2026-04-16T16:02:24.999Z</time></trkpt><trkpt lat="50.945608981815006" lon="5.105884120169833"><ele>24.0</ele><time>2026-04-16T16:02:25.999Z</time></trkpt><trkpt lat="50.945513473011275" lon="5.105717025957909"><ele>23.75</ele><time>2026-04-16T16:02:26.999Z</time></trkpt><trkpt lat="50.9454161867026" lon="5.105552879276164"><ele>23.5</ele><time>2026-04-16T16:02:27.999Z</time></trkpt><trkpt lat="50.94532230775927" lon="5.105391143097378"><ele>23.25</ele><time>2026-04-16T16:02:28.999Z</time></trkpt><trkpt lat="50.94522867904817" lon="5.105239546522514"><ele>23.0</ele><time>2026-04-16T16:02:29.999Z</time></trkpt><trkpt lat="50.945118434404534" lon="5.105130367063642"><ele>23.0</ele><time>2026-04-16T16:02:30.999Z</time></trkpt><trkpt lat="50.945001807731984" lon="5.105065277203586"><ele>23.0</ele><time>2026-04-16T16:02:31.999Z</time></trkpt><trkpt lat="50.944871540698124" lon="5.105048605310594"><ele>23.0</ele><time>2026-04-16T16:02:32.999Z</time></trkpt><trkpt lat="50.94473401269435" lon="5.1050637017170235"><ele>23.0</ele><time>2026-04-16T16:02:33.999Z</time></trkpt><trkpt lat="50.944605465672126" lon="5.105115829995669"><ele>23.0</ele><time>2026-04-16T16:02:34.999Z</time></trkpt><trkpt lat="50.94447583352369" lon="5.10518704768093"><ele>23.0</ele><time>2026-04-16T16:02:35.999Z</time></trkpt><trkpt lat="50.94434430352823" lon="5.105243827927381"><ele>23.0</ele><time>2026-04-16T16:02:36.999Z</time></trkpt><trkpt lat="50.94422417464495" lon="5.105286066832047"><ele>23.0</ele><time>2026-04-16T16:02:37.999Z</time></trkpt><trkpt lat="50.944103421708064" lon="5.105320033789699"><ele>23.25</ele><time>2026-04-16T16:02:38.999Z</time></trkpt><trkpt lat="50.943978041591514" lon="5.105330617594221"><ele>23.5</ele><time>2026-04-16T16:02:39.999Z</time></trkpt><trkpt lat="50.943847397744356" lon="5.105345934861441"><ele>23.75</ele><time>2026-04-16T16:02:40.999Z</time></trkpt><trkpt lat="50.943717664486684" lon="5.10534853649045"><ele>24.0</ele><time>2026-04-16T16:02:41.999Z</time></trkpt><trkpt lat="50.943584266335485" lon="5.105351568165347"><ele>24.0</ele><time>2026-04-16T16:02:42.999Z</time></trkpt><trkpt lat="50.94344706197183" lon="5.105355200882556"><ele>24.0</ele><time>2026-04-16T16:02:43.999Z</time></trkpt><trkpt lat="50.94330586346312" lon="5.105359306671624"><ele>24.0</ele><time>2026-04-16T16:02:44.999Z</time></trkpt><trkpt lat="50.94316118812043" lon="5.105366690577097"><ele>24.0</ele><time>2026-04-16T16:02:45.999Z</time></trkpt><trkpt lat="50.94301459324645" lon="5.105352903694618"><ele>24.0</ele><time>2026-04-16T16:02:46.999Z</time></trkpt><trkpt lat="50.94286807561087" lon="5.105323113922384"><ele>24.0</ele><time>2026-04-16T16:02:47.999Z</time></trkpt><trkpt lat="50.942715661812905" lon="5.105276028938496"><ele>24.0</ele><time>2026-04-16T16:02:48.999Z</time></trkpt><trkpt lat="50.942557080034135" lon="5.105222676691724"><ele>24.333333333333336</ele><time>2026-04-16T16:02:49.999Z</time></trkpt><trkpt lat="50.942399849447376" lon="5.10516867426609"><ele>24.666666666666668</ele><time>2026-04-16T16:02:50.999Z</time></trkpt><trkpt lat="50.94223821413566" lon="5.105133062281848"><ele>25.0</ele><time>2026-04-16T16:02:51.999Z</time></trkpt><trkpt lat="50.94208345170186" lon="5.105109368337367"><ele>25.0</ele><time>2026-04-16T16:02:52.999Z</time></trkpt><trkpt lat="50.94192597096353" lon="5.10509388021912"><ele>25.0</ele><time>2026-04-16T16:02:53.999Z</time></trkpt><trkpt lat="50.941789180266596" lon="5.105079637879003"><ele>25.0</ele><time>2026-04-16T16:02:54.999Z</time></trkpt><trkpt lat="50.94166374074576" lon="5.105076658698733"><ele>25.0</ele><time>2026-04-16T16:02:55.999Z</time></trkpt><trkpt lat="50.94154583178061" lon="5.105078230664262"><ele>25.0</ele><time>2026-04-16T16:02:56.999Z</time></trkpt><trkpt lat="50.94142931549021" lon="5.105071591417819"><ele>25.0</ele><time>2026-04-16T16:02:57.998Z</time></trkpt><trkpt lat="50.94131539477564" lon="5.105069701862223"><ele>25.0</ele><time>2026-04-16T16:02:58.998Z</time></trkpt><trkpt lat="50.94120586495133" lon="5.105069193890294"><ele>25.0</ele><time>2026-04-16T16:02:59.998Z</time></trkpt><trkpt lat="50.9411039948226" lon="5.105066423581504"><ele>25.0</ele><time>2026-04-16T16:03:00.998Z</time></trkpt><trkpt lat="50.94099525907511" lon="5.1050636621990515"><ele>25.25</ele><time>2026-04-16T16:03:01.998Z</time></trkpt><trkpt lat="50.94087208799561" lon="5.105059115992391"><ele>25.5</ele><time>2026-04-16T16:03:02.998Z</time></trkpt><trkpt lat="50.94074087647887" lon="5.105047197479386"><ele>25.75</ele><time>2026-04-16T16:03:03.998Z</time></trkpt><trkpt lat="50.94059842758369" lon="5.105025683457484"><ele>26.0</ele><time>2026-04-16T16:03:04.998Z</time></trkpt><trkpt lat="50.94044715046631" lon="5.104983829411774"><ele>26.0</ele><time>2026-04-16T16:03:05.998Z</time></trkpt><trkpt lat="50.94029333136801" lon="5.104918161721053"><ele>26.0</ele><time>2026-04-16T16:03:06.998Z</time></trkpt><trkpt lat="50.94013719028884" lon="5.10482812636333"><ele>26.0</ele><time>2026-04-16T16:03:07.998Z</time></trkpt><trkpt lat="50.93998686262447" lon="5.104721882541726"><ele>25.666666666666664</ele><time>2026-04-16T16:03:08.998Z</time></trkpt><trkpt lat="50.93984258198387" lon="5.104598221874247"><ele>25.333333333333336</ele><time>2026-04-16T16:03:09.998Z</time></trkpt><trkpt lat="50.939694868079876" lon="5.104442354065615"><ele>25.0</ele><time>2026-04-16T16:03:10.998Z</time></trkpt><trkpt lat="50.93955051082478" lon="5.104276402600583"><ele>25.0</ele><time>2026-04-16T16:03:11.998Z</time></trkpt><trkpt lat="50.93940395068645" lon="5.104111364595197"><ele>25.0</ele><time>2026-04-16T16:03:12.998Z</time></trkpt><trkpt lat="50.93924833762538" lon="5.103934006622943"><ele>25.0</ele><time>2026-04-16T16:03:13.998Z</time></trkpt><trkpt lat="50.93911085634036" lon="5.103751862182484"><ele>25.333333333333336</ele><time>2026-04-16T16:03:14.998Z</time></trkpt><trkpt lat="50.93896471879378" lon="5.103544363041412"><ele>25.666666666666664</ele><time>2026-04-16T16:03:15.998Z</time></trkpt><trkpt lat="50.93882035132654" lon="5.103360033441859"><ele>26.0</ele><time>2026-04-16T16:03:16.998Z</time></trkpt><trkpt lat="50.938670671707854" lon="5.103175958599172"><ele>26.0</ele><time>2026-04-16T16:03:17.998Z</time></trkpt><trkpt lat="50.93852203360059" lon="5.103001277343982"><ele>26.0</ele><time>2026-04-16T16:03:18.998Z</time></trkpt><trkpt lat="50.93836914684745" lon="5.102817333634532"><ele>26.0</ele><time>2026-04-16T16:03:19.998Z</time></trkpt><trkpt lat="50.938230685035236" lon="5.102609288579438"><ele>26.0</ele><time>2026-04-16T16:03:20.998Z</time></trkpt><trkpt lat="50.93810500214539" lon="5.1023774954772705"><ele>26.0</ele><time>2026-04-16T16:03:21.998Z</time></trkpt><trkpt lat="50.937988332568914" lon="5.102136390999098"><ele>26.0</ele><time>2026-04-16T16:03:22.998Z</time></trkpt><trkpt lat="50.937880410495886" lon="5.101890402557361"><ele>26.0</ele><time>2026-04-16T16:03:23.998Z</time></trkpt><trkpt lat="50.937773262140304" lon="5.101635845353708"><ele>26.0</ele><time>2026-04-16T16:03:24.998Z</time></trkpt><trkpt lat="50.93767387531789" lon="5.101386257629865"><ele>26.0</ele><time>2026-04-16T16:03:25.998Z</time></trkpt><trkpt lat="50.937569606309395" lon="5.10113159768204"><ele>26.0</ele><time>2026-04-16T16:03:26.998Z</time></trkpt><trkpt lat="50.93745997380167" lon="5.1008812567086865"><ele>26.0</ele><time>2026-04-16T16:03:27.998Z</time></trkpt><trkpt lat="50.937353553479646" lon="5.100637390256077"><ele>26.0</ele><time>2026-04-16T16:03:28.998Z</time></trkpt><trkpt lat="50.937250594996605" lon="5.100405326580187"><ele>26.0</ele><time>2026-04-16T16:03:29.998Z</time></trkpt><trkpt lat="50.93715985688849" lon="5.100190650714354"><ele>26.0</ele><time>2026-04-16T16:03:30.998Z</time></trkpt><trkpt lat="50.937072006129426" lon="5.099989964900081"><ele>26.0</ele><time>2026-04-16T16:03:31.998Z</time></trkpt><trkpt lat="50.93699443085651" lon="5.099808982812182"><ele>26.4</ele><time>2026-04-16T16:03:32.998Z</time></trkpt><trkpt lat="50.936927241947075" lon="5.0996364820446045"><ele>26.8</ele><time>2026-04-16T16:03:33.998Z</time></trkpt><trkpt lat="50.93687491277108" lon="5.099487443433394"><ele>27.199999999999996</ele><time>2026-04-16T16:03:34.998Z</time></trkpt><trkpt lat="50.93683545906608" lon="5.09937019420835"><ele>27.599999999999998</ele><time>2026-04-16T16:03:35.998Z</time></trkpt><trkpt lat="50.93679199143265" lon="5.09924576292043"><ele>28.0</ele><time>2026-04-16T16:03:37.998Z</time></trkpt><trkpt lat="50.93662348340652" lon="5.099343883763834"><ele>28.0</ele><time>2026-04-16T16:03:38.998Z</time></trkpt><trkpt lat="50.93650917327177" lon="5.099398920856972"><ele>28.0</ele><time>2026-04-16T16:03:39.998Z</time></trkpt><trkpt lat="50.93638076597763" lon="5.099432396818882"><ele>28.0</ele><time>2026-04-16T16:03:40.998Z</time></trkpt><trkpt lat="50.936243900777995" lon="5.099451937153184"><ele>28.0</ele><time>2026-04-16T16:03:41.998Z</time></trkpt><trkpt lat="50.93608104042766" lon="5.099462281421094"><ele>28.0</ele><time>2026-04-16T16:03:42.997Z</time></trkpt><trkpt lat="50.93591767148528" lon="5.099466408222396"><ele>28.0</ele><time>2026-04-16T16:03:43.997Z</time></trkpt><trkpt lat="50.935753017115736" lon="5.099465158943939"><ele>28.0</ele><time>2026-04-16T16:03:44.997Z</time></trkpt><trkpt lat="50.935578683951036" lon="5.099469581215952"><ele>27.333333333333336</ele><time>2026-04-16T16:03:45.997Z</time></trkpt><trkpt lat="50.935394396935486" lon="5.099481188866636"><ele>26.666666666666664</ele><time>2026-04-16T16:03:46.997Z</time></trkpt><trkpt lat="50.93520281851172" lon="5.099503802861467"><ele>26.0</ele><time>2026-04-16T16:03:47.997Z</time></trkpt><trkpt lat="50.93500824673914" lon="5.099531573068412"><ele>25.666666666666664</ele><time>2026-04-16T16:03:48.999Z</time></trkpt><trkpt lat="50.934811286070854" lon="5.099567391693705"><ele>25.333333333333336</ele><time>2026-04-16T16:03:49.999Z</time></trkpt><trkpt lat="50.93460643099147" lon="5.099600440592879"><ele>25.0</ele><time>2026-04-16T16:03:50.999Z</time></trkpt><trkpt lat="50.934410888344786" lon="5.099639842186266"><ele>25.333333333333336</ele><time>2026-04-16T16:03:51.999Z</time></trkpt><trkpt lat="50.93419990923906" lon="5.099694247770745"><ele>25.666666666666664</ele><time>2026-04-16T16:03:52.999Z</time></trkpt><trkpt lat="50.933999379412455" lon="5.099762956792652"><ele>26.0</ele><time>2026-04-16T16:03:53.999Z</time></trkpt><trkpt lat="50.9337946146822" lon="5.09986629068771"><ele>25.333333333333332</ele><time>2026-04-16T16:03:54.999Z</time></trkpt><trkpt lat="50.93359960056536" lon="5.099976437143008"><ele>24.666666666666664</ele><time>2026-04-16T16:03:55.999Z</time></trkpt><trkpt lat="50.933397702748586" lon="5.100075247524512"><ele>24.0</ele><time>2026-04-16T16:03:56.999Z</time></trkpt><trkpt lat="50.93318690221854" lon="5.100168528346121"><ele>24.0</ele><time>2026-04-16T16:03:57.999Z</time></trkpt><trkpt lat="50.93299116213642" lon="5.1002518887272865"><ele>24.0</ele><time>2026-04-16T16:03:58.999Z</time></trkpt><trkpt lat="50.93278923630773" lon="5.100325819429049"><ele>24.0</ele><time>2026-04-16T16:03:59.999Z</time></trkpt><trkpt lat="50.93258204598873" lon="5.1003840668422304"><ele>24.0</ele><time>2026-04-16T16:04:00.999Z</time></trkpt><trkpt lat="50.93237449679696" lon="5.10043387528559"><ele>24.0</ele><time>2026-04-16T16:04:01.999Z</time></trkpt><trkpt lat="50.93216551510371" lon="5.100481294385822"><ele>24.0</ele><time>2026-04-16T16:04:02.999Z</time></trkpt><trkpt lat="50.93194911844838" lon="5.1005233047456455"><ele>24.0</ele><time>2026-04-16T16:04:03.999Z</time></trkpt><trkpt lat="50.93174630378727" lon="5.100563822300112"><ele>24.0</ele><time>2026-04-16T16:04:04.999Z</time></trkpt><trkpt lat="50.9315401657254" lon="5.100602024496857"><ele>24.0</ele><time>2026-04-16T16:04:05.999Z</time></trkpt><trkpt lat="50.93133630666004" lon="5.100639062229482"><ele>24.333333333333336</ele><time>2026-04-16T16:04:06.999Z</time></trkpt><trkpt lat="50.93112433956814" lon="5.100691929891996"><ele>24.666666666666668</ele><time>2026-04-16T16:04:07.999Z</time></trkpt><trkpt lat="50.93091540950153" lon="5.100767406422581"><ele>25.0</ele><time>2026-04-16T16:04:08.999Z</time></trkpt><trkpt lat="50.93071877425168" lon="5.100872160899861"><ele>25.0</ele><time>2026-04-16T16:04:09.999Z</time></trkpt><trkpt lat="50.93051676456077" lon="5.100993528983958"><ele>25.0</ele><time>2026-04-16T16:04:10.999Z</time></trkpt><trkpt lat="50.9303240899537" lon="5.101132144278496"><ele>25.0</ele><time>2026-04-16T16:04:11.999Z</time></trkpt><trkpt lat="50.930134011082515" lon="5.101273181398318"><ele>25.0</ele><time>2026-04-16T16:04:12.999Z</time></trkpt><trkpt lat="50.929942785485046" lon="5.101406430641539"><ele>25.0</ele><time>2026-04-16T16:04:13.999Z</time></trkpt><trkpt lat="50.92974091210426" lon="5.101541394160575"><ele>25.0</ele><time>2026-04-16T16:04:14.999Z</time></trkpt><trkpt lat="50.929556611141244" lon="5.101664311782209"><ele>25.333333333333336</ele><time>2026-04-16T16:04:15.999Z</time></trkpt><trkpt lat="50.929382553458126" lon="5.101785120571463"><ele>25.666666666666664</ele><time>2026-04-16T16:04:16.999Z</time></trkpt><trkpt lat="50.92922102089084" lon="5.101896354051119"><ele>26.0</ele><time>2026-04-16T16:04:17.999Z</time></trkpt><trkpt lat="50.92906341292067" lon="5.102003839185268"><ele>26.0</ele><time>2026-04-16T16:04:18.999Z</time></trkpt><trkpt lat="50.928918512166206" lon="5.10210172487033"><ele>26.0</ele><time>2026-04-16T16:04:19.999Z</time></trkpt><trkpt lat="50.92878301037228" lon="5.102191770601044"><ele>26.0</ele><time>2026-04-16T16:04:20.999Z</time></trkpt><trkpt lat="50.92866040746385" lon="5.10227146362988"><ele>26.0</ele><time>2026-04-16T16:04:21.999Z</time></trkpt><trkpt lat="50.928546454644156" lon="5.102353437058598"><ele>26.0</ele><time>2026-04-16T16:04:22.999Z</time></trkpt><trkpt lat="50.92844516211073" lon="5.102424604620658"><ele>26.0</ele><time>2026-04-16T16:04:23.999Z</time></trkpt><trkpt lat="50.928357174093776" lon="5.102499405333286"><ele>26.0</ele><time>2026-04-16T16:04:24.999Z</time></trkpt><trkpt lat="50.92830183709439" lon="5.10260905822826"><ele>26.0</ele><time>2026-04-16T16:04:25.999Z</time></trkpt><trkpt lat="50.92825356230699" lon="5.102715594553839"><ele>26.0</ele><time>2026-04-16T16:04:26.999Z</time></trkpt><trkpt lat="50.92806331709731" lon="5.102657270600666"><ele>26.0</ele><time>2026-04-16T16:04:28.999Z</time></trkpt><trkpt lat="50.92794300026086" lon="5.10270983425976"><ele>26.0</ele><time>2026-04-16T16:04:29.999Z</time></trkpt><trkpt lat="50.92781354669066" lon="5.1027733807169815"><ele>26.0</ele><time>2026-04-16T16:04:30.999Z</time></trkpt><trkpt lat="50.92767753667399" lon="5.102805272103036"><ele>26.0</ele><time>2026-04-16T16:04:31.999Z</time></trkpt><trkpt lat="50.92753206285505" lon="5.102813341737209"><ele>25.333333333333332</ele><time>2026-04-16T16:04:32.999Z</time></trkpt><trkpt lat="50.927376898768244" lon="5.102803542734627"><ele>24.666666666666664</ele><time>2026-04-16T16:04:33.999Z</time></trkpt><trkpt lat="50.927218166338584" lon="5.1027935183804605"><ele>24.0</ele><time>2026-04-16T16:04:34.999Z</time></trkpt><trkpt lat="50.927060757068766" lon="5.102783577595621"><ele>24.0</ele><time>2026-04-16T16:04:35.999Z</time></trkpt><trkpt lat="50.926898603566904" lon="5.10277333718327"><ele>24.0</ele><time>2026-04-16T16:04:36.999Z</time></trkpt><trkpt lat="50.92673903762304" lon="5.102763201731368"><ele>24.0</ele><time>2026-04-16T16:04:37.999Z</time></trkpt><trkpt lat="50.92657731388449" lon="5.102752829122359"><ele>24.666666666666664</ele><time>2026-04-16T16:04:38.999Z</time></trkpt><trkpt lat="50.9264027927645" lon="5.1027617830736745"><ele>25.333333333333332</ele><time>2026-04-16T16:04:39.999Z</time></trkpt><trkpt lat="50.926231492027846" lon="5.1027443935963435"><ele>26.0</ele><time>2026-04-16T16:04:40.999Z</time></trkpt><trkpt lat="50.9260436093989" lon="5.10273358013278"><ele>26.333333333333332</ele><time>2026-04-16T16:04:41.999Z</time></trkpt><trkpt lat="50.925858552489636" lon="5.1027211835708295"><ele>26.666666666666664</ele><time>2026-04-16T16:04:42.999Z</time></trkpt><trkpt lat="50.92566002972184" lon="5.102706970806435"><ele>27.0</ele><time>2026-04-16T16:04:43.999Z</time></trkpt><trkpt lat="50.92547089631502" lon="5.102691564896884"><ele>27.0</ele><time>2026-04-16T16:04:44.999Z</time></trkpt><trkpt lat="50.925283576286226" lon="5.1026811946364425"><ele>27.0</ele><time>2026-04-16T16:04:45.999Z</time></trkpt><trkpt lat="50.92508521437692" lon="5.102665204706052"><ele>27.0</ele><time>2026-04-16T16:04:46.999Z</time></trkpt><trkpt lat="50.92488363369929" lon="5.102648538061432"><ele>26.666666666666664</ele><time>2026-04-16T16:04:47.999Z</time></trkpt><trkpt lat="50.92467883966712" lon="5.102635672640475"><ele>26.333333333333332</ele><time>2026-04-16T16:04:48.999Z</time></trkpt><trkpt lat="50.92447440116123" lon="5.10262576131973"><ele>26.0</ele><time>2026-04-16T16:04:49.999Z</time></trkpt><trkpt lat="50.92426851334286" lon="5.102613862814651"><ele>26.333333333333332</ele><time>2026-04-16T16:04:50.999Z</time></trkpt><trkpt lat="50.924061616345185" lon="5.10262352835208"><ele>26.666666666666664</ele><time>2026-04-16T16:04:51.999Z</time></trkpt><trkpt lat="50.92385592033427" lon="5.102672231884084"><ele>27.0</ele><time>2026-04-16T16:04:52.999Z</time></trkpt><trkpt lat="50.92365637730539" lon="5.10274805234316"><ele>27.0</ele><time>2026-04-16T16:04:53.999Z</time></trkpt><trkpt lat="50.92345694529819" lon="5.102833457527431"><ele>27.0</ele><time>2026-04-16T16:04:54.999Z</time></trkpt><trkpt lat="50.92326534573054" lon="5.102911245675393"><ele>27.0</ele><time>2026-04-16T16:04:55.999Z</time></trkpt><trkpt lat="50.92306470666209" lon="5.102988856949159"><ele>27.333333333333336</ele><time>2026-04-16T16:04:56.999Z</time></trkpt><trkpt lat="50.92286947404896" lon="5.103063593727349"><ele>27.666666666666668</ele><time>2026-04-16T16:04:57.998Z</time></trkpt><trkpt lat="50.922675876910525" lon="5.103136389180517"><ele>28.0</ele><time>2026-04-16T16:04:58.998Z</time></trkpt><trkpt lat="50.92248136240018" lon="5.1032078150711095"><ele>28.666666666666668</ele><time>2026-04-16T16:04:59.998Z</time></trkpt><trkpt lat="50.922279737561084" lon="5.103269872607781"><ele>29.333333333333336</ele><time>2026-04-16T16:05:00.998Z</time></trkpt><trkpt lat="50.92208449548291" lon="5.103307564100599"><ele>30.0</ele><time>2026-04-16T16:05:01.998Z</time></trkpt><trkpt lat="50.92188217542831" lon="5.1033196358334205"><ele>30.333333333333336</ele><time>2026-04-16T16:05:02.998Z</time></trkpt><trkpt lat="50.92168260648453" lon="5.10331338036783"><ele>30.666666666666668</ele><time>2026-04-16T16:05:03.998Z</time></trkpt><trkpt lat="50.92148769745569" lon="5.103299712770988"><ele>31.0</ele><time>2026-04-16T16:05:04.998Z</time></trkpt><trkpt lat="50.9212858121987" lon="5.103288174362986"><ele>31.0</ele><time>2026-04-16T16:05:05.998Z</time></trkpt><trkpt lat="50.921089148678426" lon="5.103282867666516"><ele>31.0</ele><time>2026-04-16T16:05:06.998Z</time></trkpt><trkpt lat="50.92089739577523" lon="5.103278170052349"><ele>31.0</ele><time>2026-04-16T16:05:07.998Z</time></trkpt><trkpt lat="50.92070354692608" lon="5.103271012452044"><ele>31.333333333333336</ele><time>2026-04-16T16:05:08.998Z</time></trkpt><trkpt lat="50.9205092441213" lon="5.1032535690575775"><ele>31.666666666666664</ele><time>2026-04-16T16:05:09.998Z</time></trkpt><trkpt lat="50.92031559992893" lon="5.103211041220793"><ele>32.0</ele><time>2026-04-16T16:05:10.998Z</time></trkpt><trkpt lat="50.92012618265937" lon="5.103127028321278"><ele>32.33333333333333</ele><time>2026-04-16T16:05:11.998Z</time></trkpt><trkpt lat="50.919938281124026" lon="5.103025016460144"><ele>32.666666666666664</ele><time>2026-04-16T16:05:12.998Z</time></trkpt><trkpt lat="50.91975201912174" lon="5.10294275351038"><ele>33.0</ele><time>2026-04-16T16:05:13.998Z</time></trkpt><trkpt lat="50.91956236886944" lon="5.102874273154169"><ele>33.0</ele><time>2026-04-16T16:05:14.998Z</time></trkpt><trkpt lat="50.91937322457603" lon="5.10282179206168"><ele>33.0</ele><time>2026-04-16T16:05:15.998Z</time></trkpt><trkpt lat="50.91918301929201" lon="5.102778007092793"><ele>33.0</ele><time>2026-04-16T16:05:16.998Z</time></trkpt><trkpt lat="50.91899021912449" lon="5.102740067202808"><ele>33.666666666666664</ele><time>2026-04-16T16:05:17.998Z</time></trkpt><trkpt lat="50.91880069905906" lon="5.102703999912764"><ele>34.33333333333333</ele><time>2026-04-16T16:05:18.998Z</time></trkpt><trkpt lat="50.91860584839389" lon="5.102669573129966"><ele>35.0</ele><time>2026-04-16T16:05:19.998Z</time></trkpt><trkpt lat="50.91841231606592" lon="5.10263471364667"><ele>35.33333333333333</ele><time>2026-04-16T16:05:20.998Z</time></trkpt><trkpt lat="50.918221889653054" lon="5.102596186568727"><ele>35.666666666666664</ele><time>2026-04-16T16:05:21.998Z</time></trkpt><trkpt lat="50.91802910022423" lon="5.1025604346069064"><ele>36.0</ele><time>2026-04-16T16:05:22.998Z</time></trkpt><trkpt lat="50.9178403228573" lon="5.1025265261716894"><ele>36.0</ele><time>2026-04-16T16:05:23.998Z</time></trkpt><trkpt lat="50.91764207254016" lon="5.102494511286528"><ele>36.0</ele><time>2026-04-16T16:05:24.998Z</time></trkpt><trkpt lat="50.917448899834085" lon="5.102457221163594"><ele>36.0</ele><time>2026-04-16T16:05:25.998Z</time></trkpt><trkpt lat="50.91725991454999" lon="5.1024211676618805"><ele>36.333333333333336</ele><time>2026-04-16T16:05:26.998Z</time></trkpt><trkpt lat="50.91706865482623" lon="5.102376864005744"><ele>36.66666666666667</ele><time>2026-04-16T16:05:27.998Z</time></trkpt><trkpt lat="50.916887382171936" lon="5.1023297680975395"><ele>37.0</ele><time>2026-04-16T16:05:28.998Z</time></trkpt><trkpt lat="50.916701584518584" lon="5.10226974636868"><ele>37.333333333333336</ele><time>2026-04-16T16:05:29.998Z</time></trkpt><trkpt lat="50.91653007301489" lon="5.1021847192656855"><ele>37.666666666666664</ele><time>2026-04-16T16:05:30.998Z</time></trkpt><trkpt lat="50.91635770874002" lon="5.102104517002785"><ele>38.0</ele><time>2026-04-16T16:05:31.998Z</time></trkpt><trkpt lat="50.9162056016408" lon="5.102033462045303"><ele>38.0</ele><time>2026-04-16T16:05:32.998Z</time></trkpt><trkpt lat="50.91606178319332" lon="5.101969055225795"><ele>38.0</ele><time>2026-04-16T16:05:33.998Z</time></trkpt><trkpt lat="50.91591479428612" lon="5.101905658835"><ele>38.0</ele><time>2026-04-16T16:05:34.998Z</time></trkpt><trkpt lat="50.91576613764888" lon="5.101848702517335"><ele>38.0</ele><time>2026-04-16T16:05:35.998Z</time></trkpt><trkpt lat="50.91561586241055" lon="5.101829847783092"><ele>38.0</ele><time>2026-04-16T16:05:36.998Z</time></trkpt><trkpt lat="50.915456893472495" lon="5.101852320835516"><ele>38.0</ele><time>2026-04-16T16:05:37.998Z</time></trkpt><trkpt lat="50.91529592979363" lon="5.101850460473439"><ele>38.0</ele><time>2026-04-16T16:05:38.998Z</time></trkpt><trkpt lat="50.915133030947906" lon="5.1018607546676975"><ele>38.0</ele><time>2026-04-16T16:05:39.998Z</time></trkpt><trkpt lat="50.91497389235009" lon="5.101873710562113"><ele>38.0</ele><time>2026-04-16T16:05:40.998Z</time></trkpt><trkpt lat="50.914818430308564" lon="5.101887598502039"><ele>37.5</ele><time>2026-04-16T16:05:41.998Z</time></trkpt><trkpt lat="50.91467482404988" lon="5.101902496418769"><ele>37.0</ele><time>2026-04-16T16:05:42.998Z</time></trkpt><trkpt lat="50.91454311602073" lon="5.101942489101363"><ele>36.5</ele><time>2026-04-16T16:05:43.998Z</time></trkpt><trkpt lat="50.914417207025515" lon="5.101940974075031"><ele>36.0</ele><time>2026-04-16T16:05:44.998Z</time></trkpt><trkpt lat="50.914295889556406" lon="5.101878651723697"><ele>35.5</ele><time>2026-04-16T16:05:45.998Z</time></trkpt><trkpt lat="50.914163378579495" lon="5.101835946577621"><ele>35.0</ele><time>2026-04-16T16:05:46.997Z</time></trkpt><trkpt lat="50.914042134078535" lon="5.101771156597543"><ele>34.5</ele><time>2026-04-16T16:05:47.997Z</time></trkpt><trkpt lat="50.91393819557789" lon="5.10172079265291"><ele>34.0</ele><time>2026-04-16T16:05:48.997Z</time></trkpt><trkpt lat="50.91383642961742" lon="5.101680519909182"><ele>34.0</ele><time>2026-04-16T16:05:49.997Z</time></trkpt><trkpt lat="50.91372499357499" lon="5.101643674986283"><ele>34.0</ele><time>2026-04-16T16:05:50.997Z</time></trkpt><trkpt lat="50.91359936754593" lon="5.101651369274417"><ele>34.0</ele><time>2026-04-16T16:05:51.997Z</time></trkpt><trkpt lat="50.91347282487947" lon="5.101706778596499"><ele>34.0</ele><time>2026-04-16T16:05:52.997Z</time></trkpt><trkpt lat="50.91335193259294" lon="5.101786952248246"><ele>34.25</ele><time>2026-04-16T16:05:53.999Z</time></trkpt><trkpt lat="50.9132278900117" lon="5.101857460526351"><ele>34.5</ele><time>2026-04-16T16:05:54.999Z</time></trkpt><trkpt lat="50.91309684624169" lon="5.101922624029857"><ele>34.75</ele><time>2026-04-16T16:05:55.999Z</time></trkpt><trkpt lat="50.91298032791778" lon="5.1019820656814066"><ele>35.0</ele><time>2026-04-16T16:05:56.999Z</time></trkpt><trkpt lat="50.91288092809229" lon="5.102038325681705"><ele>35.0</ele><time>2026-04-16T16:05:57.999Z</time></trkpt><trkpt lat="50.91277279366296" lon="5.1020836272545"><ele>35.0</ele><time>2026-04-16T16:05:58.999Z</time></trkpt><trkpt lat="50.91265031177725" lon="5.102092282668699"><ele>35.0</ele><time>2026-04-16T16:05:59.999Z</time></trkpt><trkpt lat="50.91251991078869" lon="5.102053072414361"><ele>35.0</ele><time>2026-04-16T16:06:00.999Z</time></trkpt><trkpt lat="50.91238563300195" lon="5.101986578832593"><ele>36.0</ele><time>2026-04-16T16:06:01.999Z</time></trkpt><trkpt lat="50.91224368128406" lon="5.101915511557234"><ele>37.0</ele><time>2026-04-16T16:06:02.999Z</time></trkpt><trkpt lat="50.91209039797319" lon="5.1018489197411885"><ele>38.0</ele><time>2026-04-16T16:06:03.999Z</time></trkpt><trkpt lat="50.9119389496736" lon="5.101783411496994"><ele>38.0</ele><time>2026-04-16T16:06:04.999Z</time></trkpt><trkpt lat="50.911785923154675" lon="5.1017196002855245"><ele>38.0</ele><time>2026-04-16T16:06:05.999Z</time></trkpt><trkpt lat="50.911630242544696" lon="5.101652261516847"><ele>38.0</ele><time>2026-04-16T16:06:07Z</time></trkpt><trkpt lat="50.91147497486236" lon="5.101584873145763"><ele>38.33333333333333</ele><time>2026-04-16T16:06:08Z</time></trkpt><trkpt lat="50.91131973796662" lon="5.101521890726044"><ele>38.666666666666664</ele><time>2026-04-16T16:06:08.999Z</time></trkpt><trkpt lat="50.91116108763437" lon="5.101453833285349"><ele>39.0</ele><time>2026-04-16T16:06:09.999Z</time></trkpt><trkpt lat="50.91100599513399" lon="5.101386608685851"><ele>39.333333333333336</ele><time>2026-04-16T16:06:10.999Z</time></trkpt><trkpt lat="50.910850159768536" lon="5.101319347367062"><ele>39.66666666666667</ele><time>2026-04-16T16:06:11.999Z</time></trkpt><trkpt lat="50.91069262176415" lon="5.101248376808749"><ele>40.0</ele><time>2026-04-16T16:06:12.999Z</time></trkpt><trkpt lat="50.910538090096566" lon="5.101185382636306"><ele>40.0</ele><time>2026-04-16T16:06:13.999Z</time></trkpt><trkpt lat="50.91037847397853" lon="5.101120512034228"><ele>40.0</ele><time>2026-04-16T16:06:14.999Z</time></trkpt><trkpt lat="50.91022251081653" lon="5.101059616057616"><ele>40.0</ele><time>2026-04-16T16:06:15.999Z</time></trkpt><trkpt lat="50.91005850277503" lon="5.100993677358894"><ele>40.0</ele><time>2026-04-16T16:06:16.999Z</time></trkpt><trkpt lat="50.90990298262846" lon="5.100931632270234"><ele>40.0</ele><time>2026-04-16T16:06:17.999Z</time></trkpt><trkpt lat="50.90973975905087" lon="5.10086830652653"><ele>40.0</ele><time>2026-04-16T16:06:18.999Z</time></trkpt><trkpt lat="50.90958512986139" lon="5.100806168875758"><ele>40.66666666666667</ele><time>2026-04-16T16:06:19.999Z</time></trkpt><trkpt lat="50.9094326071416" lon="5.100743591374075"><ele>41.333333333333336</ele><time>2026-04-16T16:06:20.999Z</time></trkpt><trkpt lat="50.90928491724445" lon="5.100685384108478"><ele>42.0</ele><time>2026-04-16T16:06:21.999Z</time></trkpt><trkpt lat="50.909136695429" lon="5.100617542579927"><ele>42.0</ele><time>2026-04-16T16:06:22.999Z</time></trkpt><trkpt lat="50.908996945437075" lon="5.100510025007032"><ele>42.0</ele><time>2026-04-16T16:06:23.999Z</time></trkpt><trkpt lat="50.908867158695905" lon="5.1003925533612575"><ele>42.0</ele><time>2026-04-16T16:06:24.999Z</time></trkpt><trkpt lat="50.908741963271055" lon="5.100253431023036"><ele>42.0</ele><time>2026-04-16T16:06:25.999Z</time></trkpt><trkpt lat="50.908624596229195" lon="5.100096379823618"><ele>42.0</ele><time>2026-04-16T16:06:26.999Z</time></trkpt><trkpt lat="50.90850995544994" lon="5.099947174654401"><ele>42.0</ele><time>2026-04-16T16:06:27.999Z</time></trkpt><trkpt lat="50.908394171381396" lon="5.099821511530285"><ele>42.0</ele><time>2026-04-16T16:06:28.999Z</time></trkpt><trkpt lat="50.90831138406196" lon="5.099697176482094"><ele>42.25</ele><time>2026-04-16T16:06:29.999Z</time></trkpt><trkpt lat="50.908226669113944" lon="5.099596154420678"><ele>42.5</ele><time>2026-04-16T16:06:30.999Z</time></trkpt><trkpt lat="50.908127138096674" lon="5.0995513932149645"><ele>42.75</ele><time>2026-04-16T16:06:31.999Z</time></trkpt><trkpt lat="50.90800641026802" lon="5.099582225243974"><ele>43.0</ele><time>2026-04-16T16:06:32.999Z</time></trkpt><trkpt lat="50.90788071374332" lon="5.099654961524725"><ele>43.0</ele><time>2026-04-16T16:06:33.999Z</time></trkpt><trkpt lat="50.90775330143639" lon="5.099732231776202"><ele>43.0</ele><time>2026-04-16T16:06:34.999Z</time></trkpt><trkpt lat="50.907624110313634" lon="5.099810298404644"><ele>43.0</ele><time>2026-04-16T16:06:35.999Z</time></trkpt><trkpt lat="50.9074975120751" lon="5.099895461258885"><ele>43.0</ele><time>2026-04-16T16:06:36.999Z</time></trkpt><trkpt lat="50.907385228597995" lon="5.099976412171943"><ele>42.599999999999994</ele><time>2026-04-16T16:06:37.999Z</time></trkpt><trkpt lat="50.90727408099907" lon="5.1000605293443515"><ele>42.199999999999996</ele><time>2026-04-16T16:06:38.999Z</time></trkpt><trkpt lat="50.90717305326031" lon="5.100142209754922"><ele>41.8</ele><time>2026-04-16T16:06:39.999Z</time></trkpt><trkpt lat="50.907077321855496" lon="5.100221122986602"><ele>41.4</ele><time>2026-04-16T16:06:40.999Z</time></trkpt><trkpt lat="50.906995637169565" lon="5.100285780781143"><ele>41.0</ele><time>2026-04-16T16:06:41.999Z</time></trkpt><trkpt lat="50.90692659582926" lon="5.100342014655726"><ele>41.0</ele><time>2026-04-16T16:06:42.999Z</time></trkpt><trkpt lat="50.9068686787538" lon="5.100388880610561"><ele>41.0</ele><time>2026-04-16T16:06:43.999Z</time></trkpt><trkpt lat="50.906801605008056" lon="5.100396380574553"><ele>41.0</ele><time>2026-04-16T16:06:44.999Z</time></trkpt><trkpt lat="50.9067064898638" lon="5.10015756058264"><ele>41.0</ele><time>2026-04-16T16:06:46.999Z</time></trkpt><trkpt lat="50.90664709743053" lon="5.1000357003377434"><ele>41.0</ele><time>2026-04-16T16:06:47.999Z</time></trkpt><trkpt lat="50.906581474819724" lon="5.09990126199444"><ele>41.5</ele><time>2026-04-16T16:06:48.999Z</time></trkpt><trkpt lat="50.906511049693776" lon="5.099757709653733"><ele>42.0</ele><time>2026-04-16T16:06:49.999Z</time></trkpt><trkpt lat="50.90642131890105" lon="5.099614395219899"><ele>42.5</ele><time>2026-04-16T16:06:50.999Z</time></trkpt><trkpt lat="50.906346746267694" lon="5.099453253456328"><ele>43.0</ele><time>2026-04-16T16:06:51.999Z</time></trkpt><trkpt lat="50.90626303754937" lon="5.09929092930805"><ele>43.0</ele><time>2026-04-16T16:06:52.999Z</time></trkpt><trkpt lat="50.90618046352824" lon="5.099118071470648"><ele>43.0</ele><time>2026-04-16T16:06:53.999Z</time></trkpt><trkpt lat="50.906101923525476" lon="5.098955942505343"><ele>43.0</ele><time>2026-04-16T16:06:54.999Z</time></trkpt><trkpt lat="50.90602261527955" lon="5.098794827167114"><ele>43.0</ele><time>2026-04-16T16:06:55.999Z</time></trkpt><trkpt lat="50.9059399891867" lon="5.09863458927554"><ele>43.5</ele><time>2026-04-16T16:06:56.999Z</time></trkpt><trkpt lat="50.905855516558375" lon="5.0984746438004835"><ele>44.0</ele><time>2026-04-16T16:06:57.999Z</time></trkpt><trkpt lat="50.90577030587182" lon="5.098311768870436"><ele>44.5</ele><time>2026-04-16T16:06:58.999Z</time></trkpt><trkpt lat="50.905686974758204" lon="5.0981519034131635"><ele>45.0</ele><time>2026-04-16T16:06:59.999Z</time></trkpt><trkpt lat="50.90560101951821" lon="5.097989125395992"><ele>45.0</ele><time>2026-04-16T16:07:00.999Z</time></trkpt><trkpt lat="50.905513718038904" lon="5.0978274444161675"><ele>45.0</ele><time>2026-04-16T16:07:01.999Z</time></trkpt><trkpt lat="50.90542138048549" lon="5.097669070299731"><ele>45.0</ele><time>2026-04-16T16:07:02.999Z</time></trkpt><trkpt lat="50.90532463765325" lon="5.09751626356105"><ele>45.0</ele><time>2026-04-16T16:07:03.999Z</time></trkpt><trkpt lat="50.90522339264299" lon="5.097360583737597"><ele>45.5</ele><time>2026-04-16T16:07:04.999Z</time></trkpt><trkpt lat="50.9051215474442" lon="5.097206957704725"><ele>46.0</ele><time>2026-04-16T16:07:05.999Z</time></trkpt><trkpt lat="50.90501615626238" lon="5.097048962774775"><ele>46.5</ele><time>2026-04-16T16:07:06.999Z</time></trkpt><trkpt lat="50.904905372447836" lon="5.096899043019475"><ele>47.0</ele><time>2026-04-16T16:07:07.998Z</time></trkpt><trkpt lat="50.90478705534505" lon="5.096755075469382"><ele>47.25</ele><time>2026-04-16T16:07:08.998Z</time></trkpt><trkpt lat="50.90466650804422" lon="5.096622481569497"><ele>47.5</ele><time>2026-04-16T16:07:09.998Z</time></trkpt><trkpt lat="50.90454916185834" lon="5.09649044783018"><ele>47.75</ele><time>2026-04-16T16:07:10.998Z</time></trkpt><trkpt lat="50.9044338993573" lon="5.096359542955927"><ele>48.0</ele><time>2026-04-16T16:07:11.998Z</time></trkpt><trkpt lat="50.90431881246447" lon="5.096231554026656"><ele>48.2</ele><time>2026-04-16T16:07:12.998Z</time></trkpt><trkpt lat="50.90421092134893" lon="5.096107179735279"><ele>48.4</ele><time>2026-04-16T16:07:13.998Z</time></trkpt><trkpt lat="50.90411580707517" lon="5.095999630034691"><ele>48.6</ele><time>2026-04-16T16:07:14.998Z</time></trkpt><trkpt lat="50.904033063019895" lon="5.09590457066737"><ele>48.800000000000004</ele><time>2026-04-16T16:07:15.998Z</time></trkpt><trkpt lat="50.903962522203614" lon="5.095822135804532"><ele>49.0</ele><time>2026-04-16T16:07:16.998Z</time></trkpt><trkpt lat="50.903907397314306" lon="5.095758852732583"><ele>49.0</ele><time>2026-04-16T16:07:17.998Z</time></trkpt><trkpt lat="50.90383539457106" lon="5.095655664145308"><ele>49.0</ele><time>2026-04-16T16:07:19.998Z</time></trkpt><trkpt lat="50.90372014103716" lon="5.09583112707539"><ele>49.0</ele><time>2026-04-16T16:07:20.998Z</time></trkpt><trkpt lat="50.90364117736839" lon="5.095949739351174"><ele>49.0</ele><time>2026-04-16T16:07:21.998Z</time></trkpt><trkpt lat="50.90354444393082" lon="5.096027709441473"><ele>49.0</ele><time>2026-04-16T16:07:22.998Z</time></trkpt><trkpt lat="50.90345510125381" lon="5.096137905285631"><ele>49.0</ele><time>2026-04-16T16:07:23.998Z</time></trkpt><trkpt lat="50.90336531213246" lon="5.096272353479718"><ele>49.0</ele><time>2026-04-16T16:07:24.998Z</time></trkpt><trkpt lat="50.90328701026657" lon="5.096399436961614"><ele>49.0</ele><time>2026-04-16T16:07:25.998Z</time></trkpt><trkpt lat="50.90320433864335" lon="5.09652695633041"><ele>49.2</ele><time>2026-04-16T16:07:26.998Z</time></trkpt><trkpt lat="50.90312307047201" lon="5.096623556412933"><ele>49.400000000000006</ele><time>2026-04-16T16:07:27.998Z</time></trkpt><trkpt lat="50.90304229391975" lon="5.096714602601743"><ele>49.6</ele><time>2026-04-16T16:07:28.998Z</time></trkpt><trkpt lat="50.90294944141348" lon="5.096814175205303"><ele>49.8</ele><time>2026-04-16T16:07:29.998Z</time></trkpt><trkpt lat="50.90284240134937" lon="5.0969021958546605"><ele>50.0</ele><time>2026-04-16T16:07:30.998Z</time></trkpt><trkpt lat="50.90274023999421" lon="5.096964564925407"><ele>50.0</ele><time>2026-04-16T16:07:31.998Z</time></trkpt><trkpt lat="50.902657802384226" lon="5.097011703614296"><ele>50.0</ele><time>2026-04-16T16:07:32.998Z</time></trkpt><trkpt lat="50.90256616471533" lon="5.097067537991315"><ele>50.0</ele><time>2026-04-16T16:07:33.998Z</time></trkpt><trkpt lat="50.90248742188268" lon="5.097116027862778"><ele>50.0</ele><time>2026-04-16T16:07:34.998Z</time></trkpt><trkpt lat="50.90242008591798" lon="5.097152117689233"><ele>50.0</ele><time>2026-04-16T16:07:35.998Z</time></trkpt><trkpt lat="50.90236946429302" lon="5.097222406426521"><ele>50.0</ele><time>2026-04-16T16:07:38.998Z</time></trkpt></trkseg></trk></gpx>